[[{"header":{"parameterUnit":"m.s-1","parameterCategory":1,"la1":30.6,"la2":29.2853,"lo1":-89.7004,"lo2":-87.6739,"dy":0.0162,"dx":0.0183,"nx":112,"ny":82,"refTime":"2023-07-02T00:00:00:Z","depth":0,"parameterNumber":2,"parameterNumberName":"U-component_of_WINDS"},"data":[0.0,0.0,0.0,0.0,0.0,0.0,0.0,0.0,0.0,0.0,0.0,0.0,0.0,0.0,0.0,0.0,0.0,0.0,0.0,0.0,0.0,0.0,0.0,0.0,0.0,0.0,0.0,0.0,0.0,0.0,0.0,0.0,0.0,0.0,0.0,0.0,0.0,0.0,0.0,0.0,0.0,0.0,0.0,0.0,0.0,0.0,0.0,0.0,0.0,0.0,0.0,0.0,0.0,0.0,0.0,0.0,0.0,0.0,0.0,0.0,0.0,0.0,0.0,0.0,0.0,0.0,0.0,0.0,0.0,0.0,0.0,0.0,0.0,0.0,0.0,0.0,0.0,0.0,0.0,0.0,0.0,0.0,0.0,0.0,0.0,0.0,0.0,0.0,0.0,0.0,0.0,-1.7579,-1.8657,-1.9253,-1.9227,-1.8571,-1.784,-1.7124,0.0,0.0,0.0,0.0,0.0,0.0,0.0,0.0,0.0,0.0,0.0,0.0,0.0,0.0,0.0,0.0,0.0,0.0,0.0,0.0,0.0,0.0,0.0,0.0,0.0,0.0,0.0,0.0,0.0,0.0,0.0,0.0,0.0,0.0,0.0,0.0,0.0,0.0,0.0,0.0,0.0,0.0,0.0,0.0,0.0,0.0,0.0,0.0,0.0,0.0,0.0,0.0,0.0,0.0,0.0,0.0,0.0,0.0,0.0,0.0,0.0,0.0,0.0,0.0,0.0,0.0,0.0,0.0,0.0,0.0,0.0,0.0,0.0,0.0,0.0,0.0,0.0,0.0,0.0,0.0,0.0,0.0,0.0,0.0,0.0,0.0,0.0,0.0,0.0,0.0,0.0,0.0,0.0,0.0,0.0,0.0,0.0,0.0,0.0,0.0,0.0,0.0,0.0,0.0,-1.6308,-1.86,-1.8977,-1.9253,-1.9738,-1.8649,-1.7663,-1.697,0.0,0.0,0.0,0.0,0.0,0.0,0.0,0.0,0.0,0.0,0.0,0.0,0.0,0.0,0.0,0.0,0.0,0.0,0.0,0.0,0.0,0.0,0.0,0.0,0.0,0.0,0.0,0.0,0.0,0.0,0.0,0.0,0.0,0.0,0.0,0.0,0.0,0.0,0.0,0.0,0.0,0.0,0.0,0.0,0.0,0.0,0.0,0.0,0.0,0.0,0.0,0.0,0.0,0.0,0.0,0.0,0.0,0.0,0.0,0.0,0.0,0.0,0.0,0.0,0.0,0.0,0.0,0.0,0.0,0.0,0.0,0.0,0.0,0.0,0.0,0.0,0.0,0.0,0.0,0.0,0.0,0.0,0.0,0.0,0.0,0.0,0.0,0.0,0.0,0.0,0.0,0.0,0.0,0.0,0.0,0.0,0.0,0.0,0.0,0.0,0.0,0.0,0.0,-1.5902,-1.7035,-1.9205,-1.941,-1.9486,-1.9778,-1.9232,-1.8289,-1.6929,-1.5768,0.0,0.0,0.0,0.0,0.0,0.0,0.0,0.0,0.0,0.0,0.0,0.0,0.0,0.0,0.0,0.0,0.0,0.0,0.0,0.0,0.0,0.0,0.0,0.0,0.0,0.0,0.0,0.0,0.0,0.0,0.0,0.0,0.0,0.0,0.0,0.0,0.0,0.0,0.0,0.0,0.0,0.0,0.0,0.0,0.0,0.0,0.0,0.0,0.0,0.0,0.0,0.0,0.0,0.0,0.0,0.0,0.0,0.0,0.0,0.0,0.0,0.0,0.0,0.0,0.0,0.0,0.0,0.0,0.0,0.0,0.0,0.0,0.0,0.0,0.0,0.0,0.0,0.0,0.0,0.0,0.0,0.0,0.0,0.0,0.0,0.0,0.0,0.0,0.0,0.0,0.0,0.0,0.0,0.0,0.0,0.0,0.0,0.0,0.0,0.0,0.0,0.0,-1.723,-1.8008,-1.9735,-1.99,-1.988,-1.988,-1.9731,-1.8811,-1.6898,-1.6335,0.0,0.0,0.0,0.0,0.0,0.0,0.0,0.0,0.0,0.0,0.0,0.0,0.0,0.0,0.0,0.0,0.0,0.0,0.0,0.0,0.0,0.0,0.0,0.0,0.0,0.0,0.0,0.0,0.0,0.0,0.0,0.0,0.0,0.0,0.0,0.0,0.0,0.0,0.0,0.0,0.0,0.0,0.0,0.0,0.0,0.0,0.0,0.0,0.0,0.0,0.0,0.0,0.0,0.0,0.0,0.0,0.0,0.0,0.0,0.0,0.0,0.0,0.0,0.0,0.0,0.0,0.0,0.0,0.0,0.0,0.0,0.0,0.0,0.0,0.0,0.0,0.0,0.0,0.0,0.0,0.0,0.0,0.0,0.0,0.0,0.0,0.0,0.0,0.0,0.0,0.0,0.0,0.0,0.0,0.0,0.0,0.0,0.0,0.0,0.0,0.0,0.0,-1.7951,-1.9178,-2.0498,-2.0521,-2.0437,-2.0437,-1.9816,-1.8644,-1.6821,-1.6666,0.0,0.0,0.0,0.0,0.0,0.0,0.0,0.0,0.0,0.0,0.0,0.0,0.0,0.0,0.0,0.0,0.0,0.0,0.0,0.0,0.0,0.0,0.0,0.0,0.0,0.0,0.0,0.0,0.0,0.0,0.0,0.0,0.0,0.0,0.0,0.0,0.0,0.0,0.0,0.0,0.0,0.0,0.0,0.0,0.0,0.0,0.0,0.0,0.0,0.0,0.0,0.0,0.0,0.0,0.0,0.0,0.0,0.0,0.0,0.0,0.0,0.0,0.0,0.0,0.0,0.0,0.0,0.0,0.0,0.0,0.0,0.0,0.0,0.0,0.0,0.0,0.0,0.0,0.0,0.0,0.0,0.0,0.0,0.0,0.0,0.0,0.0,0.0,0.0,0.0,0.0,0.0,0.0,0.0,0.0,0.0,0.0,0.0,0.0,0.0,0.0,0.0,-1.7875,-1.9095,0.0,-2.0796,-2.1008,-2.1008,-2.0407,-1.9234,-1.7379,0.0,0.0,0.0,0.0,0.0,0.0,0.0,0.0,0.0,0.0,0.0,0.0,0.0,0.0,0.0,0.0,0.0,0.0,0.0,0.0,0.0,0.0,0.0,0.0,0.0,0.0,0.0,0.0,0.0,0.0,0.0,0.0,0.0,0.0,0.0,0.0,0.0,0.0,0.0,0.0,0.0,0.0,0.0,0.0,0.0,0.0,0.0,0.0,0.0,0.0,0.0,0.0,0.0,0.0,0.0,0.0,0.0,0.0,0.0,0.0,0.0,0.0,0.0,0.0,0.0,0.0,0.0,0.0,0.0,0.0,0.0,0.0,0.0,0.0,0.0,0.0,0.0,0.0,0.0,0.0,0.0,0.0,0.0,0.0,0.0,0.0,0.0,0.0,0.0,0.0,0.0,0.0,0.0,0.0,0.0,0.0,0.0,0.0,0.0,0.0,0.0,0.0,-1.657,-1.8134,-1.9445,0.0,-2.1111,-2.1504,-2.1263,-2.0679,-1.9607,-1.7902,0.0,0.0,0.0,0.0,0.0,0.0,0.0,0.0,0.0,0.0,0.0,0.0,0.0,0.0,0.0,0.0,0.0,0.0,0.0,0.0,0.0,0.0,0.0,0.0,0.0,0.0,0.0,0.0,0.0,0.0,0.0,0.0,0.0,0.0,0.0,0.0,0.0,0.0,0.0,0.0,0.0,0.0,0.0,0.0,0.0,0.0,0.0,0.0,0.0,0.0,0.0,0.0,0.0,0.0,0.0,0.0,0.0,0.0,0.0,0.0,0.0,0.0,0.0,0.0,0.0,0.0,0.0,0.0,0.0,0.0,0.0,0.0,0.0,0.0,0.0,0.0,0.0,0.0,0.0,0.0,0.0,0.0,0.0,0.0,0.0,0.0,0.0,0.0,0.0,0.0,0.0,0.0,0.0,0.0,0.0,0.0,0.0,0.0,0.0,0.0,0.0,0.0,-1.6624,-1.8855,-2.04,-2.04,-2.149,-2.1885,-2.1169,-2.0556,-1.9635,0.0,0.0,0.0,0.0,0.0,0.0,0.0,0.0,0.0,0.0,0.0,0.0,0.0,0.0,0.0,0.0,0.0,0.0,0.0,0.0,0.0,0.0,0.0,0.0,0.0,0.0,0.0,0.0,0.0,0.0,0.0,0.0,0.0,0.0,0.0,0.0,0.0,0.0,0.0,0.0,0.0,0.0,0.0,0.0,0.0,0.0,0.0,0.0,0.0,0.0,0.0,0.0,0.0,0.0,0.0,0.0,0.0,0.0,0.0,0.0,0.0,0.0,0.0,0.0,0.0,0.0,0.0,0.0,0.0,0.0,0.0,0.0,0.0,0.0,0.0,0.0,0.0,0.0,0.0,0.0,0.0,0.0,0.0,0.0,0.0,0.0,0.0,0.0,0.0,0.0,0.0,0.0,0.0,0.0,0.0,0.0,0.0,0.0,0.0,0.0,0.0,0.0,0.0,0.0,-1.8781,-2.025,-2.025,-2.1249,-2.1819,-2.1615,-2.0659,-1.9709,-1.8879,0.0,0.0,0.0,0.0,0.0,0.0,0.0,0.0,0.0,0.0,0.0,0.0,0.0,0.0,0.0,0.0,0.0,0.0,0.0,0.0,0.0,0.0,0.0,0.0,0.0,0.0,0.0,0.0,0.0,0.0,0.0,0.0,0.0,0.0,0.0,0.0,0.0,0.0,0.0,0.0,0.0,0.0,0.0,0.0,0.0,0.0,0.0,0.0,0.0,0.0,0.0,0.0,0.0,0.0,0.0,0.0,0.0,0.0,0.0,0.0,0.0,0.0,0.0,0.0,0.0,0.0,0.0,0.0,0.0,0.0,0.0,0.0,0.0,0.0,0.0,0.0,0.0,0.0,0.0,0.0,0.0,0.0,0.0,0.0,0.0,0.0,0.0,0.0,0.0,0.0,0.0,0.0,0.0,0.0,0.0,0.0,0.0,0.0,0.0,0.0,0.0,0.0,-1.7222,-1.8974,-2.0204,-2.044,-2.1273,-2.1769,-2.1722,-2.0818,-2.002,-1.9386,0.0,0.0,0.0,0.0,0.0,0.0,0.0,0.0,0.0,0.0,0.0,0.0,0.0,0.0,0.0,0.0,0.0,0.0,0.0,0.0,0.0,0.0,0.0,0.0,0.0,0.0,0.0,0.0,0.0,0.0,0.0,0.0,0.0,0.0,0.0,0.0,0.0,0.0,0.0,0.0,0.0,0.0,0.0,0.0,0.0,0.0,0.0,0.0,0.0,0.0,0.0,0.0,0.0,0.0,0.0,0.0,0.0,0.0,0.0,0.0,0.0,0.0,0.0,0.0,0.0,0.0,0.0,0.0,0.0,0.0,0.0,0.0,0.0,0.0,0.0,0.0,0.0,0.0,0.0,0.0,0.0,0.0,0.0,0.0,0.0,0.0,0.0,0.0,0.0,0.0,0.0,0.0,0.0,0.0,0.0,0.0,0.0,0.0,0.0,0.0,0.0,0.0,-1.8149,-1.9273,-2.0211,-2.0818,-2.1411,-2.1712,-2.1592,-2.1045,-2.0416,-1.9809,0.0,0.0,0.0,0.0,0.0,0.0,0.0,0.0,0.0,0.0,0.0,0.0,0.0,0.0,0.0,0.0,0.0,0.0,0.0,0.0,0.0,0.0,0.0,0.0,0.0,0.0,0.0,0.0,0.0,0.0,0.0,0.0,0.0,0.0,0.0,0.0,0.0,0.0,0.0,0.0,0.0,0.0,0.0,0.0,0.0,0.0,0.0,0.0,0.0,0.0,0.0,0.0,0.0,0.0,0.0,0.0,0.0,0.0,0.0,0.0,-2.0623,0.0,0.0,0.0,0.0,0.0,0.0,0.0,0.0,0.0,0.0,0.0,0.0,0.0,0.0,0.0,0.0,0.0,0.0,0.0,0.0,0.0,0.0,0.0,0.0,0.0,0.0,0.0,0.0,0.0,0.0,0.0,0.0,0.0,0.0,0.0,0.0,0.0,0.0,0.0,0.0,0.0,-1.8125,-1.9168,-2.0078,-2.0681,-2.1189,-2.1471,-2.1447,-2.0904,-2.0487,-2.0342,0.0,0.0,0.0,0.0,0.0,0.0,0.0,0.0,0.0,0.0,0.0,0.0,0.0,0.0,0.0,0.0,0.0,0.0,0.0,0.0,0.0,0.0,0.0,0.0,0.0,0.0,0.0,0.0,0.0,0.0,0.0,0.0,0.0,0.0,0.0,0.0,0.0,0.0,0.0,0.0,0.0,0.0,0.0,0.0,0.0,0.0,0.0,0.0,0.0,0.0,0.0,0.0,0.0,0.0,0.0,0.0,0.0,0.0,0.0,0.0,0.0,-2.1387,0.0,0.0,0.0,0.0,0.0,0.0,0.0,0.0,0.0,0.0,0.0,0.0,0.0,0.0,0.0,0.0,0.0,0.0,0.0,0.0,0.0,0.0,0.0,0.0,0.0,0.0,0.0,0.0,0.0,0.0,0.0,0.0,0.0,0.0,0.0,0.0,0.0,0.0,0.0,0.0,-1.8845,-1.9642,-2.0475,-2.1359,-2.1678,-2.1941,-2.2239,-2.1711,-2.1236,-2.0952,-1.98,0.0,0.0,0.0,0.0,0.0,0.0,0.0,0.0,0.0,0.0,0.0,0.0,0.0,0.0,0.0,0.0,0.0,0.0,0.0,0.0,0.0,0.0,0.0,0.0,0.0,0.0,0.0,0.0,0.0,0.0,0.0,0.0,0.0,0.0,0.0,0.0,0.0,0.0,0.0,0.0,0.0,0.0,0.0,0.0,0.0,0.0,0.0,0.0,0.0,0.0,0.0,0.0,0.0,0.0,0.0,-2.6895,-2.7781,-2.7963,-2.7461,-2.5065,-2.3734,-2.3199,0.0,0.0,0.0,0.0,0.0,0.0,0.0,0.0,0.0,0.0,0.0,0.0,0.0,0.0,0.0,0.0,0.0,0.0,0.0,0.0,0.0,0.0,0.0,0.0,0.0,-2.0463,-2.0442,0.0,0.0,0.0,0.0,0.0,0.0,0.0,0.0,0.0,0.0,0.0,0.0,-1.977,-2.0347,-2.1087,-2.2183,-2.24,-2.2646,-2.3161,-2.2741,-2.221,-2.1589,-2.0992,-1.9962,0.0,0.0,0.0,0.0,0.0,0.0,0.0,0.0,0.0,0.0,0.0,0.0,0.0,0.0,0.0,0.0,0.0,0.0,0.0,0.0,0.0,0.0,0.0,0.0,0.0,0.0,0.0,0.0,0.0,0.0,0.0,0.0,-1.7813,-1.796,0.0,0.0,0.0,0.0,0.0,0.0,0.0,0.0,0.0,0.0,0.0,0.0,0.0,0.0,-2.6378,-2.7591,-2.8189,-2.8189,-2.8225,-2.8823,-2.9855,-2.9984,-3.0296,-3.0649,-2.9774,0.0,-2.5442,-2.4844,0.0,0.0,0.0,0.0,0.0,0.0,0.0,0.0,0.0,0.0,0.0,0.0,0.0,0.0,0.0,0.0,0.0,0.0,0.0,0.0,0.0,0.0,-2.1945,-2.2479,-2.2676,-2.2628,0.0,-2.06,-1.9103,-1.8898,0.0,0.0,0.0,0.0,0.0,0.0,0.0,0.0,-2.0338,-2.0911,-2.1534,-2.2237,-2.2768,-2.312,-2.3201,-2.3134,-2.2822,-2.2224,-2.1616,-2.0918,-2.0096,-1.8532,0.0,0.0,0.0,0.0,0.0,0.0,0.0,0.0,0.0,0.0,0.0,0.0,0.0,0.0,0.0,0.0,0.0,0.0,0.0,0.0,0.0,0.0,0.0,0.0,0.0,0.0,0.0,0.0,0.0,-1.8027,-1.9229,-1.9573,-2.0603,-2.1527,0.0,0.0,0.0,0.0,0.0,0.0,0.0,0.0,0.0,-2.7077,-2.8271,-2.8864,-2.8812,-3.0011,-3.0608,-3.0643,-3.0982,-3.1417,-3.1911,-3.225,-3.2498,-3.2715,-3.2155,-3.1186,-2.9801,-2.7827,-2.7026,-2.6932,0.0,0.0,0.0,0.0,0.0,0.0,-2.351,0.0,0.0,0.0,0.0,0.0,0.0,0.0,0.0,0.0,0.0,0.0,0.0,0.0,0.0,-2.4517,-2.4593,-2.4391,-2.4044,-2.3075,-2.1957,0.0,-2.0114,-1.9635,-1.9565,0.0,0.0,0.0,0.0,0.0,-2.0979,-2.1833,-2.2646,-2.3268,-2.354,-2.3838,-2.4177,-2.3892,-2.3594,-2.3323,-2.2441,-2.1594,-2.0869,-1.9414,-1.8214,0.0,0.0,0.0,0.0,0.0,0.0,0.0,0.0,0.0,0.0,0.0,0.0,0.0,0.0,0.0,0.0,0.0,0.0,0.0,0.0,0.0,0.0,0.0,0.0,0.0,0.0,0.0,0.0,-1.9492,-2.0447,-2.121,-2.2079,-2.2934,0.0,0.0,0.0,0.0,0.0,0.0,-2.7508,-2.7575,-2.8115,-2.9288,-3.0354,-3.0988,-3.1137,-3.2199,-3.2793,-3.2904,-3.3387,-3.3671,-3.3833,-3.4226,-3.4389,-3.4415,-3.4008,-3.3644,-3.3195,-3.0587,-2.9428,-2.9184,-2.8139,-2.7651,0.0,-2.6307,-2.5928,-2.5928,-2.5928,-2.5928,-2.59,-2.5751,0.0,-2.4709,-2.4709,0.0,0.0,0.0,0.0,-2.446,-2.5217,0.0,-2.5549,-2.6092,-2.6106,-2.5897,-2.5453,-2.5246,-2.4558,0.0,-2.1763,-2.1363,-2.1339,0.0,0.0,0.0,0.0,-2.186,-2.186,-2.2781,-2.3608,-2.4042,-2.4231,-2.4502,-2.4964,-2.4598,-2.4245,-2.4109,-2.3216,-2.23,-2.141,-2.0287,-1.9095,0.0,0.0,0.0,0.0,0.0,0.0,0.0,0.0,0.0,0.0,0.0,0.0,0.0,0.0,0.0,0.0,0.0,0.0,0.0,0.0,0.0,0.0,0.0,0.0,0.0,0.0,0.0,0.0,0.0,0.0,-2.2722,-2.3258,0.0,0.0,0.0,0.0,-2.6969,-2.7508,-2.8379,-2.9584,-2.9651,-3.0184,-3.1306,-3.1982,-3.2581,-3.3167,-3.3767,-3.4366,-3.4872,-3.4898,-3.5191,-3.5778,-3.5805,-3.5818,-3.5818,-3.5792,-3.5139,-3.402,-3.2617,-3.1667,-3.1097,-3.0473,-2.9862,-2.9298,-2.8641,-2.841,-2.841,-2.841,-2.841,-2.8315,-2.7759,-2.6769,-2.5835,-2.5835,-2.5499,0.0,0.0,-2.6069,-2.6293,-2.6929,-2.7081,-2.7095,-2.7122,-2.7136,-2.7063,-2.6916,-2.6873,-2.6175,0.0,-2.3275,-2.3222,-2.3105,0.0,0.0,-2.3025,-2.3053,-2.312,-2.312,-2.3662,-2.4069,-2.4096,-2.4625,-2.4978,-2.5005,-2.4978,-2.472,-2.4136,-2.3932,-2.3232,-2.1912,-2.1187,-2.0193,-1.8845,-1.7721,0.0,0.0,0.0,0.0,0.0,0.0,0.0,0.0,0.0,0.0,0.0,0.0,0.0,0.0,0.0,0.0,0.0,0.0,0.0,0.0,0.0,0.0,0.0,0.0,0.0,0.0,0.0,0.0,-2.4922,-2.5532,0.0,0.0,-2.8193,-2.8744,-2.9329,-2.9914,-3.0591,-3.1426,-3.1838,-3.241,-3.3208,-3.4153,-3.4765,-3.4978,-3.555,-3.5949,-3.6162,-3.6162,-3.6269,-3.6468,-3.6468,-3.6468,-3.6468,-3.6468,-3.6229,-3.5845,-3.5342,-3.4138,-3.2544,-3.1927,-3.1625,-3.1501,-3.0885,-3.051,-3.0337,-3.0337,-3.0079,-2.9659,-2.9048,-2.8578,-2.8125,-2.7746,-2.7519,-2.7332,-2.7169,-2.7145,-2.7277,-2.7574,-2.7646,-2.7772,-2.8309,-2.8312,-2.8109,-2.7667,-2.7506,-2.7074,-2.5836,-2.4966,-2.4395,-2.4381,-2.3716,-2.3215,-2.3215,-2.354,-2.3784,-2.3784,-2.4299,-2.4693,-2.4693,-2.4883,-2.5005,-2.5005,-2.5005,-2.4867,-2.4567,-2.4147,-2.3433,-2.2406,-2.1401,-2.0432,-1.9499,-1.8702,-1.7796,0.0,0.0,0.0,0.0,0.0,0.0,0.0,0.0,0.0,0.0,0.0,0.0,0.0,0.0,0.0,0.0,0.0,0.0,0.0,0.0,0.0,0.0,0.0,0.0,0.0,0.0,-2.5438,-2.6617,-2.7405,-2.8218,-2.9209,-3.0002,-3.0609,-3.0969,-3.1759,-3.2446,-3.304,-3.3661,-3.4243,-3.4812,-3.5579,-3.6082,-3.628,-3.6664,-3.7061,-3.7444,-3.7444,-3.7444,-3.7444,-3.7444,-3.7338,-3.7166,-3.7166,-3.7047,-3.6862,-3.6862,-3.5831,-3.419,-3.3542,-3.3233,-3.3147,-3.2595,-3.225,-3.2086,-3.2146,-3.1667,-3.0934,-3.0561,-3.0154,-2.9713,-2.9319,-2.9211,-2.9116,-2.8736,-2.8614,-2.8646,-2.8716,-2.8748,-2.8876,-2.9397,-2.9427,-2.922,-2.883,-2.8502,-2.8193,-2.78,-2.6579,-2.5615,-2.5615,-2.4936,-2.4421,-2.4421,-2.4746,-2.5004,-2.5004,-2.5343,-2.5615,-2.5615,-2.5615,-2.5534,-2.5317,-2.5303,-2.5165,-2.482,-2.4387,-2.3765,-2.2948,-2.1957,-2.1011,-2.0137,-1.9269,-1.841,-1.754,0.0,0.0,0.0,0.0,0.0,0.0,0.0,0.0,0.0,0.0,0.0,0.0,0.0,0.0,0.0,0.0,0.0,0.0,0.0,0.0,0.0,0.0,0.0,-2.4527,-2.5431,-2.6512,-2.7756,-2.8764,-2.9562,-3.0127,-3.121,-3.1889,-3.1889,-3.3012,-3.3901,-3.4424,-3.5025,-3.56,-3.6136,-3.6175,-3.6475,-3.7077,-3.709,-3.7639,-3.8736,-3.8736,-3.8736,-3.8736,-3.8736,-3.8449,-3.7952,-3.7952,-3.7612,-3.705,-3.705,-3.6711,-3.6088,-3.5343,-3.4725,-3.422,-3.383,-3.3666,-3.3665,-3.3844,-3.32,-3.2236,-3.2236,-3.1436,-3.0486,-3.0486,-3.0473,-3.0459,-3.0446,-3.0446,-3.0432,-3.0405,-3.0405,-3.0405,-3.0405,-3.0405,-3.0405,-3.0405,-2.993,-2.9543,-2.9543,-2.8098,-2.686,-2.682,-2.6806,-2.6793,-2.6793,-2.6793,0.0,-2.6793,-2.6793,-2.6793,-2.6793,-2.6793,-2.6549,-2.5968,-2.59,-2.5585,-2.4845,-2.4677,-2.4268,-2.3528,-2.2809,-2.189,-2.0777,-1.9445,-1.8711,-1.8657,0.0,0.0,0.0,0.0,0.0,0.0,0.0,0.0,0.0,0.0,0.0,0.0,0.0,0.0,0.0,0.0,0.0,0.0,0.0,0.0,0.0,0.0,-2.5999,-2.6094,-2.666,-2.7831,-2.9882,-3.0357,-3.0908,-3.1888,-3.3025,-3.3692,-3.3692,-3.4763,-3.5482,-3.5626,-3.6201,-3.6802,-3.739,-3.7782,-3.8279,-3.8893,-3.8893,-3.905,-3.9364,-3.9364,-3.9364,-3.9364,-3.9364,-3.9272,-3.9141,-3.9141,-3.8802,-3.824,-3.824,-3.7913,-3.7286,-3.6227,-3.5848,-3.5833,-3.5404,-3.4929,-3.4412,-3.4018,-3.3691,-3.342,-3.342,-3.2955,-3.2368,-3.2368,-3.2069,-3.1599,-3.1178,-3.1042,-3.0948,-3.0513,-3.0405,-3.0405,-3.0405,-3.0405,-3.0405,-3.0405,-3.0283,-3.0161,-3.0161,-2.9387,-2.8478,-2.761,-2.7077,-2.6793,-2.6793,0.0,0.0,-2.6793,-2.6793,-2.6793,-2.6793,-2.6793,-2.6725,-2.6579,-2.6145,-2.5702,0.0,-2.486,-2.4197,-2.3306,-2.308,-2.2648,-2.1957,-2.0564,-1.9847,0.0,0.0,0.0,0.0,0.0,0.0,0.0,0.0,0.0,0.0,0.0,0.0,0.0,0.0,0.0,0.0,0.0,0.0,0.0,0.0,0.0,0.0,-2.6634,-2.7962,-2.8446,-2.8765,-2.947,-3.083,-3.1627,-3.2424,-3.3326,-3.4241,-3.4868,-3.5103,-3.5966,-3.6488,-3.6488,-3.726,-3.7874,-3.8227,-3.8789,-3.9259,-3.9612,-3.9612,-3.973,-3.9952,-3.9952,-3.9952,-3.9952,-3.9952,-3.9821,0.0,-3.9612,-3.9416,-3.9076,-3.8815,-3.8527,0.0,0.0,0.0,0.0,0.0,-3.576,-3.5493,-3.4856,-3.449,-3.4287,-3.4287,-3.3919,-3.343,-3.343,-3.3023,-3.2504,-3.2164,-3.1857,-3.1585,-3.1246,-3.1151,-3.1151,-3.1151,-3.1151,-3.1151,-3.1151,-3.0961,-3.0785,-3.0785,0.0,0.0,-2.8614,-2.7949,-2.7556,-2.7556,-2.7556,-2.7556,0.0,-2.7556,-2.7556,-2.7556,-2.7556,-2.7461,-2.7186,-2.6864,0.0,0.0,0.0,-2.4392,-2.325,0.0,0.0,0.0,0.0,-2.0924,0.0,0.0,0.0,0.0,-1.9258,-1.9169,0.0,0.0,0.0,0.0,0.0,0.0,0.0,0.0,0.0,0.0,0.0,0.0,0.0,0.0,0.0,0.0,-2.842,-2.9849,-3.0934,-3.1196,-3.1274,-3.1274,-3.2698,-3.3901,-3.445,-3.5103,-3.5691,-3.6175,-3.6763,-3.7129,-3.7194,0.0,0.0,0.0,0.0,-3.973,-3.9795,-3.9795,-4.0043,-4.0514,-4.0514,-4.0514,-4.0514,-4.0514,-4.0252,-3.9795,-3.9795,-3.9756,-3.9664,-3.9115,-3.8828,-3.8652,-3.7566,-3.7108,-3.7014,-3.6366,-3.6352,0.0,0.0,0.0,0.0,-3.4897,-3.449,-3.4002,-3.4002,-3.3634,-3.3196,-3.3196,-3.2775,-3.2314,-3.2314,-3.2259,-3.2218,-3.2218,-3.2218,-3.2218,-3.2218,-3.1762,-3.1395,-3.1395,-3.0907,-3.0337,-2.9814,-2.9162,-2.8668,-2.86,-2.8587,0.0,-2.8587,-2.8587,-2.8587,-2.8587,0.0,0.0,-2.7854,-2.7746,-2.7089,-2.5695,-2.5449,-2.4786,-2.3459,-2.3354,-2.2996,-2.2308,-2.2095,-2.1931,-2.1792,-2.1665,-2.1606,-2.1656,-2.0864,-2.0489,0.0,0.0,0.0,0.0,0.0,0.0,0.0,0.0,0.0,0.0,0.0,0.0,0.0,0.0,0.0,-2.8708,-2.9836,-3.0895,-3.1536,-3.2489,-3.3091,-3.3091,-3.377,-3.4476,-3.5064,-3.6057,-3.6711,-3.6828,-3.739,-3.7913,-3.8357,-3.8593,0.0,-4.0056,-4.02,-4.0501,-4.0984,-4.0984,-4.1036,-4.1141,0.0,0.0,-4.1141,-4.1141,-4.1089,-4.0984,-4.0984,-4.071,-4.0252,-4.0135,-3.9642,-3.8938,-3.8227,-3.7809,-3.7564,-3.7645,-3.7234,-3.6578,-3.6469,-3.6035,-3.5547,-3.5547,-3.51,-3.4626,-3.4626,-3.4206,0.0,-3.3745,-3.3349,-3.2938,-3.2938,-3.2572,-3.2218,-3.2218,-3.2218,-3.2218,-3.2218,-3.2123,-3.2042,-3.2042,-3.1531,-3.1083,-3.0961,-3.0059,-2.9176,-2.8655,-2.8587,-2.8587,-2.8587,-2.8587,-2.8587,-2.8587,-2.8587,-2.8546,-2.8438,-2.7976,-2.7471,-2.6885,-2.5748,-2.496,-2.4665,-2.4191,-2.3803,-2.3554,-2.2945,-2.2559,-2.2429,-2.2245,-2.2385,-2.2757,-2.1665,-2.1494,0.0,0.0,0.0,0.0,0.0,0.0,0.0,0.0,0.0,0.0,0.0,-2.7196,0.0,0.0,-2.9876,-3.0464,-3.1535,-3.2385,-3.2672,-3.3718,-3.4332,-3.4031,-3.4502,-3.5195,-3.607,-3.6671,-3.7129,-3.7429,-3.7978,-3.8423,-3.8697,-3.9246,-3.9821,-4.0396,-4.071,-4.101,-4.1311,-4.1311,-4.1311,-4.1311,-4.1311,-4.1311,-4.1311,-4.1311,-4.1311,-4.1311,-4.1461,-4.134,-4.1012,-4.0518,-3.9923,-3.923,-3.8756,-3.8434,-3.8287,-3.8138,-3.7626,-3.7026,-3.6714,-3.6212,-3.571,-3.571,-3.552,-3.5236,-3.5236,-3.4816,-3.4394,-3.4524,-3.4126,-3.3656,-3.3467,-3.3179,-3.2864,-3.2513,-3.2372,-3.23,-3.23,-3.2241,-3.2218,-3.2218,-3.1938,-3.1639,-3.1341,-3.0785,-3.0079,-2.9203,-2.8777,-2.8587,-2.8587,-2.8587,-2.8587,-2.8587,-2.8587,-2.8587,-2.8587,-2.7872,-2.7377,-2.7192,-2.6082,-2.5393,-2.5393,-2.5118,-2.4853,-2.461,-2.4253,-2.393,-2.37,-2.3608,-2.3672,-2.3935,-2.317,-2.3022,0.0,0.0,0.0,0.0,0.0,0.0,0.0,0.0,-2.6537,-2.7561,-2.8465,-2.9196,-2.9693,-3.062,-3.1509,-3.2045,-3.2973,-3.3679,-3.3888,-3.4711,-3.5195,-3.4933,-3.5325,-3.5992,-3.692,-3.7116,-3.7377,-3.7861,-3.841,-3.8762,-3.888,-3.986,-4.0461,-4.0592,-4.1063,-4.1311,-4.1311,-4.1311,-4.1311,-4.1311,-4.1361,-4.1361,-4.1361,-4.1411,-4.1461,-4.1461,-4.1696,-4.1796,-4.1716,-4.0899,-4.0208,-3.9713,-3.928,-3.9105,-3.8944,-3.8499,-3.8047,-3.758,-3.6999,-3.6388,-3.5873,-3.575,-3.571,-3.571,-3.571,-3.5384,-3.5097,-3.5321,-3.4986,-3.4431,-3.3988,-3.3776,-3.3527,-3.2856,-3.2596,-3.2453,-3.2453,-3.2322,-3.2241,-3.2241,-3.2205,-3.2069,-3.1544,-3.1368,-3.088,-2.9692,-2.9108,-2.8722,-2.8614,-2.8587,-2.8587,-2.8587,-2.8587,-2.8587,-2.8587,-2.7852,-2.7365,-2.7365,-2.6485,-2.5981,-2.5981,-2.5845,-2.5623,-2.5294,-2.5294,-2.5148,-2.4788,-2.4788,-2.4838,-2.4938,-2.4612,-2.4448,-2.3276,-2.389,-2.4818,-2.5318,-2.5905,-2.6654,0.0,0.0,-2.9043,-2.9634,-3.0662,-3.1432,-3.151,-3.2071,-3.2698,-3.33,-3.3509,-3.3953,-3.4959,-3.5221,-3.5652,-3.6606,-3.6776,-3.6867,-3.6998,-3.7482,-3.7835,-3.79,-3.841,-3.8945,-3.9481,-4.0082,-4.0657,-4.1193,-4.1272,-4.1311,-4.1311,-4.1311,-4.1311,-4.1311,-4.1547,-4.1647,-4.1647,-4.1881,-4.2029,-4.2029,-4.2029,-4.2079,-4.2025,-4.1614,-4.1093,-4.0548,-4.0186,-3.9721,-3.9247,-3.9179,-3.8786,-3.8233,-3.7594,-3.7012,-3.6415,-3.5886,-3.571,-3.571,-3.571,-3.5803,-3.5976,-3.5976,-3.5682,-3.5217,-3.4651,-3.4108,-3.3527,-3.2856,-3.2668,-3.2668,-3.2668,-3.2525,-3.2381,-3.2381,-3.2264,-3.2191,-3.2123,-3.1639,-3.088,-2.9692,-2.9448,-2.923,-2.8655,-2.8587,-2.8587,-2.8587,-2.8587,-2.8587,-2.8587,-2.8241,-2.8019,-2.8019,-2.7123,-2.6614,-2.6614,-2.6086,-2.5623,-2.5294,-2.5294,-2.5148,-2.4788,-2.4788,-2.5026,-2.5511,-2.5169,-2.5013,-2.5075,-2.5699,0.0,0.0,-2.798,-2.8705,-2.982,-3.0371,-3.0784,-3.1331,-3.1928,-3.2437,-3.279,-3.3051,-3.3404,0.0,-3.4358,-3.475,-3.5234,-3.5874,-3.6462,-3.6946,-3.7312,-3.7521,-3.7521,-3.7756,-3.79,-3.79,-3.8723,-3.9337,-3.9599,-4.0448,-4.105,-4.1311,-4.1461,-4.156,-4.156,-4.1696,-4.1796,-4.1796,-4.1881,-4.1931,-4.1931,-4.2029,-4.219,-4.2351,-4.2351,-4.2435,-4.2541,-4.2044,-4.1497,-4.0902,-4.0372,-3.9821,-3.9305,-3.9305,-3.8925,-3.8383,-3.8095,-3.7406,-3.6564,-3.632,-3.6089,-3.5938,-3.5938,-3.6112,-3.6286,-3.6445,-3.633,-3.61,-3.5603,-3.5013,-3.4385,-3.3734,-3.3217,-3.2881,-3.2881,-3.2739,-3.2561,-3.2417,-3.2359,-3.23,-3.2205,-3.2001,-3.1517,-3.0663,-2.9964,-2.942,-2.9176,-2.8804,-2.8587,-2.8587,-2.8587,-2.8587,-2.8587,-2.8276,-2.8112,-2.8112,-2.7512,-2.717,-2.717,-2.6902,-2.6687,-2.6458,-2.6359,-2.6161,-2.5908,-2.5841,-2.5887,-2.6101,-2.5738,-2.5566,-2.7038,0.0,0.0,-2.9161,-2.9796,-3.048,-3.1474,-3.1941,-3.2253,-3.2669,-3.2944,-3.33,-3.3731,-3.3809,-3.394,-3.4332,-3.4763,-3.5155,-3.5482,-3.6227,-3.6881,-3.7207,-3.7639,-3.79,-3.79,-3.79,-3.7965,-3.8122,-3.905,-3.9677,-3.9931,-4.0874,-4.1461,-4.1511,-4.1696,-4.1796,-4.1796,-4.198,-4.2079,-4.2079,-4.2177,-4.219,-4.2226,-4.2289,-4.2435,-4.2595,-4.2595,-4.2693,-4.286,-4.2426,-4.1896,-4.13,-4.0689,-4.0078,-3.9522,-3.9359,-3.902,-3.864,-3.8477,-3.7731,-3.6836,-3.6742,-3.6429,-3.6126,-3.6166,-3.6325,-3.6524,-3.6682,-3.6747,-3.6685,-3.6234,-3.5653,-3.5034,-3.4343,-3.364,-3.3072,-3.3072,-3.2917,-3.2739,-3.2525,-3.2453,-3.2359,-3.2205,-3.2218,-3.2069,-3.1599,-3.0649,-2.9896,-2.9556,-2.8953,-2.8587,-2.8587,-2.8587,-2.8587,-2.8587,-2.8276,-2.8112,-2.8112,-2.7736,-2.749,-2.749,-2.749,-2.7436,-2.7302,-2.7113,-2.6909,-2.6679,-2.6555,-2.6499,-2.6499,-2.6154,-2.5945,-2.8882,0.0,-3.0166,-3.079,-3.1327,-3.1902,-3.2542,-3.3117,-3.3535,-3.3561,-3.3979,-3.4345,-3.4371,-3.4371,-3.4384,-3.4397,-3.441,-3.4816,-3.5926,-3.6109,-3.6567,-3.7743,-3.79,-3.79,0.0,-3.79,-3.8122,-3.8645,-3.9259,-3.9944,-4.0737,-4.1367,-4.1796,-4.2079,-4.2079,-4.2079,-4.2079,-4.2079,-4.2079,-4.2079,-4.2338,-4.2511,-4.2511,-4.2741,-4.2887,-4.2887,-4.2887,-4.2887,-4.2887,-4.2873,-4.2521,-4.191,-4.1327,-4.0703,-4.0092,-3.9522,-3.9292,-3.9197,-3.8613,-3.7973,-3.7406,-3.7002,-3.6538,-3.6126,-3.6325,-3.6524,-3.6682,-3.6721,-3.685,-3.6838,-3.6272,-3.5653,-3.5034,-3.4343,-3.3726,-3.329,-3.329,-3.3108,-3.2917,-3.2739,-3.2525,-3.2359,-3.2205,-3.2218,-3.2205,-3.2191,-3.1626,-3.0812,-2.9665,-2.8953,-2.8587,-2.8587,-2.8587,-2.8587,-2.8587,-2.8276,-2.8112,-2.8112,-2.7736,-2.749,-2.749,-2.749,-2.7436,-2.7302,-2.7113,-2.6909,-2.6679,-2.6555,-2.6499,-2.6499,-2.6305,-2.6097,-2.998,0.0,-3.1026,-3.2385,-3.2855,-3.3143,-3.3692,-3.3979,-3.4123,-3.4123,-3.4267,-3.4397,-3.4397,-3.4397,-3.4397,-3.4397,-3.4737,-3.526,-3.6005,-3.6449,-3.6998,-3.7808,-3.8011,0.0,0.0,0.0,0.0,-3.8891,-3.9544,-4.0232,-4.1041,-4.1625,-4.2029,-4.2079,-4.2289,-4.2351,-4.2351,-4.2533,-4.2631,-4.2631,-4.2741,-4.279,-4.279,-4.2838,-4.2887,-4.2887,-4.2887,-4.2887,-4.2887,-4.2887,-4.2534,-4.1951,-4.1354,-4.073,-4.0119,-3.9522,-3.9407,-3.9526,-3.9322,-3.8888,-3.8316,-3.7868,-3.7468,-3.7009,-3.6714,-3.6747,-3.6875,-3.6875,-3.6954,-3.6936,-3.6764,-3.5949,-3.5133,-3.4936,-3.407,-3.329,-3.329,-3.3241,-3.3157,-3.2952,-3.2739,-3.2561,-3.2359,-3.2277,-3.2083,-3.1653,-3.1083,-3.0405,-2.9611,-2.8953,-2.8587,-2.8587,-2.8587,-2.8587,-2.8587,-2.8379,-2.8183,-2.8112,-2.7868,-2.7656,-2.749,-2.749,-2.7503,-2.7436,-2.7146,-2.6977,-2.6909,-2.6636,-2.6499,-2.6499,-2.6305,-2.6282,-3.0934,-3.1601,-3.2189,-3.3313,-3.3731,-3.3966,-3.4319,-3.4397,-3.4345,-3.4149,-3.411,-3.4045,-3.3822,-3.3783,-3.3862,-3.4071,-3.4437,-3.5067,-3.6109,-3.6582,-3.7164,-3.8024,-3.8285,0.0,0.0,0.0,0.0,-3.9488,-3.9885,-4.055,-4.159,-4.2026,-4.2289,-4.2373,-4.2533,-4.2644,-4.2644,-4.279,-4.2887,-4.2887,-4.2887,-4.2887,-4.2887,-4.2887,-4.2887,-4.2887,-4.2887,-4.2887,-4.2887,-4.2887,-4.2656,-4.2263,-4.176,-4.1194,-4.0568,-4.0059,-3.985,-3.9818,-3.9744,-3.9376,-3.8831,-3.8435,-3.7978,-3.75,-3.6953,-3.6889,-3.6978,-3.6978,-3.6978,-3.6978,-3.6978,-3.6103,-3.5189,-3.5189,-3.4211,-3.329,-3.329,-3.329,-3.3241,-3.3023,-3.2917,-3.2739,-3.2453,-3.23,-3.2083,-3.1667,-3.092,-3.0188,-2.9597,-2.8953,-2.8587,-2.8587,-2.8587,-2.8587,-2.8587,-2.843,-2.8235,-2.8112,-2.7901,-2.7723,-2.749,-2.749,-2.749,-2.749,-2.7248,-2.7079,-2.699,-2.6705,-2.6669,-2.6788,-2.6661,-2.6772,-3.168,-3.2712,-3.36,-3.3626,-3.4018,-3.4397,-3.4397,-3.4384,-3.4201,-3.3692,-3.3574,-3.3365,0.0,0.0,-3.2881,-3.3484,-3.3615,-3.4286,-3.6155,-3.6488,-3.6994,0.0,0.0,0.0,0.0,0.0,0.0,-4.0334,0.0,-4.0989,-4.2444,-4.2511,-4.2644,-4.2887,-4.2887,-4.2887,-4.2887,-4.2887,-4.2887,-4.2887,-4.2887,-4.2887,-4.2887,-4.2887,-4.2887,-4.2887,-4.2887,-4.2887,-4.2935,-4.2935,-4.2935,-4.2916,-4.2568,-4.1986,-4.137,-4.1038,-4.052,-4.0009,-3.9818,-3.9477,-3.9099,-3.87,-3.8142,-3.7596,-3.7178,-3.7007,-3.6978,-3.6978,-3.6978,-3.6978,-3.6978,-3.6131,-3.5231,-3.5203,-3.4239,-3.3333,-3.329,-3.329,-3.3241,-3.3072,-3.3023,-3.2881,-3.2489,-3.23,-3.2218,-3.2218,-3.1192,-3.0228,-2.9604,-2.898,-2.8587,-2.8587,-2.8587,-2.8587,-2.8587,-2.8444,-2.8235,-2.8112,-2.7934,-2.7723,-2.749,-2.749,-2.749,-2.749,-2.7408,-2.7253,-2.7028,-2.6871,-2.6978,-2.7318,-2.7318,-2.7499,-3.2202,-3.3025,-3.3692,-3.4097,-3.4293,-3.4397,-3.4397,-3.4084,-3.3757,-3.3626,-3.3234,-3.2868,0.0,0.0,0.0,-3.308,-3.3528,0.0,-3.5254,-3.6173,0.0,-3.7825,0.0,-3.9006,-3.943,-3.9833,0.0,0.0,-4.1368,-4.1705,-4.2749,-4.279,-4.2838,-4.2887,-4.2887,-4.2887,-4.2887,-4.2887,-4.2887,-4.2887,-4.2887,-4.2887,-4.2887,-4.2887,-4.2887,-4.2887,-4.2887,-4.3032,-4.3225,-4.3225,-4.3307,-4.3368,-4.2885,-4.2265,-4.1631,-4.1083,-4.0623,-4.0298,-4.0225,-4.0158,-4.0008,-3.9592,-3.9046,-3.8455,-3.7864,-3.7358,-3.6978,-3.6978,-3.6978,-3.6978,-3.6978,-3.6455,-3.5766,-3.5302,-3.4562,-3.3852,-3.3389,-3.329,-3.3276,-3.3241,-3.3108,-3.2881,-3.2489,-3.2381,-3.2336,-3.2218,-3.1544,-3.0853,-3.0242,-2.9252,-2.8587,-2.8587,-2.8587,-2.8587,-2.8587,-2.8554,-2.8392,-2.8112,-2.8046,-2.7868,-2.749,-2.749,-2.749,-2.749,-2.7751,-2.7799,-2.7613,-2.786,-2.7925,-2.7896,-2.7896,-2.8075,-3.2842,-3.3509,-3.4018,-3.4319,-3.4397,-3.4332,-3.4097,-3.3809,-3.3378,-3.2607,-3.2176,0.0,0.0,0.0,0.0,0.0,0.0,0.0,-3.5021,-3.6211,-3.723,0.0,-3.8616,0.0,-3.9905,-4.034,-4.0987,0.0,-4.1849,-4.2092,-4.286,-4.2887,-4.2887,-4.2887,-4.2887,-4.2887,-4.2887,-4.2887,-4.2887,-4.2887,-4.2887,-4.2984,-4.308,-4.308,-4.3115,-4.3197,0.0,-4.3293,-4.3437,-4.3437,-4.3471,-4.3573,-4.341,-4.2791,-4.1959,-4.1716,-4.1167,-4.0544,-4.0544,-4.0544,-4.0446,-3.9943,-3.9408,-3.879,-3.8088,-3.747,-3.6978,-3.6978,-3.6978,-3.6978,-3.6978,-3.6567,-3.5949,-3.533,-3.4688,-3.4034,-3.3417,-3.329,-3.329,-3.329,-3.3157,-3.2917,-3.2704,-3.2525,-3.2381,-3.23,-3.1738,-3.1083,-3.0486,-2.9577,-2.8872,-2.8627,-2.8587,-2.8587,-2.8587,-2.8587,-2.849,-2.8229,-2.8131,-2.798,-2.7656,-2.7556,-2.7607,-2.7902,-2.8126,-2.8261,-2.8331,-2.8439,-2.8551,-2.8572,-2.8498,-2.8687,-3.3326,-3.3927,-3.4397,-3.4397,-3.4345,-3.4162,-3.3705,-3.3417,-3.2816,-3.1325,0.0,-3.0524,-2.9706,0.0,-3.0553,-3.1319,0.0,-3.3604,-3.4996,-3.6315,-3.7423,-3.819,-3.8884,-3.9563,-4.0241,-4.0857,-4.1441,-4.212,-4.2209,-4.244,-4.2908,-4.2935,-4.2984,-4.297,-4.297,-4.297,-4.297,-4.297,-4.297,-4.297,-4.297,-4.3115,-4.3355,-4.3355,-4.3437,-4.36,0.0,0.0,-4.3648,-4.3648,-4.3648,-4.3757,-4.3974,-4.3343,-4.2255,-4.2494,-4.1783,-4.0702,-4.0702,-4.0702,-4.0603,-4.0083,-3.9479,-3.8804,-3.8201,-3.754,-3.6978,-3.6978,-3.6978,-3.6978,-3.6978,-3.6624,-3.6075,-3.5456,-3.4801,-3.4147,-3.3543,-3.3347,-3.329,-3.329,-3.3157,-3.3023,-3.2988,-3.2704,-3.2453,-3.2417,-3.1864,-3.1227,-3.0595,-2.9903,-2.9285,-2.8655,-2.8587,-2.8587,-2.8587,-2.8587,-2.8509,-2.832,-2.8164,-2.8,-2.7809,-2.7689,-2.7876,-2.8407,-2.8564,-2.8786,-2.9116,-2.8978,-2.9041,-2.9327,-2.9114,-2.9315,-3.2856,-3.36,-3.4397,-3.4397,-3.4071,-3.3705,-3.3613,-3.2476,0.0,0.0,-3.0411,-2.9759,-2.9759,-2.9834,0.0,-3.0949,0.0,0.0,0.0,0.0,-3.6957,0.0,0.0,0.0,0.0,0.0,0.0,0.0,0.0,0.0,-4.3211,-4.3225,-4.3307,-4.3471,-4.3471,-4.3471,-4.3471,-4.3471,-4.3471,-4.3471,-4.3471,-4.3505,-4.3566,-4.3566,-4.3553,-4.36,0.0,0.0,-4.3926,-4.3926,-4.4068,-4.427,-4.4317,-4.3606,-4.2539,-4.2584,-4.1783,-4.0702,-4.0702,-4.0702,-4.0674,-4.0575,-3.9788,-3.8888,-3.8775,-3.7932,-3.6978,-3.6978,-3.6978,-3.6978,-3.6978,-3.6908,-3.6708,-3.6103,-3.547,-3.4866,-3.4175,-3.3641,-3.329,-3.329,-3.3276,-3.3206,-3.3023,-3.2952,-3.2775,-3.2453,-3.2299,-3.1954,-3.1254,-3.0161,-2.9285,-2.8655,-2.8587,-2.8587,-2.8587,-2.8587,-2.8509,-2.832,-2.8164,-2.8,-2.7809,-2.8082,-2.8281,-2.842,-2.934,-2.9767,-2.9663,-2.9955,-3.0049,-2.9923,-2.9756,-2.9691,-3.3344,-3.3872,-3.4294,-3.4294,-3.4096,-3.3661,-3.2698,0.0,0.0,0.0,-2.9119,-2.8571,-2.8158,0.0,0.0,0.0,0.0,0.0,0.0,0.0,0.0,0.0,0.0,0.0,0.0,0.0,0.0,0.0,0.0,0.0,0.0,-4.3485,-4.3519,-4.36,-4.36,-4.36,-4.36,-4.36,-4.36,-4.36,-4.36,-4.3662,-4.3818,-4.3818,-4.3865,-4.4007,0.0,0.0,-4.4223,-4.4223,-4.427,-4.4411,-4.4411,-4.3849,-4.302,-4.2697,-4.198,-4.1123,-4.0814,-4.0702,-4.0702,-4.0816,-4.0196,-3.9324,-3.9015,-3.8215,-3.7386,-3.7077,-3.6978,-3.6978,-3.6978,-3.6978,-3.6838,-3.6244,-3.5363,-3.4506,-3.3866,-3.3487,-3.329,-3.329,-3.329,-3.3276,-3.3157,-3.3072,-3.2917,-3.2739,-3.2525,-3.2176,-3.1545,-3.0854,-3.01,-2.919,-2.8777,-2.8587,-2.8587,-2.8587,-2.8554,-2.8476,-2.8314,-2.8252,-2.8379,-2.8481,-2.879,-2.9287,-2.9813,-3.0207,-3.042,-3.0505,-3.0457,-3.0254,-3.0049,-2.9895,-3.354,-3.3927,-3.4033,-3.4033,-3.3794,-3.3235,-3.1801,-3.1096,0.0,0.0,-2.7872,-2.745,-2.6683,0.0,0.0,0.0,0.0,0.0,0.0,0.0,0.0,0.0,0.0,0.0,0.0,0.0,0.0,0.0,0.0,0.0,0.0,-4.3757,-4.3757,-4.3757,-4.3757,-4.3757,-4.3757,-4.3757,-4.3757,-4.3757,-4.3757,-4.3865,-4.4082,-4.4082,-4.4223,-4.4411,0.0,0.0,0.0,-4.4411,-4.4411,-4.4411,-4.4411,-4.4031,-4.3413,-4.2885,-4.2251,-4.1618,-4.1041,-4.083,-4.0873,-4.1015,-4.052,-3.9745,-3.9208,-3.8573,-3.7938,-3.7317,-3.7148,-3.7109,-3.707,-3.707,-3.6901,-3.6244,-3.5236,-3.4267,-3.3613,-3.3375,-3.329,-3.329,-3.329,-3.329,-3.329,-3.3157,-3.3072,-3.3023,-3.2739,-3.236,-3.185,-3.1545,-3.099,-3.0004,-2.9333,-2.8926,-2.879,-2.8777,-2.8736,-2.86,-2.8519,-2.8638,-2.8892,-2.9014,-2.9386,-3.0087,-3.0218,-3.0542,-3.0986,-3.0811,-3.0609,-3.0406,-3.019,-2.9972,-3.2459,-3.2969,-3.3381,-3.3381,-3.257,-3.1681,-3.1522,0.0,0.0,-2.8283,-2.7404,-2.6674,-2.6776,-2.6844,-2.7308,0.0,0.0,-3.0569,0.0,0.0,0.0,0.0,0.0,0.0,0.0,0.0,0.0,0.0,0.0,0.0,0.0,-4.4162,-4.4317,-4.4317,-4.4317,-4.4317,-4.4317,-4.4317,-4.4317,-4.4317,-4.4317,-4.4364,-4.4364,-4.4364,-4.4364,-4.4411,0.0,0.0,0.0,-4.4411,-4.4411,-4.4411,-4.4411,-4.4031,-4.3473,-4.305,-4.2502,-4.1879,-4.1483,-4.1354,-4.1354,-4.1354,-4.08,-3.9995,-3.956,-3.9013,-3.8385,-3.7719,-3.7534,-3.7495,-3.7303,-3.7264,-3.707,-3.6296,-3.5597,-3.4936,-3.4245,-3.3683,-3.329,-3.329,-3.329,-3.329,-3.329,-3.3276,-3.3206,-3.3023,-3.2988,-3.2797,-3.2384,-3.1897,-3.1457,-3.1173,-3.0595,-3.0011,-2.9475,-2.9434,-2.919,-2.8627,-2.8938,-2.9047,-2.8911,-2.9773,-3.0201,-3.0087,-3.0647,-3.0934,-3.0986,-3.0811,-3.0609,-3.0406,-3.019,-2.9972,-3.1613,-3.1913,-3.2102,-3.2102,-3.1738,-3.1092,-3.0015,0.0,-2.8069,-2.7066,-2.6175,-2.5623,-2.5695,-2.5782,-2.6235,-2.7479,-2.8634,0.0,0.0,0.0,0.0,0.0,0.0,0.0,0.0,0.0,0.0,0.0,0.0,0.0,0.0,0.0,-4.4411,-4.4411,-4.4411,-4.4411,-4.4411,-4.4411,-4.4411,-4.4411,-4.4411,-4.4411,-4.4411,-4.4411,-4.4504,-4.4644,0.0,0.0,0.0,-4.4815,-4.4815,-4.4815,-4.4815,-4.4432,-4.3854,-4.3304,-4.2722,-4.2109,-4.1568,-4.1396,-4.1438,-4.1549,-4.1336,-4.0852,-3.9836,-3.935,-3.895,-3.7896,-3.7625,-3.7586,-3.7495,-3.738,-3.7147,-3.6448,-3.5996,-3.547,-3.4413,-3.4006,-3.3726,-3.3361,-3.329,-3.329,-3.329,-3.329,-3.3276,-3.3192,-3.3072,-3.2917,-3.2632,-3.2297,-3.2017,-3.1865,-3.0975,-3.031,-3.0052,-3.0038,-2.9944,-2.9699,-2.9835,-2.9996,-3.0151,-3.0414,-3.0646,-3.0819,-3.0944,-3.0986,-3.0986,-3.0911,-3.0761,-3.0571,-3.0368,-3.019,-3.0595,-3.0893,-3.1029,-3.1029,-3.0758,-3.0161,0.0,0.0,-2.7379,-2.5928,-2.5154,-2.4693,-2.4544,-2.4736,-2.5312,-2.6411,-2.7925,-2.9499,0.0,0.0,0.0,0.0,0.0,0.0,0.0,0.0,0.0,0.0,0.0,0.0,0.0,0.0,-4.4597,-4.4504,-4.4597,-4.4583,-4.4583,-4.4583,-4.4583,-4.4583,-4.4583,-4.4583,-4.4583,-4.4583,-4.4723,0.0,0.0,0.0,0.0,-4.5124,-4.5124,-4.5124,-4.5124,-4.4738,-4.411,-4.3584,-4.2954,-4.231,-4.1779,-4.162,-4.1606,-4.1758,-4.1841,-4.1555,-4.0095,-3.9682,-3.9409,-3.816,-3.7725,-3.7701,-3.7701,-3.7534,-3.7266,-3.6878,-3.6472,-3.5897,-3.4804,-3.4365,-3.402,-3.3403,-3.329,-3.329,-3.329,-3.329,-3.329,-3.329,-3.3192,-3.3037,-3.281,-3.2596,-3.2431,-3.2264,-3.1458,-3.0866,-3.069,-3.0676,-3.0595,-3.0418,-3.0581,-3.0761,-3.1003,-3.0985,-3.1083,-3.131,-3.1099,-3.0986,-3.0986,-3.0986,-3.0911,-3.0698,-3.0482,-3.0254,-2.9333,-2.9944,-3.0418,-3.0418,-2.9509,-2.8614,0.0,-2.7203,-2.5738,-2.5141,-2.4516,-2.3987,-2.3495,-2.3917,-2.4545,-2.5287,-2.7161,0.0,0.0,0.0,0.0,0.0,0.0,0.0,0.0,0.0,0.0,0.0,0.0,0.0,0.0,0.0,-4.5,-4.4797,-4.5,-4.5078,-4.5078,-4.5078,-4.5078,-4.5078,-4.5078,-4.5078,-4.5078,-4.5078,0.0,0.0,0.0,0.0,0.0,-4.5124,-4.5124,-4.5124,-4.5124,-4.4738,-4.4155,-4.376,-4.3157,-4.2552,-4.2212,-4.2092,-4.2092,-4.2092,-4.2092,-4.1845,-4.0495,-4.0089,-3.9828,-3.8565,-3.8066,-3.7891,-3.7891,-3.7739,-3.7625,-3.7572,-3.6988,-3.6249,-3.5625,-3.482,-3.402,-3.3403,-3.329,-3.329,-3.329,-3.329,-3.329,-3.329,-3.329,-3.3241,-3.3023,-3.281,-3.2632,-3.2417,-3.225,-3.1924,-3.1327,-3.1287,-3.1042,-3.0446,-3.0961,-3.1216,-3.1016,-3.1362,-3.1522,-3.131,-3.1099,-3.0986,-3.0986,-3.0986,-3.0911,-3.0698,-3.0482,-3.019,-2.761,-2.7768,-2.7931,-2.7931,-2.7633,-2.7271,-2.6837,-2.5982,-2.5142,-2.4627,-2.3713,-2.3111,-2.3473,-2.381,-2.4371,-2.5425,-2.6972,0.0,0.0,0.0,0.0,0.0,0.0,0.0,0.0,0.0,0.0,0.0,0.0,0.0,0.0,0.0,0.0,-4.5,-4.5078,-4.5124,-4.5124,-4.5124,-4.5124,-4.5124,-4.5124,-4.5124,-4.5124,-4.5124,0.0,0.0,0.0,0.0,0.0,-4.564,-4.564,-4.564,-4.564,-4.5004,-4.4037,-4.3922,-4.3169,-4.2256,-4.2123,-4.2092,-4.2092,-4.2092,-4.2092,-4.1845,-4.051,-4.0104,-3.9828,-3.8565,-3.8165,-3.8104,-3.8104,-3.7967,-3.7815,-3.7815,-3.7391,-3.6835,-3.6264,-3.5455,-3.4674,-3.4034,-3.3571,-3.329,-3.329,-3.329,-3.329,-3.329,-3.329,-3.3241,-3.3023,-3.2952,-3.2775,-3.2453,-3.2359,-3.2218,-3.1947,-3.1897,-3.1816,-3.1626,-3.1789,-3.1897,-3.1825,-3.1796,-3.1706,-3.1522,-3.1323,-3.1123,-3.0986,-3.0986,-3.0911,-3.0698,-3.0482,-3.0254,0.0,-2.6307,-2.6524,-2.6816,-2.653,0.0,0.0,-2.5064,-2.4327,-2.3792,-2.3091,-2.2715,-2.3241,-2.3645,-2.4305,-2.5561,-2.6919,0.0,0.0,0.0,0.0,0.0,0.0,0.0,0.0,0.0,0.0,0.0,0.0,0.0,0.0,0.0,0.0,-4.5413,-4.5413,-4.5413,-4.5413,-4.5413,-4.5413,-4.5413,-4.5413,-4.5413,-4.5413,0.0,0.0,0.0,0.0,0.0,0.0,-4.588,-4.588,-4.5866,-4.5605,-4.4879,-4.3964,-4.3703,-4.2977,-4.2092,-4.2092,-4.2092,-4.2092,-4.2092,-4.1758,-4.1192,-4.035,-3.9755,-3.9218,-3.842,-3.8202,-3.8202,-3.8202,-3.8104,-3.7991,-3.7991,-3.7763,-3.7324,-3.666,-3.607,-3.5362,-3.4393,-3.3894,-3.3557,-3.3333,-3.329,-3.329,-3.329,-3.329,-3.3241,-3.3108,-3.3072,-3.2917,-3.2668,-3.2489,-3.2359,-3.2264,-3.2241,-3.2218,-3.2218,-3.2218,-3.2218,-3.2218,-3.2,-3.1853,-3.172,-3.1434,-3.1235,-3.1099,-3.1061,-3.0911,-3.0698,-3.0571,-3.0381,0.0,-2.5278,0.0,0.0,0.0,0.0,-2.5232,-2.4364,0.0,-2.2829,-2.2705,-2.2754,-2.2902,-2.3509,-2.4413,-2.5697,-2.6975,0.0,0.0,0.0,0.0,0.0,0.0,0.0,0.0,0.0,0.0,0.0,0.0,0.0,0.0,0.0,0.0,0.0,-4.588,-4.588,-4.588,-4.588,-4.588,-4.588,-4.588,-4.588,-4.588,0.0,0.0,0.0,0.0,0.0,0.0,-4.5837,-4.5822,-4.575,-4.5082,-4.4443,-4.3848,-4.3224,-4.2615,-4.2092,-4.2092,-4.2092,-4.2092,-4.2092,-4.1192,-4.0104,-4.0104,-3.9204,-3.8202,-3.8202,-3.8202,-3.8202,-3.8202,-3.8202,-3.8202,-3.8202,-3.8066,-3.7695,-3.6957,-3.6561,-3.599,-3.457,-3.4231,-3.4006,-3.3389,-3.329,-3.329,-3.329,-3.329,-3.329,-3.329,-3.3157,-3.3023,-3.2988,-3.2668,-3.2417,-3.2417,-3.2264,-3.2218,-3.2218,-3.2218,-3.2218,-3.2218,-3.2036,-3.189,-3.189,-3.1495,-3.1272,-3.1272,-3.1099,-3.0911,-3.0736,-3.0698,-3.0508,-2.2922,0.0,-2.4188,-2.4352,-2.4173,-2.3993,0.0,-2.3452,-2.2884,-2.2859,-2.2842,-2.2902,-2.3024,-2.3985,-2.5035,-2.5916,-2.7131,0.0,0.0,0.0,0.0,0.0,0.0,0.0,0.0,0.0,0.0,0.0,0.0,0.0,0.0,0.0,0.0,0.0,-4.588,-4.588,-4.588,-4.588,-4.588,-4.588,-4.588,-4.588,-4.588,0.0,0.0,0.0,0.0,0.0,0.0,-4.5329,-4.5126,-4.5053,-4.4443,-4.3805,-4.321,-4.305,-4.2615,-4.2092,-4.2092,-4.2092,-4.2092,-4.2092,-4.1192,-4.0104,-4.0104,-3.9204,-3.8202,-3.8202,-3.8202,-3.8202,-3.8202,-3.8202,-3.8202,-3.8202,-3.8066,-3.7848,-3.7667,-3.6987,-3.6155,-3.5339,-3.4671,-3.4006,-3.3389,-3.329,-3.329,-3.329,-3.329,-3.329,-3.329,-3.3241,-3.3157,-3.3023,-3.2917,-3.2739,-3.2417,-3.2264,-3.2218,-3.2218,-3.2218,-3.2218,-3.2218,-3.2146,-3.2073,-3.189,-3.1495,-3.1235,-3.1061,-3.1024,-3.0986,-3.0911,-3.0773,-3.066,-2.1885,-2.2599,-2.3259,-2.36,-2.3488,-2.328,-2.3367,-2.3128,-2.2902,-2.2979,-2.3252,-2.3543,-2.3912,-2.4807,-2.5832,0.0,0.0,0.0,0.0,0.0,0.0,0.0,0.0,0.0,0.0,0.0,0.0,0.0,0.0,0.0,0.0,0.0,0.0,0.0,0.0,-4.6105,-4.588,-4.588,-4.588,-4.588,-4.588,-4.588,-4.588,0.0,0.0,0.0,0.0,0.0,-4.5401,-4.5039,-4.4719,-4.4414,-4.3776,-4.3311,-4.2963,-4.2687,-4.2382,-4.2092,-4.2092,-4.2092,-4.2092,-4.2092,-4.1395,-4.0495,-4.0191,-3.9421,-3.8594,-3.8289,-3.8202,-3.8202,-3.8202,-3.8202,-3.8202,-3.8202,-3.8142,-3.7991,-3.7929,-3.7391,-3.6736,-3.6037,-3.5229,-3.4464,-3.381,-3.3473,-3.329,-3.329,-3.329,-3.329,-3.329,-3.329,-3.3241,-3.3157,-3.3072,-3.2917,-3.2704,-3.2431,-3.2277,-3.2205,-3.2218,-3.2218,-3.2218,-3.2218,-3.2109,-3.189,-3.1596,-3.1323,-3.1123,-3.1061,-3.0986,-3.0986,-3.0874,-3.0811,-2.126,-2.1876,-2.2654,-2.3392,-2.3156,-2.2843,-2.3059,-2.3097,-2.3126,-2.3224,0.0,0.0,0.0,-2.5761,0.0,0.0,0.0,0.0,0.0,0.0,0.0,0.0,0.0,0.0,0.0,0.0,0.0,0.0,0.0,0.0,0.0,0.0,0.0,0.0,0.0,-4.6329,-4.6015,-4.6015,-4.6015,-4.6015,-4.6015,-4.6015,-4.6015,-4.6015,0.0,0.0,0.0,0.0,-4.4865,-4.4763,-4.4443,-4.3905,-4.3235,-4.2973,-4.29,-4.2405,-4.2175,-4.2133,-4.2092,-4.2092,-4.2092,-4.2092,-4.1642,-4.0989,-4.0423,-3.9755,-3.9088,-3.8507,-3.8275,-3.8202,-3.8202,-3.8202,-3.8202,-3.8202,-3.8202,-3.8165,-3.7967,-3.7777,-3.7401,-3.6608,-3.5882,-3.5142,-3.4329,-3.3768,-3.3403,-3.329,-3.329,-3.329,-3.329,-3.329,-3.329,-3.329,-3.3157,-3.3023,-3.2988,-3.2704,-3.2431,-3.2241,-3.2205,-3.2218,-3.2218,-3.2218,-3.2109,-3.189,-3.172,-3.1522,-3.131,-3.1123,-3.1024,-3.0986,-3.0986,-3.0911,-2.1012,-2.1412,-2.167,-2.2287,-2.2371,-2.2442,-2.2985,-2.3097,-2.3252,-2.3825,0.0,0.0,0.0,-2.6479,0.0,0.0,0.0,0.0,0.0,0.0,0.0,0.0,0.0,0.0,0.0,0.0,0.0,0.0,0.0,0.0,0.0,0.0,0.0,0.0,0.0,-4.5991,-4.6506,-4.6506,-4.6506,-4.6506,-4.6506,-4.6506,-4.6506,-4.6506,-4.6168,0.0,0.0,0.0,-4.4595,-4.408,-4.3816,-4.3669,-4.3019,-4.2769,-4.274,-4.2651,-4.2514,-4.231,-4.2175,-4.2092,-4.2092,-4.2092,-4.1642,-4.1076,-4.0974,-4.0133,-3.9175,-3.9088,-3.8638,-3.8202,-3.8202,-3.8202,-3.8202,-3.8202,-3.8202,-3.8202,-3.8165,-3.7991,-3.7629,-3.681,-3.6424,-3.5798,-3.4436,-3.4119,-3.388,-3.3361,-3.329,-3.329,-3.329,-3.329,-3.329,-3.329,-3.3276,-3.3192,-3.3023,-3.2952,-3.2739,-3.2381,-3.2277,-3.2218,-3.2218,-3.2218,-3.2109,-3.189,-3.1853,-3.1669,-3.131,-3.1272,-3.1161,-3.0986,-3.0986,-3.0986,-2.0555,-2.1054,-2.1434,-2.2053,-2.2461,-2.2746,-2.3041,-2.3617,-2.4219,-2.4631,0.0,0.0,0.0,0.0,0.0,0.0,0.0,0.0,0.0,0.0,0.0,0.0,0.0,0.0,0.0,0.0,0.0,0.0,0.0,0.0,0.0,0.0,0.0,0.0,0.0,0.0,-4.5905,-4.5919,-4.6147,-4.6594,-4.6594,-4.6417,-4.6078,-4.6078,-4.571,0.0,0.0,-4.4722,-4.4103,-4.3823,-4.3499,-4.313,-4.2821,-4.2688,-4.2688,-4.2688,-4.2662,-4.2541,-4.2474,-4.2433,-4.2392,-4.2284,-4.2038,-4.1718,-4.1233,-4.0684,-4.0075,-3.9392,-3.8725,-3.8202,-3.8202,-3.8202,-3.8202,-3.8202,-3.8202,-3.8202,-3.8202,-3.8028,-3.7782,-3.7404,-3.6835,-3.6198,-3.552,-3.4711,-3.4104,-3.3824,-3.3501,-3.329,-3.329,-3.329,-3.329,-3.329,-3.329,-3.3276,-3.3157,-3.3072,-3.2846,-3.2417,-3.2264,-3.2218,-3.2218,-3.2218,-3.2146,-3.2073,-3.1963,-3.1817,-3.1619,-3.1421,-3.1235,-3.1161,-3.1061,-3.0986,-2.0189,-2.0745,-2.1316,-2.224,-2.277,-2.3164,-2.3343,-2.4343,-2.5339,-2.5627,0.0,0.0,0.0,0.0,0.0,0.0,0.0,0.0,0.0,0.0,0.0,0.0,0.0,0.0,0.0,0.0,0.0,0.0,0.0,0.0,0.0,0.0,0.0,0.0,0.0,0.0,-4.5289,-4.5289,-4.5645,-4.6312,-4.6312,-4.6046,-4.5515,-4.5515,-4.5145,-4.4524,-4.4524,-4.4169,-4.3593,-4.3593,-4.3323,-4.285,-4.285,-4.285,-4.285,-4.2809,-4.2769,-4.2769,-4.2729,-4.2688,-4.2688,-4.25,-4.2474,-4.233,-4.1671,-4.1383,-4.0979,-3.9819,-3.9019,-3.8466,-3.8246,-3.8202,-3.8202,-3.8202,-3.8202,-3.8202,-3.8202,-3.8066,-3.7967,-3.7891,-3.7277,-3.6665,-3.6448,-3.5478,-3.4598,-3.4245,-3.381,-3.3445,-3.3304,-3.329,-3.329,-3.329,-3.329,-3.329,-3.329,-3.3108,-3.2846,-3.2489,-3.23,-3.2218,-3.2218,-3.2218,-3.2218,-3.2218,-3.2036,-3.1963,-3.189,-3.1582,-3.1384,-3.131,-3.1123,-3.1061,-2.0063,-2.0428,-2.09,-2.2748,-2.3166,-2.3301,-2.4031,-2.5161,-2.6237,-2.6984,-2.7669,0.0,0.0,0.0,0.0,0.0,0.0,0.0,0.0,0.0,0.0,0.0,0.0,0.0,0.0,0.0,0.0,0.0,0.0,0.0,0.0,0.0,0.0,0.0,0.0,0.0,-4.5289,-4.5289,-4.5334,-4.5397,-4.5397,-4.5367,-4.5323,-4.5323,-4.4964,-4.431,-4.431,-4.3922,-4.3325,-4.3325,-4.3295,-4.325,-4.325,-4.325,-4.325,-4.3036,-4.2996,-4.2941,-4.2754,-4.2688,-4.2688,-4.2688,-4.2688,-4.2688,-4.2589,-4.2162,-4.1464,-4.0632,-3.992,-3.9224,-3.84,-3.8202,-3.8202,-3.8202,-3.8202,-3.8202,-3.8202,-3.8202,-3.8127,-3.7929,-3.7825,-3.7496,-3.6557,-3.6297,-3.5783,-3.4407,-3.4161,-3.3922,-3.3361,-3.329,-3.329,-3.329,-3.329,-3.329,-3.329,-3.3108,-3.2917,-3.2704,-3.2372,-3.2218,-3.2218,-3.2218,-3.2218,-3.2218,-3.2182,-3.2109,-3.189,-3.189,-3.1656,-3.131,-3.1272,-3.1161,-2.0098,-2.0458,-2.0938,-2.2932,-2.37,-2.4269,-2.5346,-2.6244,-2.707,-2.7866,-2.8527,0.0,0.0,0.0,0.0,0.0,0.0,0.0,0.0,0.0,0.0,0.0,0.0,0.0,0.0,0.0,0.0,0.0,0.0,0.0,0.0,0.0,0.0,0.0,0.0,0.0,0.0,-4.4118,-4.4077,-4.4092,-4.49,-4.508,-4.4691,-4.4691,-4.4332,-4.3663,-4.3663,-4.3529,-4.329,-4.329,-4.329,-4.329,-4.329,-4.329,-4.329,-4.321,-4.321,-4.317,-4.309,-4.309,-4.305,-4.2915,-4.2875,-4.2875,-4.2729,-4.2526,-4.2099,-4.0989,-4.0402,-3.9823,-3.8516,-3.8202,-3.8202,-3.8202,-3.8202,-3.8202,-3.8202,-3.8202,-3.8165,-3.8104,-3.8005,-3.7782,-3.7386,-3.6826,-3.6084,-3.5161,-3.455,-3.3978,-3.3361,-3.329,-3.329,-3.329,-3.329,-3.329,-3.329,-3.3108,-3.2988,-3.2881,-3.2525,-3.23,-3.2205,-3.2218,-3.2218,-3.2218,-3.2218,-3.2146,-3.2109,-3.1963,-3.1817,-3.1656,-3.1421,-3.1272,-2.0195,-2.0571,-2.1111,-2.3331,-2.4214,-2.5013,-2.6716,-2.7393,-2.7895,-2.8698,-2.9551,-3.0611,-3.2121,0.0,0.0,0.0,0.0,0.0,0.0,0.0,0.0,0.0,0.0,0.0,0.0,0.0,0.0,0.0,0.0,0.0,0.0,0.0,0.0,0.0,0.0,0.0,0.0,-4.3621,-4.3542,-4.3542,-4.4459,-4.4558,-4.3962,-4.3962,-4.3723,-4.329,-4.329,-4.329,-4.329,-4.329,-4.329,-4.329,-4.329,-4.329,-4.329,-4.329,-4.329,-4.329,-4.329,-4.329,-4.329,-4.3155,-4.3076,-4.3076,-4.293,-4.289,-4.2623,-4.1257,-4.0787,-4.0323,-3.8702,-3.824,-3.8202,-3.8202,-3.8202,-3.8202,-3.8202,-3.8202,-3.8202,-3.8202,-3.8104,-3.7967,-3.7891,-3.7343,-3.6655,-3.5992,-3.5147,-3.4367,-3.3748,-3.3473,-3.329,-3.329,-3.329,-3.329,-3.329,-3.3157,-3.3072,-3.2988,-3.2739,-3.2503,-3.2264,-3.2205,-3.2218,-3.2218,-3.2218,-3.2218,-3.2218,-3.2073,-3.1963,-3.189,-3.1619,-3.1421,-2.0341,-2.0698,-2.1355,-2.4024,-2.4721,-2.5409,-2.81,-2.8596,-2.8713,-2.9479,-3.0775,-3.2182,-3.3454,0.0,0.0,0.0,0.0,0.0,0.0,0.0,0.0,0.0,0.0,0.0,0.0,0.0,0.0,0.0,0.0,0.0,0.0,0.0,0.0,0.0,0.0,0.0,0.0,-4.3988,-4.3988,-4.3988,-4.3988,-4.3738,-4.329,-4.329,-4.329,-4.329,-4.329,-4.329,-4.329,-4.329,-4.329,-4.329,-4.329,-4.329,-4.329,-4.329,-4.329,-4.329,-4.3275,-4.3275,-4.3275,-4.3275,-4.3275,-4.3275,-4.3275,-4.3275,-4.2966,-4.1528,-4.1095,-4.0707,-3.8979,-3.8366,-3.8202,-3.8202,-3.8202,-3.8202,-3.8202,-3.8202,-3.8202,-3.8202,-3.8202,-3.8127,-3.7929,-3.7891,-3.7638,-3.6819,-3.6006,-3.5257,-3.459,-3.3783,-3.329,-3.329,-3.329,-3.329,-3.329,-3.329,-3.3206,-3.3023,-3.2988,-3.281,-3.2417,-3.2264,-3.2218,-3.2218,-3.2218,-3.2218,-3.2218,-3.2218,-3.2109,-3.189,-3.189,-3.1693,-2.0343,-2.0824,0.0,-2.4115,0.0,0.0,0.0,-2.8681,-2.9116,0.0,-3.2194,-3.3331,-3.3938,0.0,0.0,0.0,0.0,0.0,0.0,0.0,0.0,0.0,0.0,0.0,0.0,0.0,0.0,0.0,0.0,0.0,0.0,0.0,0.0,0.0,0.0,0.0,0.0,0.0,-4.3988,-4.3988,-4.3988,-4.3949,-4.3778,-4.3636,-4.3596,-4.3557,-4.3384,-4.329,-4.329,-4.329,-4.329,-4.329,-4.329,-4.329,-4.3245,-4.2821,-4.2656,-4.2581,-4.2117,-4.1953,-4.1953,-4.1953,-4.1953,-4.1953,-4.1953,-4.1953,-4.1773,-4.086,-4.0509,-4.0174,-3.918,-3.8664,-3.8366,-3.824,-3.8202,-3.8202,-3.8202,-3.8202,-3.8202,-3.8202,-3.8202,-3.8165,-3.8127,-3.8005,-3.769,-3.702,-3.6176,-3.5195,-3.4002,-3.3529,-3.329,-3.329,-3.329,-3.329,-3.329,-3.329,-3.3276,-3.3206,-3.3072,-3.281,-3.2417,-3.2359,-3.23,-3.2218,-3.2218,-3.2218,-3.2218,-3.2218,-3.2182,-3.2109,-3.1963,-3.1853,-2.0408,-2.0934,0.0,-2.4148,-2.51,-2.6006,-2.8269,0.0,0.0,0.0,0.0,0.0,0.0,0.0,0.0,0.0,0.0,0.0,0.0,0.0,0.0,0.0,0.0,0.0,0.0,0.0,0.0,0.0,0.0,0.0,0.0,0.0,0.0,0.0,0.0,0.0,0.0,0.0,0.0,-4.3846,-4.4121,-4.4243,-4.4243,-4.3949,-4.3832,-4.3808,-4.3542,-4.3463,-4.3463,-4.3329,-4.329,-4.3275,-4.3045,-4.294,-4.2865,-4.2246,-4.2006,-4.1946,-4.1557,-4.1422,-4.1422,-4.1422,-4.1422,-4.1422,-4.1422,-4.1422,-4.125,-4.0591,-4.0323,-4.0047,-3.9268,-3.8922,-3.8664,-3.8404,-3.824,-3.8202,-3.8202,-3.8202,-3.8202,-3.8202,-3.8202,-3.8202,-3.8202,-3.8104,-3.7913,-3.7523,-3.648,-3.521,-3.3796,-3.3431,-3.329,-3.329,-3.329,-3.329,-3.329,-3.329,-3.329,-3.329,-3.3192,-3.2966,-3.2668,-3.2489,-3.2359,-3.2264,-3.2241,-3.2218,-3.2218,-3.2218,-3.2218,-3.2218,-3.2073,-3.1963,-2.0465,-2.1003,0.0,-2.4196,-2.5009,0.0,-2.8435,-3.0485,-3.2055,0.0,0.0,0.0,0.0,0.0,0.0,0.0,0.0,0.0,0.0,0.0,0.0,0.0,0.0,0.0,0.0,0.0,0.0,0.0,0.0,0.0,0.0,0.0,0.0,0.0,0.0,0.0,0.0,0.0,0.0,0.0,-4.4148,-4.444,-4.4402,-4.4159,-4.4026,-4.3988,-4.3808,-4.3729,-4.3729,-4.3423,-4.3299,-4.3195,-4.2635,-4.2366,-4.2231,-4.1572,-4.1294,-4.128,-4.122,-4.1205,-4.1205,-4.1205,-4.1205,-4.1205,-4.1205,-4.1205,-4.107,-4.0472,-4.0307,-4.0136,-3.9341,-3.9104,-3.8995,-3.8627,-3.8404,-3.8202,-3.8202,-3.8202,-3.8202,-3.8202,-3.8202,-3.8202,-3.8202,-3.8202,-3.8188,-3.813,-3.6806,-3.5325,-3.3881,-3.3494,-3.3326,-3.329,-3.329,-3.329,-3.329,-3.329,-3.329,-3.329,-3.329,-3.3241,-3.3023,-3.2668,-3.2453,-3.2417,-3.23,-3.2205,-3.2205,-3.2218,-3.2218,-3.2218,-3.2218,-3.2109,-2.0349,-2.1003,0.0,0.0,-2.6616,-2.8498,-2.9712,-3.116,0.0,0.0,0.0,0.0,0.0,0.0,0.0,0.0,0.0,0.0,0.0,0.0,0.0,0.0,0.0,0.0,0.0,0.0,0.0,0.0,0.0,0.0,0.0,0.0,0.0,0.0,0.0,0.0,-4.2602,-4.274,-4.2817,0.0,-4.2956,-4.3033,-4.3063,-4.3846,-4.4127,-4.3988,-4.3949,-4.3949,-4.391,-4.3714,-4.3296,-4.2814,-4.2494,-4.2081,-4.1504,-4.0846,-4.0606,-4.0531,-4.0023,-3.9843,-3.9843,-3.9843,-3.9843,-3.9843,-3.9843,-3.9843,-3.9813,-3.9664,-3.9634,-3.9568,-3.9382,-3.9228,-3.9068,-3.8995,-3.8701,-3.8404,-3.824,-3.8202,-3.8202,-3.8202,-3.8202,-3.8202,-3.8202,-3.8202,-3.8043,-3.7564,-3.6642,-3.5633,-3.4647,-3.3959,-3.3466,-3.3326,-3.329,-3.329,-3.329,-3.329,-3.329,-3.329,-3.329,-3.3276,-3.3241,-3.3002,-3.281,-3.2632,-3.2453,-3.2359,-3.2359,-3.2241,-3.2218,-3.2218,-3.2218,-3.2182,-1.9714,0.0,0.0,-2.4479,0.0,-2.8569,-2.9629,-3.0934,0.0,0.0,0.0,0.0,0.0,0.0,0.0,0.0,0.0,0.0,0.0,0.0,0.0,0.0,0.0,0.0,0.0,0.0,0.0,0.0,0.0,0.0,0.0,0.0,0.0,0.0,0.0,0.0,-4.1601,-4.1955,-4.2125,-4.2125,-4.2463,-4.2602,-4.2633,-4.3214,-4.3424,-4.3296,-4.3221,-4.3183,-4.3183,-4.294,-4.2591,-4.2198,-4.1738,-4.1318,-4.0831,-4.0172,-3.9933,-3.9888,-3.9508,-3.9388,-3.9388,-3.9388,-3.9388,-3.9388,-3.9388,-3.9388,-3.9388,-3.9388,-3.9388,-3.9388,-3.9388,-3.9301,-3.9228,-3.9104,-3.8775,-3.8478,-3.8366,-3.8277,-3.8202,-3.8202,-3.8202,-3.8202,-3.8202,-3.8202,-3.7999,-3.7404,-3.6555,-3.5734,-3.503,-3.4149,-3.357,-3.3466,-3.3361,-3.329,-3.329,-3.329,-3.329,-3.329,-3.329,-3.329,-3.329,-3.3206,-3.3037,-3.2846,-3.2668,-3.2489,-3.2417,-3.2322,-3.2277,-3.2218,-3.2218,-3.2218,-1.9027,0.0,-2.2271,-2.4382,-2.6179,0.0,-2.8875,0.0,0.0,0.0,0.0,0.0,0.0,0.0,0.0,0.0,0.0,0.0,0.0,0.0,0.0,0.0,0.0,0.0,0.0,0.0,0.0,0.0,0.0,0.0,0.0,0.0,0.0,0.0,0.0,-4.0608,-4.0558,-4.1159,-4.1452,-4.1432,-4.1986,-4.2248,-4.2248,-4.2248,-4.2371,-4.2602,-4.2404,-4.2352,-4.2316,-4.2065,-4.1834,-4.1549,-4.0975,-4.0543,-4.0194,-3.9655,-3.9424,-3.9388,-3.9388,-3.9388,-3.9388,-3.9388,-3.9388,-3.9388,-3.9388,-3.9388,-3.9388,-3.9388,-3.9388,-3.9388,-3.9388,-3.9388,-3.9337,-3.9177,-3.8885,-3.859,-3.8516,-3.8329,-3.8202,-3.8202,-3.8202,-3.8202,-3.8202,-3.8202,-3.8028,-3.7535,-3.6649,-3.5863,-3.5329,-3.4325,-3.3675,-3.3605,-3.3466,-3.3361,-3.329,-3.329,-3.329,-3.329,-3.329,-3.329,-3.329,-3.329,-3.3241,-3.3072,-3.2846,-3.2668,-3.2489,-3.2417,-3.2322,-3.2241,-3.2205,-3.2218,0.0,0.0,-2.3287,0.0,-2.5655,-2.7645,0.0,0.0,0.0,0.0,0.0,0.0,0.0,0.0,0.0,0.0,0.0,0.0,0.0,0.0,0.0,0.0,0.0,0.0,0.0,0.0,0.0,0.0,0.0,0.0,0.0,0.0,-4.1,-4.1,-4.1,0.0,-4.0765,-4.0857,-4.0801,-4.0643,-4.0735,-4.0766,-4.0766,-4.0766,-4.1463,-4.2602,-4.2565,-4.2565,-4.2529,-4.2316,-4.1891,-4.1336,-4.1064,-4.0489,-3.9766,-3.9691,-3.9553,-3.9388,-3.9388,-3.9388,-3.9388,-3.9388,-3.9388,-3.9388,-3.9388,-3.9388,-3.9388,-3.9388,-3.9388,-3.9388,-3.9388,-3.9388,-3.9388,-3.9373,-3.9192,-3.8922,-3.859,-3.8329,-3.8202,-3.8202,-3.8202,-3.8202,-3.8202,-3.8202,-3.8173,-3.8086,-3.7034,-3.6165,-3.5899,-3.4792,-3.3922,-3.364,-3.357,-3.3501,-3.3326,-3.329,-3.329,-3.329,-3.329,-3.329,-3.329,-3.329,-3.329,-3.3241,-3.3072,-3.2952,-3.2917,-3.2561,-3.2381,-3.2381,-3.2241,-3.2218,-1.9043,-2.0999,-2.2685,0.0,-2.486,-2.6371,0.0,0.0,0.0,0.0,0.0,0.0,0.0,0.0,0.0,0.0,0.0,0.0,0.0,0.0,0.0,0.0,0.0,0.0,0.0,0.0,0.0,0.0,0.0,0.0,0.0,-4.1117,-4.1117,-4.1117,-4.1117,0.0,-4.095,-4.095,-4.0882,-4.0662,-4.0558,-4.0489,-4.0489,-4.0489,-4.0828,-4.1397,-4.1397,-4.1397,-4.1412,-4.1326,-4.1071,-4.074,-4.0649,-4.0289,-3.9839,-3.9732,-3.9646,-3.9553,-3.946,-3.9388,-3.9388,-3.9388,-3.9388,-3.9388,-3.9388,-3.9388,-3.9388,-3.9388,-3.9388,-3.9388,-3.9388,-3.9388,-3.9388,-3.9388,-3.9265,-3.9068,-3.8885,-3.859,-3.8329,-3.8202,-3.8202,-3.8202,-3.8202,-3.8202,-3.8202,-3.8202,-3.7128,-3.6265,-3.6194,-3.4955,-3.4025,-3.3902,-3.3813,-3.3709,-3.364,-3.3536,-3.3466,-3.3466,-3.3361,-3.329,-3.329,-3.329,-3.329,-3.329,-3.3206,-3.3108,-3.2988,-3.281,-3.2668,-3.2561,-3.2395,-3.2322,0.0,0.0,-2.1598,-2.2988,-2.3969,-2.5062,0.0,0.0,0.0,0.0,0.0,0.0,0.0,0.0,0.0,0.0,0.0,0.0,0.0,0.0,0.0,0.0,0.0,0.0,0.0,0.0,0.0,0.0,0.0,0.0,-4.1221,-4.1236,-4.1236,-4.1236,-4.1236,-4.1203,-4.1169,-4.1117,-4.1034,-4.0882,-4.0662,-4.0558,-4.0558,-4.0524,-4.0489,-4.0489,-4.0489,-4.0489,-4.0489,-4.0489,-4.0436,-4.0331,-4.0331,-4.0242,-4.0066,-3.991,-3.9839,-3.9732,-3.9553,-3.9496,-3.9445,-3.9424,-3.9388,-3.9388,-3.9388,-3.9388,-3.9388,-3.9388,-3.9388,-3.9388,-3.9388,-3.9388,-3.9388,-3.9388,-3.9301,-3.9141,-3.8995,-3.8701,-3.8441,-3.824,-3.8202,-3.8202,-3.8202,-3.8202,-3.8202,-3.8202,-3.7128,-3.6301,-3.6301,-3.5059,-3.4162,-3.4128,-3.4005,-3.3951,-3.3896,-3.3744,-3.3675,-3.3675,-3.3501,-3.3396,-3.3396,-3.3326,-3.329,-3.329,-3.329,-3.3241,-3.3072,-3.3023,-3.2917,-3.2775,-3.2561,-3.2453,0.0,-1.9012,0.0,-2.1766,0.0,0.0,0.0,0.0,0.0,0.0,0.0,0.0,0.0,0.0,0.0,0.0,0.0,0.0,0.0,0.0,0.0,0.0,0.0,0.0,0.0,0.0,0.0,0.0,0.0,0.0,-4.1524,-4.1555,-4.1555,-4.1555,-4.1555,-4.1489,-4.129,-4.1153,-4.1083,-4.1083,-4.0882,-4.0799,-4.0765,-4.0593,-4.0489,-4.0489,-4.0489,-4.0489,-4.0489,-4.0489,-4.0505,-4.0489,-4.0489,-4.0401,-4.0277,-4.0261,-4.0137,-3.996,-3.9768,-3.9681,-3.9646,-3.9445,-3.9388,-3.9388,-3.9388,-3.9388,-3.9388,-3.9388,-3.9388,-3.9388,-3.9388,-3.9388,-3.9388,-3.9388,-3.9388,-3.9228,-3.8664,-3.8516,-3.8441,-3.824,-3.8202,-3.8202,-3.8202,-3.8202,-3.8202,-3.8202,-3.7128,-3.6301,-3.6301,-3.5198,-3.4312,-3.4128,-3.4094,-3.404,-3.3917,-3.3896,-3.3896,-3.3896,-3.3709,-3.357,-3.357,-3.3396,-3.329,-3.329,-3.329,-3.3276,-3.3276,-3.3108,-3.2988,-3.2988,-3.2775,-3.2596,0.0,0.0,0.0,-2.1188,0.0,0.0,0.0,0.0,0.0,0.0,0.0,0.0,0.0,0.0,0.0,0.0,0.0,0.0,0.0,0.0,0.0,0.0,0.0,0.0,0.0,0.0,0.0,0.0,0.0,0.0,-4.023,-4.0688,-4.0956,-4.0956,-4.1367,-4.1555,-4.1489,-4.1339,-4.1239,-4.1239,-4.1052,-4.1,-4.1,-4.0765,-4.0696,-4.0696,-4.0558,-4.0489,-4.0489,-4.0489,-4.0489,-4.0489,-4.0489,-4.0455,-4.0436,-4.0331,-4.0242,-4.0172,-3.996,-3.9803,-3.9696,-3.9625,-3.9517,-3.9388,-3.9388,-3.9388,-3.9388,-3.9388,-3.9388,-3.9388,-3.9388,-3.9388,-3.9388,-3.9388,-3.9388,-3.9301,-3.8958,-3.8664,-3.8441,-3.824,-3.8202,-3.8202,-3.8202,-3.8202,-3.8202,-3.8202,-3.7128,-3.6301,-3.6301,-3.5198,-3.438,-3.4312,-3.4312,-3.4278,-3.421,-3.4108,-3.404,-3.404,-3.3882,-3.3793,-3.3793,-3.3709,-3.3605,-3.3501,-3.3501,-3.3431,-3.329,-3.3241,-3.3192,-3.3192,-3.3002,-3.2846,-1.7517,0.0,0.0,0.0,0.0,0.0,0.0,0.0,0.0,0.0,0.0,0.0,0.0,0.0,0.0,0.0,0.0,0.0,0.0,0.0,0.0,0.0,0.0,0.0,0.0,0.0,0.0,0.0,0.0,0.0,-3.9487,-3.9961,-4.034,-4.0593,-4.102,-4.1367,-4.1588,-4.1456,-4.139,-4.139,-4.1254,-4.1169,-4.1153,-4.0984,-4.0867,-4.0799,-4.0662,-4.0558,-4.0489,-4.0489,-4.0489,-4.0489,-4.0489,-4.0489,-4.0489,-4.0401,-4.0366,-4.0331,-4.0172,-4.0016,-3.991,-3.9839,-3.9661,-3.9481,-3.9481,-3.9445,-3.9388,-3.9388,-3.9388,-3.9388,-3.9388,-3.9388,-3.9388,-3.9388,-3.9388,-3.9337,-3.9141,-3.8848,-3.8538,-3.8329,-3.824,-3.8202,-3.8202,-3.8202,-3.813,-3.7941,-3.6997,-3.6228,-3.6011,-3.5067,-3.4414,-3.4414,-3.4414,-3.4414,-3.4414,-3.4264,-3.4196,-3.4196,-3.404,-3.3985,-3.3985,-3.3917,-3.3827,-3.3709,-3.3709,-3.3605,-3.3396,-3.3326,-3.329,-3.329,-3.3157,-3.3072,0.0,0.0,0.0,0.0,0.0,0.0,0.0,0.0,0.0,0.0,0.0,0.0,0.0,0.0,0.0,0.0,0.0,0.0,0.0,0.0,0.0,0.0,0.0,0.0,0.0,0.0,0.0,0.0,0.0,-3.876,-3.9408,-3.9455,-3.9803,-4.0546,-4.0577,-4.0893,-4.1541,-4.1557,-4.1573,-4.1588,-4.1423,-4.1323,-4.129,-4.1169,-4.0984,-4.0799,-4.0799,-4.0696,-4.0489,-4.0489,-4.0489,-4.0489,-4.0489,-4.0489,-4.0489,-4.0489,-4.0489,-4.0489,-4.0331,-4.0312,-4.0277,-4.0066,-3.9889,-3.9681,-3.9681,-3.9553,-3.9388,-3.9388,-3.9388,-3.9388,-3.9388,-3.9388,-3.9388,-3.9388,-3.9388,-3.9337,-3.9141,-3.8943,-3.876,-3.8553,-3.8329,-3.8202,-3.8202,-3.8202,-3.7999,-3.7404,-3.6736,-3.6083,-3.5479,-3.4806,-3.4414,-3.4414,-3.4414,-3.4414,-3.4414,-3.4414,-3.4414,-3.4414,-3.423,-3.4128,-3.4128,-3.3985,-3.3896,-3.3896,-3.3896,-3.3827,-3.3605,-3.3396,-3.3326,-3.329,-3.329,-3.3206,-1.8499,0.0,0.0,0.0,0.0,0.0,0.0,0.0,0.0,0.0,0.0,0.0,0.0,0.0,0.0,0.0,0.0,0.0,0.0,0.0,0.0,0.0,0.0,0.0,0.0,0.0,0.0,0.0,0.0,-3.7963,-3.8063,-3.8507,-3.9092,-3.9787,-3.9803,-4.0151,-4.0862,-4.0877,-4.1114,-4.1588,-4.1555,-4.1522,-4.1522,-4.1339,-4.1189,-4.1156,-4.0901,-4.0765,-4.0696,-4.0558,-4.0489,-4.0489,-4.0489,-4.0489,-4.0489,-4.0489,-4.0489,-4.0489,-4.047,-4.0366,-4.0312,-4.0242,-3.998,-3.9681,-3.9681,-3.9553,-3.9388,-3.9388,-3.9388,-3.9388,-3.9388,-3.9388,-3.9388,-3.9388,-3.9388,-3.9388,-3.9337,-3.9141,-3.8922,-3.8553,-3.8441,-3.8366,-3.824,-3.8202,-3.7999,-3.7404,-3.6736,-3.6083,-3.5479,-3.4806,-3.4414,-3.4414,-3.4414,-3.4414,-3.4414,-3.4414,-3.4414,-3.4414,-3.4346,-3.4312,-3.4312,-3.4278,-3.4176,-3.404,-3.4025,-3.3971,-3.3827,-3.3605,-3.3431,-3.329,-3.329,-3.3276,-1.8858,-1.92,-1.9542,0.0,0.0,0.0,0.0,-2.1454,0.0,0.0,0.0,0.0,0.0,0.0,0.0,0.0,0.0,0.0,0.0,0.0,0.0,0.0,0.0,0.0,0.0,0.0,0.0,0.0,-3.6959,-3.7427,-3.7583,-3.7949,-3.8457,-3.906,-3.9092,-3.9424,-4.0135,-4.0451,-4.0798,-4.1178,-4.1462,-4.1588,-4.1588,-4.1489,-4.139,-4.129,-4.1037,-4.0882,-4.0799,-4.0593,-4.0489,-4.0489,-4.0489,-4.0489,-4.0489,-4.0489,-4.0489,-4.0489,-4.0489,-4.047,-4.0366,-4.0366,-4.0191,-3.9945,-3.9839,-3.9696,-3.9517,-3.9409,-3.9388,-3.9388,-3.9388,-3.9388,-3.9388,-3.9388,-3.9388,-3.9388,-3.9388,-3.9301,-3.9141,-3.8811,-3.8701,-3.8538,-3.8366,-3.8329,-3.7986,-3.7027,-3.6562,-3.5981,-3.5082,-3.4646,-3.4414,-3.4414,-3.4414,-3.4414,-3.4414,-3.4414,-3.4414,-3.4414,-3.4414,-3.4414,-3.4414,-3.4414,-3.4346,-3.423,-3.423,-3.4142,-3.3985,-3.3813,-3.3605,-3.3431,-3.3361,-3.329,-1.8843,-1.9233,-1.9639,0.0,0.0,0.0,-2.0677,-2.1164,0.0,0.0,0.0,0.0,0.0,0.0,0.0,0.0,0.0,0.0,0.0,0.0,0.0,0.0,0.0,0.0,0.0,0.0,0.0,-3.5582,-3.6318,-3.7013,-3.7571,-3.7618,-3.7848,-3.8395,-3.8397,-3.8728,-3.9376,-4.004,-4.0451,-4.0609,-4.1193,-4.1525,-4.1588,-4.1588,-4.1489,-4.1323,-4.1187,-4.1018,-4.0799,-4.0627,-4.0524,-4.0489,-4.0489,-4.0489,-4.0489,-4.0489,-4.0489,-4.0489,-4.0489,-4.0489,-4.0489,-4.0489,-4.0401,-4.0277,-4.0101,-3.9889,-3.9661,-3.9445,-3.9388,-3.9388,-3.9388,-3.9388,-3.9388,-3.9388,-3.9388,-3.9388,-3.9388,-3.9388,-3.9337,-3.9177,-3.898,-3.876,-3.859,-3.8516,-3.804,-3.6576,-3.6387,-3.5886,-3.4608,-3.4448,-3.4414,-3.4414,-3.4414,-3.4414,-3.4414,-3.4414,-3.4414,-3.4414,-3.4414,-3.4414,-3.4414,-3.4414,-3.4414,-3.4414,-3.4414,-3.4312,-3.4128,-3.3985,-3.3793,-3.3605,-3.3431,-3.3326,0.0,0.0,0.0,0.0,0.0,0.0,-2.0778,-2.0888,0.0,0.0,0.0,0.0,0.0,0.0,0.0,0.0,0.0,0.0,0.0,0.0,0.0,0.0,0.0,0.0,0.0,0.0,0.0,-3.4291,-3.5348,-3.6334,-3.7025,-3.7057,-3.7291,-3.7832,-3.7848,-3.8122,-3.8697,-3.8855,-3.9487,-4.0609,-4.0735,-4.1067,-4.1588,-4.1588,-4.1588,-4.1522,-4.1323,-4.1187,-4.1034,-4.0799,-4.0662,-4.0489,-4.0489,-4.0489,-4.0489,-4.0489,-4.0489,-4.0489,-4.0489,-4.0489,-4.0489,-4.0489,-4.0401,-4.0312,-4.0242,-3.998,-3.9661,-3.9445,-3.9388,-3.9388,-3.9388,-3.9388,-3.9388,-3.9388,-3.9388,-3.9388,-3.9388,-3.9388,-3.9388,-3.9337,-3.9177,-3.8995,-3.8797,-3.876,-3.8296,-3.6981,-3.677,-3.6285,-3.4963,-3.4716,-3.4631,-3.4631,-3.4481,-3.4414,-3.4414,-3.4414,-3.4414,-3.4414,-3.4414,-3.4414,-3.4414,-3.4414,-3.4414,-3.4414,-3.4414,-3.438,-3.4346,-3.4054,-3.3793,-3.3605,-3.357,-3.3466,0.0,0.0,0.0,-2.1295,0.0,0.0,0.0,-2.0844,0.0,0.0,0.0,0.0,0.0,0.0,0.0,0.0,0.0,0.0,0.0,0.0,0.0,0.0,0.0,0.0,0.0,0.0,-3.3331,-3.3951,-3.4584,-3.5374,-3.6396,-3.646,-3.6698,-3.7275,-3.7205,-3.7451,-3.8106,-3.838,-3.8855,-3.9566,-3.9898,-4.0419,-4.1099,-4.1099,-4.1272,-4.1588,-4.139,-4.1272,-4.1187,-4.0901,-4.073,-4.0627,-4.0524,-4.0489,-4.0489,-4.0489,-4.0489,-4.0489,-4.0489,-4.0489,-4.0489,-4.0489,-4.0455,-4.0401,-4.0312,-4.0016,-3.9696,-3.9589,-3.9496,-3.9388,-3.9388,-3.9388,-3.9388,-3.9388,-3.9388,-3.9388,-3.9388,-3.9388,-3.9388,-3.9388,-3.9301,-3.9177,-3.898,-3.8677,-3.8109,-3.7057,-3.663,-3.6055,-3.5019,-3.4835,-3.4817,-3.4817,-3.4716,-3.4635,-3.4635,-3.4635,-3.4601,-3.4549,-3.4563,-3.4481,-3.4414,-3.4414,-3.4414,-3.4414,-3.4414,-3.4414,-3.4414,-3.421,-3.404,-3.3868,-3.3779,-3.364,0.0,0.0,0.0,0.0,0.0,-2.105,0.0,0.0,0.0,0.0,0.0,0.0,0.0,0.0,0.0,0.0,0.0,0.0,0.0,0.0,0.0,0.0,0.0,0.0,0.0,0.0,0.0,-3.3599,-3.3825,-3.4422,-3.5567,-3.5776,-3.6125,-3.671,-3.6729,-3.695,-3.7494,-3.806,-3.8411,-3.8523,-3.906,-3.9692,-4.0388,-4.0546,-4.0893,-4.1415,-4.136,-4.1357,-4.129,-4.0969,-4.0833,-4.0765,-4.0558,-4.0489,-4.0489,-4.0489,-4.0489,-4.0489,-4.0489,-4.0489,-4.0489,-4.0489,-4.0489,-4.0455,-4.0331,-4.0086,-3.9788,-3.9717,-3.9589,-3.9445,-3.9424,-3.9388,-3.9388,-3.9388,-3.9388,-3.9388,-3.9388,-3.9388,-3.9388,-3.9388,-3.9388,-3.9337,-3.9177,-3.8591,-3.7881,-3.7103,-3.6438,-3.5773,-3.509,-3.4968,-3.4968,-3.4968,-3.4935,-3.4902,-3.4902,-3.4902,-3.4835,-3.4765,-3.4731,-3.4664,-3.4515,-3.4481,-3.4448,-3.4448,-3.4414,-3.4414,-3.4414,-3.4414,-3.4312,-3.4094,-3.3985,-3.3848,0.0,0.0,0.0,0.0,-2.2492,0.0,0.0,0.0,0.0,0.0,0.0,0.0,0.0,0.0,0.0,0.0,0.0,0.0,0.0,0.0,0.0,0.0,0.0,0.0,0.0,0.0,0.0,0.0,-3.2838,-3.3534,-3.427,-3.4933,-3.5544,-3.6109,-3.6708,-3.6938,-3.6734,-3.7433,-3.8011,-3.8507,-3.8586,-3.8981,-3.9645,-4.0293,-4.064,-4.0751,-4.1336,-4.1456,-4.129,-4.112,-4.095,-4.0765,-4.0558,-4.0489,-4.0489,-4.0489,-4.0489,-4.0489,-4.0489,-4.0489,-4.0489,-4.0489,-4.0489,-4.0455,-4.0331,-4.0277,-4.0172,-3.9788,-3.9681,-3.961,-3.946,-3.9388,-3.9388,-3.9388,-3.9388,-3.9388,-3.9388,-3.9388,-3.9388,-3.9388,-3.9388,-3.9388,-3.9373,-3.8805,-3.8133,-3.7455,-3.6813,-3.6171,-3.5514,-3.5294,-3.518,-3.518,-3.5001,-3.4902,-3.4902,-3.4902,-3.4902,-3.4868,-3.4868,-3.4868,-3.4835,-3.4716,-3.4664,-3.4664,-3.4481,-3.4414,-3.4414,-3.4414,-3.4312,-3.4094,-3.4094,-3.4005,0.0,0.0,0.0,0.0,0.0,0.0,0.0,0.0,-2.181,0.0,0.0,0.0,0.0,0.0,0.0,0.0,0.0,0.0,0.0,0.0,0.0,0.0,0.0,0.0,0.0,0.0,0.0,0.0,0.0,-3.1727,-3.2821,-3.3566,-3.4253,-3.4872,-3.5535,-3.6172,-3.6765,-3.6982,-3.7358,-3.7923,-3.7923,-3.827,-3.8934,-3.925,-3.9598,-3.9993,-4.0704,-4.0987,-4.0905,-4.1115,-4.112,-4.095,-4.073,-4.0593,-4.0489,-4.0489,-4.0489,-4.0489,-4.0489,-4.0489,-4.0489,-4.0489,-4.0489,-4.0489,-4.0436,-4.0366,-4.0261,-4.0086,-3.9874,-3.9696,-3.9589,-3.9481,-3.9388,-3.9388,-3.9388,-3.9388,-3.9388,-3.9388,-3.9388,-3.9388,-3.9388,-3.9388,-3.9388,-3.8527,-3.7719,-3.7449,-3.6567,-3.5818,-3.5549,-3.5439,-3.5359,-3.5359,-3.5294,-3.5261,-3.5261,-3.5261,-3.518,-3.5082,-3.4968,-3.4902,-3.4902,-3.4835,-3.4817,-3.4817,-3.465,-3.4563,-3.4563,-3.4448,-3.4346,-3.4264,-3.4264,-3.4176,-2.5824,0.0,0.0,0.0,0.0,0.0,0.0,0.0,0.0,0.0,0.0,0.0,0.0,0.0,0.0,0.0,0.0,0.0,0.0,0.0,0.0,0.0,0.0,0.0,0.0,0.0,0.0,0.0,-2.967,0.0,-3.1364,-3.2287,-3.3097,-3.3793,-3.4436,-3.5272,-3.6357,-3.6573,-3.6877,-3.7255,-3.7415,-3.7733,-3.8239,-3.8428,-3.8776,-3.9281,-3.9993,-4.0293,-4.0308,-4.0635,-4.0784,-4.0854,-4.0637,-4.0541,-4.0558,-4.0524,-4.0489,-4.0489,-4.0489,-4.0489,-4.0489,-4.0489,-4.0489,-4.0489,-4.0489,-4.0436,-4.0347,-4.0296,-4.0086,-3.9839,-3.9732,-3.9589,-3.9445,-3.9409,-3.9388,-3.9388,-3.9388,-3.9388,-3.9388,-3.9388,-3.9388,-3.9388,-3.9388,-3.8302,-3.7404,-3.7404,-3.6327,-3.5504,-3.5504,-3.5504,-3.5504,-3.5504,-3.5504,-3.5504,-3.5504,-3.5504,-3.5439,-3.5294,-3.5148,-3.5082,-3.5082,-3.5001,-3.4968,-3.4968,-3.4817,-3.475,-3.475,-3.4582,-3.4481,-3.4481,-3.4414,-3.4312,0.0,0.0,0.0,-2.5565,0.0,0.0,0.0,0.0,-2.3253,0.0,0.0,0.0,0.0,0.0,-2.1324,-2.1386,-2.1402,0.0,0.0,0.0,0.0,0.0,0.0,0.0,0.0,0.0,0.0,0.0,-2.9102,0.0,-2.9961,-3.1283,-3.2368,-3.3097,-3.3777,-3.4429,-3.5047,-3.6261,-3.6809,-3.6626,-3.7207,-3.7526,-3.7557,-3.8207,-3.8523,-3.8586,-3.925,-3.9534,-3.955,-3.9408,-3.9753,-4.0301,-3.9971,-4.0207,-4.0765,-4.0558,-4.0489,-4.0489,-4.0489,-4.0489,-4.0489,-4.0489,-4.0489,-4.0489,-4.0489,-4.0489,-4.047,-4.0347,-4.0312,-4.0191,-3.9788,-3.9696,-3.9661,-3.946,-3.9388,-3.9388,-3.9388,-3.9388,-3.9388,-3.9388,-3.9388,-3.9388,-3.9388,-3.8302,-3.7404,-3.7404,-3.6327,-3.5504,-3.5504,-3.5504,-3.5504,-3.5504,-3.5504,-3.5504,-3.5504,-3.5504,-3.5504,-3.5504,-3.5472,-3.5472,-3.5472,-3.5294,-3.518,-3.518,-3.5001,-3.4902,-3.4902,-3.475,-3.4698,-3.4698,-3.4481,-3.4414,0.0,0.0,-2.6215,-2.571,0.0,0.0,0.0,0.0,0.0,0.0,0.0,0.0,0.0,0.0,-2.2067,-2.1609,-2.1527,-2.1542,0.0,0.0,0.0,0.0,0.0,0.0,0.0,0.0,0.0,-2.6215,-2.6782,-2.7656,0.0,-3.0091,-3.0927,-3.1616,-3.2805,-3.3727,-3.4269,-3.5059,-3.5824,-3.6594,-3.6717,-3.7022,-3.7526,-3.7717,-3.7828,-3.7875,-3.8555,-3.8855,-3.8886,-3.9266,-3.9503,-3.9611,-3.937,-3.9643,-4.0176,-4.0404,-4.0489,-4.0489,-4.0489,-4.0489,-4.0489,-4.0489,-4.0489,-4.0489,-4.0489,-4.0489,-4.0489,-4.047,-4.0366,-4.0277,-4.0121,-3.9996,-3.9889,-3.9818,-3.9711,-3.9589,-3.9589,-3.9481,-3.9388,-3.9388,-3.9388,-3.9275,-3.8811,-3.8003,-3.7404,-3.7404,-3.6327,-3.5504,-3.5504,-3.5504,-3.5504,-3.5504,-3.5504,-3.5504,-3.5504,-3.5504,-3.5504,-3.5504,-3.5504,-3.5504,-3.5504,-3.5439,-3.5392,-3.5392,-3.518,-3.5115,-3.5115,-3.4902,-3.4835,-3.485,-3.465,-3.4515,-2.7794,-2.7371,0.0,0.0,-2.6102,0.0,-2.5759,0.0,0.0,0.0,0.0,0.0,0.0,0.0,-2.2555,-2.211,-2.1814,-2.1634,0.0,-2.1664,0.0,0.0,0.0,0.0,0.0,0.0,-2.368,-2.4794,-2.5324,-2.6196,0.0,0.0,-2.9832,-3.0522,-3.1947,-3.2983,-3.3604,-3.4322,-3.5106,-3.5932,-3.6242,-3.6629,-3.7117,-3.7399,-3.751,-3.7526,-3.7954,-3.8144,-3.8175,-3.8602,-3.8888,-3.8999,-3.8811,-3.9042,-3.9561,-3.9992,-4.029,-4.0489,-4.0489,-4.0489,-4.0489,-4.0489,-4.0489,-4.0489,-4.0489,-4.0489,-4.0489,-4.0489,-4.0436,-4.0366,-4.0296,-4.0207,-4.0101,-4.0011,-3.9889,-3.9803,-3.9803,-3.9696,-3.9604,-3.9604,-3.9604,-3.9394,-3.8737,-3.8075,-3.7481,-3.7139,-3.6178,-3.5504,-3.5504,-3.5504,-3.5504,-3.5504,-3.5504,-3.5504,-3.5504,-3.5504,-3.5504,-3.5504,-3.5504,-3.5504,-3.5504,-3.5504,-3.5504,-3.5504,-3.5359,-3.5326,-3.5326,-3.5115,-3.5001,-3.5001,-3.485,-3.4716]},{"header":{"parameterUnit":"m.s-1","parameterCategory":1,"la1":30.6,"la2":29.2853,"lo1":-89.7004,"lo2":-87.6739,"dy":0.0162,"dx":0.0183,"nx":112,"ny":82,"refTime":"2023-07-02T00:00:00:Z","depth":0,"parameterNumber":3,"parameterNumberName":"V-component_of_WINDS"},"data":[0.0,0.0,0.0,0.0,0.0,0.0,0.0,0.0,0.0,0.0,0.0,0.0,0.0,0.0,0.0,0.0,0.0,0.0,0.0,0.0,0.0,0.0,0.0,0.0,0.0,0.0,0.0,0.0,0.0,0.0,0.0,0.0,0.0,0.0,0.0,0.0,0.0,0.0,0.0,0.0,0.0,0.0,0.0,0.0,0.0,0.0,0.0,0.0,0.0,0.0,0.0,0.0,0.0,0.0,0.0,0.0,0.0,0.0,0.0,0.0,0.0,0.0,0.0,0.0,0.0,0.0,0.0,0.0,0.0,0.0,0.0,0.0,0.0,0.0,0.0,0.0,0.0,0.0,0.0,0.0,0.0,0.0,0.0,0.0,0.0,0.0,0.0,0.0,0.0,0.0,0.0,-1.5383,-1.6434,-1.7146,-1.735,-1.6795,-1.6205,-1.5657,0.0,0.0,0.0,0.0,0.0,0.0,0.0,0.0,0.0,0.0,0.0,0.0,0.0,0.0,0.0,0.0,0.0,0.0,0.0,0.0,0.0,0.0,0.0,0.0,0.0,0.0,0.0,0.0,0.0,0.0,0.0,0.0,0.0,0.0,0.0,0.0,0.0,0.0,0.0,0.0,0.0,0.0,0.0,0.0,0.0,0.0,0.0,0.0,0.0,0.0,0.0,0.0,0.0,0.0,0.0,0.0,0.0,0.0,0.0,0.0,0.0,0.0,0.0,0.0,0.0,0.0,0.0,0.0,0.0,0.0,0.0,0.0,0.0,0.0,0.0,0.0,0.0,0.0,0.0,0.0,0.0,0.0,0.0,0.0,0.0,0.0,0.0,0.0,0.0,0.0,0.0,0.0,0.0,0.0,0.0,0.0,0.0,0.0,0.0,0.0,0.0,0.0,0.0,0.0,-1.4492,-1.6675,-1.7162,-1.7526,-1.8008,-1.7202,-1.6399,-1.5824,0.0,0.0,0.0,0.0,0.0,0.0,0.0,0.0,0.0,0.0,0.0,0.0,0.0,0.0,0.0,0.0,0.0,0.0,0.0,0.0,0.0,0.0,0.0,0.0,0.0,0.0,0.0,0.0,0.0,0.0,0.0,0.0,0.0,0.0,0.0,0.0,0.0,0.0,0.0,0.0,0.0,0.0,0.0,0.0,0.0,0.0,0.0,0.0,0.0,0.0,0.0,0.0,0.0,0.0,0.0,0.0,0.0,0.0,0.0,0.0,0.0,0.0,0.0,0.0,0.0,0.0,0.0,0.0,0.0,0.0,0.0,0.0,0.0,0.0,0.0,0.0,0.0,0.0,0.0,0.0,0.0,0.0,0.0,0.0,0.0,0.0,0.0,0.0,0.0,0.0,0.0,0.0,0.0,0.0,0.0,0.0,0.0,0.0,0.0,0.0,0.0,0.0,0.0,-1.4476,-1.561,-1.7636,-1.7903,-1.8052,-1.8283,-1.7895,-1.713,-1.5925,-1.4736,0.0,0.0,0.0,0.0,0.0,0.0,0.0,0.0,0.0,0.0,0.0,0.0,0.0,0.0,0.0,0.0,0.0,0.0,0.0,0.0,0.0,0.0,0.0,0.0,0.0,0.0,0.0,0.0,0.0,0.0,0.0,0.0,0.0,0.0,0.0,0.0,0.0,0.0,0.0,0.0,0.0,0.0,0.0,0.0,0.0,0.0,0.0,0.0,0.0,0.0,0.0,0.0,0.0,0.0,0.0,0.0,0.0,0.0,0.0,0.0,0.0,0.0,0.0,0.0,0.0,0.0,0.0,0.0,0.0,0.0,0.0,0.0,0.0,0.0,0.0,0.0,0.0,0.0,0.0,0.0,0.0,0.0,0.0,0.0,0.0,0.0,0.0,0.0,0.0,0.0,0.0,0.0,0.0,0.0,0.0,0.0,0.0,0.0,0.0,0.0,0.0,0.0,-1.6032,-1.683,-1.8443,-1.8639,-1.866,-1.866,-1.8561,-1.7773,-1.6071,-1.5501,0.0,0.0,0.0,0.0,0.0,0.0,0.0,0.0,0.0,0.0,0.0,0.0,0.0,0.0,0.0,0.0,0.0,0.0,0.0,0.0,0.0,0.0,0.0,0.0,0.0,0.0,0.0,0.0,0.0,0.0,0.0,0.0,0.0,0.0,0.0,0.0,0.0,0.0,0.0,0.0,0.0,0.0,0.0,0.0,0.0,0.0,0.0,0.0,0.0,0.0,0.0,0.0,0.0,0.0,0.0,0.0,0.0,0.0,0.0,0.0,0.0,0.0,0.0,0.0,0.0,0.0,0.0,0.0,0.0,0.0,0.0,0.0,0.0,0.0,0.0,0.0,0.0,0.0,0.0,0.0,0.0,0.0,0.0,0.0,0.0,0.0,0.0,0.0,0.0,0.0,0.0,0.0,0.0,0.0,0.0,0.0,0.0,0.0,0.0,0.0,0.0,0.0,-1.6776,-1.7923,-1.9115,-1.9347,-1.9436,-1.9436,-1.9011,-1.8004,-1.6208,-1.6059,0.0,0.0,0.0,0.0,0.0,0.0,0.0,0.0,0.0,0.0,0.0,0.0,0.0,0.0,0.0,0.0,0.0,0.0,0.0,0.0,0.0,0.0,0.0,0.0,0.0,0.0,0.0,0.0,0.0,0.0,0.0,0.0,0.0,0.0,0.0,0.0,0.0,0.0,0.0,0.0,0.0,0.0,0.0,0.0,0.0,0.0,0.0,0.0,0.0,0.0,0.0,0.0,0.0,0.0,0.0,0.0,0.0,0.0,0.0,0.0,0.0,0.0,0.0,0.0,0.0,0.0,0.0,0.0,0.0,0.0,0.0,0.0,0.0,0.0,0.0,0.0,0.0,0.0,0.0,0.0,0.0,0.0,0.0,0.0,0.0,0.0,0.0,0.0,0.0,0.0,0.0,0.0,0.0,0.0,0.0,0.0,0.0,0.0,0.0,0.0,0.0,0.0,-1.7,-1.8239,0.0,-1.9908,-2.0111,-2.0111,-1.9664,-1.8574,-1.6783,0.0,0.0,0.0,0.0,0.0,0.0,0.0,0.0,0.0,0.0,0.0,0.0,0.0,0.0,0.0,0.0,0.0,0.0,0.0,0.0,0.0,0.0,0.0,0.0,0.0,0.0,0.0,0.0,0.0,0.0,0.0,0.0,0.0,0.0,0.0,0.0,0.0,0.0,0.0,0.0,0.0,0.0,0.0,0.0,0.0,0.0,0.0,0.0,0.0,0.0,0.0,0.0,0.0,0.0,0.0,0.0,0.0,0.0,0.0,0.0,0.0,0.0,0.0,0.0,0.0,0.0,0.0,0.0,0.0,0.0,0.0,0.0,0.0,0.0,0.0,0.0,0.0,0.0,0.0,0.0,0.0,0.0,0.0,0.0,0.0,0.0,0.0,0.0,0.0,0.0,0.0,0.0,0.0,0.0,0.0,0.0,0.0,0.0,0.0,0.0,0.0,0.0,-1.5793,-1.7435,-1.8777,0.0,-2.0342,-2.0721,-2.0578,-2.0057,-1.9059,-1.7478,0.0,0.0,0.0,0.0,0.0,0.0,0.0,0.0,0.0,0.0,0.0,0.0,0.0,0.0,0.0,0.0,0.0,0.0,0.0,0.0,0.0,0.0,0.0,0.0,0.0,0.0,0.0,0.0,0.0,0.0,0.0,0.0,0.0,0.0,0.0,0.0,0.0,0.0,0.0,0.0,0.0,0.0,0.0,0.0,0.0,0.0,0.0,0.0,0.0,0.0,0.0,0.0,0.0,0.0,0.0,0.0,0.0,0.0,0.0,0.0,0.0,0.0,0.0,0.0,0.0,0.0,0.0,0.0,0.0,0.0,0.0,0.0,0.0,0.0,0.0,0.0,0.0,0.0,0.0,0.0,0.0,0.0,0.0,0.0,0.0,0.0,0.0,0.0,0.0,0.0,0.0,0.0,0.0,0.0,0.0,0.0,0.0,0.0,0.0,0.0,0.0,0.0,-1.6019,-1.8208,-1.97,-1.97,-2.0708,-2.1227,-2.0758,-2.0156,-1.9337,0.0,0.0,0.0,0.0,0.0,0.0,0.0,0.0,0.0,0.0,0.0,0.0,0.0,0.0,0.0,0.0,0.0,0.0,0.0,0.0,0.0,0.0,0.0,0.0,0.0,0.0,0.0,0.0,0.0,0.0,0.0,0.0,0.0,0.0,0.0,0.0,0.0,0.0,0.0,0.0,0.0,0.0,0.0,0.0,0.0,0.0,0.0,0.0,0.0,0.0,0.0,0.0,0.0,0.0,0.0,0.0,0.0,0.0,0.0,0.0,0.0,0.0,0.0,0.0,0.0,0.0,0.0,0.0,0.0,0.0,0.0,0.0,0.0,0.0,0.0,0.0,0.0,0.0,0.0,0.0,0.0,0.0,0.0,0.0,0.0,0.0,0.0,0.0,0.0,0.0,0.0,0.0,0.0,0.0,0.0,0.0,0.0,0.0,0.0,0.0,0.0,0.0,0.0,0.0,-1.8256,-1.977,-1.977,-2.0927,-2.1629,-2.1474,-2.0524,-1.9623,-1.8879,0.0,0.0,0.0,0.0,0.0,0.0,0.0,0.0,0.0,0.0,0.0,0.0,0.0,0.0,0.0,0.0,0.0,0.0,0.0,0.0,0.0,0.0,0.0,0.0,0.0,0.0,0.0,0.0,0.0,0.0,0.0,0.0,0.0,0.0,0.0,0.0,0.0,0.0,0.0,0.0,0.0,0.0,0.0,0.0,0.0,0.0,0.0,0.0,0.0,0.0,0.0,0.0,0.0,0.0,0.0,0.0,0.0,0.0,0.0,0.0,0.0,0.0,0.0,0.0,0.0,0.0,0.0,0.0,0.0,0.0,0.0,0.0,0.0,0.0,0.0,0.0,0.0,0.0,0.0,0.0,0.0,0.0,0.0,0.0,0.0,0.0,0.0,0.0,0.0,0.0,0.0,0.0,0.0,0.0,0.0,0.0,0.0,0.0,0.0,0.0,0.0,0.0,-1.6777,-1.8645,-1.9985,-2.0218,-2.1181,-2.1817,-2.1864,-2.1,-2.0196,-1.9642,0.0,0.0,0.0,0.0,0.0,0.0,0.0,0.0,0.0,0.0,0.0,0.0,0.0,0.0,0.0,0.0,0.0,0.0,0.0,0.0,0.0,0.0,0.0,0.0,0.0,0.0,0.0,0.0,0.0,0.0,0.0,0.0,0.0,0.0,0.0,0.0,0.0,0.0,0.0,0.0,0.0,0.0,0.0,0.0,0.0,0.0,0.0,0.0,0.0,0.0,0.0,0.0,0.0,0.0,0.0,0.0,0.0,0.0,0.0,0.0,0.0,0.0,0.0,0.0,0.0,0.0,0.0,0.0,0.0,0.0,0.0,0.0,0.0,0.0,0.0,0.0,0.0,0.0,0.0,0.0,0.0,0.0,0.0,0.0,0.0,0.0,0.0,0.0,0.0,0.0,0.0,0.0,0.0,0.0,0.0,0.0,0.0,0.0,0.0,0.0,0.0,0.0,-1.7952,-1.9231,-2.0255,-2.0863,-2.1457,-2.1902,-2.202,-2.1462,-2.0957,-2.0512,0.0,0.0,0.0,0.0,0.0,0.0,0.0,0.0,0.0,0.0,0.0,0.0,0.0,0.0,0.0,0.0,0.0,0.0,0.0,0.0,0.0,0.0,0.0,0.0,0.0,0.0,0.0,0.0,0.0,0.0,0.0,0.0,0.0,0.0,0.0,0.0,0.0,0.0,0.0,0.0,0.0,0.0,0.0,0.0,0.0,0.0,0.0,0.0,0.0,0.0,0.0,0.0,0.0,0.0,0.0,0.0,0.0,0.0,0.0,0.0,-2.0533,0.0,0.0,0.0,0.0,0.0,0.0,0.0,0.0,0.0,0.0,0.0,0.0,0.0,0.0,0.0,0.0,0.0,0.0,0.0,0.0,0.0,0.0,0.0,0.0,0.0,0.0,0.0,0.0,0.0,0.0,0.0,0.0,0.0,0.0,0.0,0.0,0.0,0.0,0.0,0.0,0.0,-1.8086,-1.9336,-2.0386,-2.0999,-2.1704,-2.2137,-2.2161,-2.16,-2.1215,-2.1111,0.0,0.0,0.0,0.0,0.0,0.0,0.0,0.0,0.0,0.0,0.0,0.0,0.0,0.0,0.0,0.0,0.0,0.0,0.0,0.0,0.0,0.0,0.0,0.0,0.0,0.0,0.0,0.0,0.0,0.0,0.0,0.0,0.0,0.0,0.0,0.0,0.0,0.0,0.0,0.0,0.0,0.0,0.0,0.0,0.0,0.0,0.0,0.0,0.0,0.0,0.0,0.0,0.0,0.0,0.0,0.0,0.0,0.0,0.0,0.0,0.0,-2.1481,0.0,0.0,0.0,0.0,0.0,0.0,0.0,0.0,0.0,0.0,0.0,0.0,0.0,0.0,0.0,0.0,0.0,0.0,0.0,0.0,0.0,0.0,0.0,0.0,0.0,0.0,0.0,0.0,0.0,0.0,0.0,0.0,0.0,0.0,0.0,0.0,0.0,0.0,0.0,0.0,-1.9051,-2.0075,-2.1064,-2.1974,-2.2399,-2.277,-2.308,-2.2531,-2.2039,-2.1744,-2.0548,0.0,0.0,0.0,0.0,0.0,0.0,0.0,0.0,0.0,0.0,0.0,0.0,0.0,0.0,0.0,0.0,0.0,0.0,0.0,0.0,0.0,0.0,0.0,0.0,0.0,0.0,0.0,0.0,0.0,0.0,0.0,0.0,0.0,0.0,0.0,0.0,0.0,0.0,0.0,0.0,0.0,0.0,0.0,0.0,0.0,0.0,0.0,0.0,0.0,0.0,0.0,0.0,0.0,0.0,0.0,-2.7488,-2.8643,-2.8956,-2.8436,-2.5562,-2.3995,-2.3453,0.0,0.0,0.0,0.0,0.0,0.0,0.0,0.0,0.0,0.0,0.0,0.0,0.0,0.0,0.0,0.0,0.0,0.0,0.0,0.0,0.0,0.0,0.0,0.0,0.0,-1.9804,-1.9741,0.0,0.0,0.0,0.0,0.0,0.0,0.0,0.0,0.0,0.0,0.0,0.0,-2.025,-2.1024,-2.1884,-2.2971,-2.3196,-2.3502,-2.4036,-2.36,-2.2999,-2.2405,-2.1786,-2.0717,0.0,0.0,0.0,0.0,0.0,0.0,0.0,0.0,0.0,0.0,0.0,0.0,0.0,0.0,0.0,0.0,0.0,0.0,0.0,0.0,0.0,0.0,0.0,0.0,0.0,0.0,0.0,0.0,0.0,0.0,0.0,0.0,-1.7735,-1.792,0.0,0.0,0.0,0.0,0.0,0.0,0.0,0.0,0.0,0.0,0.0,0.0,0.0,0.0,-2.7256,-2.8446,-2.9063,-2.9063,-2.9164,-2.9782,-3.0848,-3.105,-3.1373,-3.1738,-3.0764,0.0,-2.6231,-2.5614,0.0,0.0,0.0,0.0,0.0,0.0,0.0,0.0,0.0,0.0,0.0,0.0,0.0,0.0,0.0,0.0,0.0,0.0,0.0,0.0,0.0,0.0,-2.1192,-2.1708,-2.1898,-2.1947,0.0,-2.0111,-1.8569,-1.8611,0.0,0.0,0.0,0.0,0.0,0.0,0.0,0.0,-2.106,-2.1701,-2.2348,-2.3027,-2.3628,-2.3994,-2.4078,-2.4008,-2.3684,-2.3013,-2.2433,-2.1803,-2.113,-1.9571,0.0,0.0,0.0,0.0,0.0,0.0,0.0,0.0,0.0,0.0,0.0,0.0,0.0,0.0,0.0,0.0,0.0,0.0,0.0,0.0,0.0,0.0,0.0,0.0,0.0,0.0,0.0,0.0,0.0,-1.8185,-1.944,-1.9787,-2.0966,-2.2002,0.0,0.0,0.0,0.0,0.0,0.0,0.0,0.0,0.0,-2.7856,-2.9147,-2.9824,-2.9901,-3.1078,-3.1696,-3.1662,-3.2013,-3.2462,-3.3045,-3.3396,-3.3726,-3.3951,-3.3297,-3.2224,-3.0792,-2.8816,-2.7987,-2.7888,0.0,0.0,0.0,0.0,0.0,0.0,-2.4187,0.0,0.0,0.0,0.0,0.0,0.0,0.0,0.0,0.0,0.0,0.0,0.0,0.0,0.0,-2.3675,-2.3905,-2.3917,-2.3628,-2.2775,-2.1767,0.0,-2.0158,-1.9807,-1.9822,0.0,0.0,0.0,0.0,0.0,-2.1772,-2.2658,-2.3502,-2.4095,-2.443,-2.4739,-2.5091,-2.4795,-2.4486,-2.4205,-2.3238,-2.2508,-2.2039,-2.0592,-1.9575,0.0,0.0,0.0,0.0,0.0,0.0,0.0,0.0,0.0,0.0,0.0,0.0,0.0,0.0,0.0,0.0,0.0,0.0,0.0,0.0,0.0,0.0,0.0,0.0,0.0,0.0,0.0,0.0,-1.9922,-2.1036,-2.182,-2.2963,-2.401,0.0,0.0,0.0,0.0,0.0,0.0,-2.8798,-2.8868,-2.9433,-3.0662,-3.1778,-3.2441,-3.2597,-3.3635,-3.4256,-3.4447,-3.4877,-3.5173,-3.5342,-3.5831,-3.608,-3.6029,-3.5526,-3.5145,-3.4601,-3.1743,-3.0474,-3.0221,-2.9139,-2.8633,0.0,-2.7242,-2.6849,-2.6849,-2.6849,-2.6849,-2.6821,-2.6666,0.0,-2.5309,-2.5309,0.0,0.0,0.0,0.0,-2.4513,-2.4943,0.0,-2.5162,-2.5529,-2.571,-2.5672,-2.5232,-2.5246,-2.4773,0.0,-2.2098,-2.1834,-2.1857,0.0,0.0,0.0,0.0,-2.2686,-2.2686,-2.3642,-2.45,-2.495,-2.5147,-2.5428,-2.5851,-2.5472,-2.5161,-2.5021,-2.4146,-2.3346,-2.271,-2.1755,-2.0702,0.0,0.0,0.0,0.0,0.0,0.0,0.0,0.0,0.0,0.0,0.0,0.0,0.0,0.0,0.0,0.0,0.0,0.0,0.0,0.0,0.0,0.0,0.0,0.0,0.0,0.0,0.0,0.0,0.0,0.0,-2.3996,-2.4832,0.0,0.0,0.0,0.0,-2.8984,-2.9628,-3.0499,-3.1725,-3.1797,-3.2368,-3.3645,-3.4296,-3.4939,-3.5568,-3.621,-3.6853,-3.7477,-3.7506,-3.782,-3.8367,-3.8396,-3.841,-3.841,-3.8382,-3.7682,-3.6402,-3.4072,-3.2792,-3.2202,-3.1555,-3.0923,-3.0273,-2.9659,-2.942,-2.942,-2.942,-2.942,-2.9321,-2.8745,-2.772,-2.6694,-2.6694,-2.6176,0.0,0.0,-2.6355,-2.6408,-2.6988,-2.714,-2.7154,-2.7181,-2.7195,-2.724,-2.733,-2.7346,-2.6635,0.0,-2.3789,-2.3786,-2.3926,0.0,0.0,-2.3895,-2.3977,-2.3994,-2.3994,-2.4556,-2.4978,-2.5006,-2.55,-2.5865,-2.5893,-2.5865,-2.5598,-2.5049,-2.5055,-2.4589,-2.3498,-2.2971,-2.2134,-2.093,-1.9682,0.0,0.0,0.0,0.0,0.0,0.0,0.0,0.0,0.0,0.0,0.0,0.0,0.0,0.0,0.0,0.0,0.0,0.0,0.0,0.0,0.0,0.0,0.0,0.0,0.0,0.0,0.0,0.0,-2.6726,-2.7439,0.0,0.0,-3.0299,-3.096,-3.1589,-3.2219,-3.2949,-3.3774,-3.4217,-3.4832,-3.569,-3.6705,-3.7363,-3.7591,-3.8206,-3.8635,-3.8864,-3.8864,-3.8978,-3.9193,-3.9193,-3.9193,-3.9193,-3.9193,-3.8935,-3.8439,-3.7652,-3.6211,-3.4519,-3.3866,-3.3399,-3.2978,-3.2404,-3.1871,-3.1415,-3.1415,-3.1148,-3.0712,-3.008,-2.9529,-2.9125,-2.8731,-2.8434,-2.818,-2.8012,-2.7926,-2.7879,-2.7998,-2.801,-2.8077,-2.837,-2.856,-2.8541,-2.8154,-2.8174,-2.7914,-2.6638,-2.5741,-2.5206,-2.5247,-2.4613,-2.4092,-2.4092,-2.443,-2.4683,-2.4683,-2.5217,-2.557,-2.557,-2.5767,-2.5893,-2.5893,-2.5893,-2.5863,-2.5719,-2.539,-2.491,-2.4238,-2.3305,-2.2444,-2.1656,-2.077,-1.9851,0.0,0.0,0.0,0.0,0.0,0.0,0.0,0.0,0.0,0.0,0.0,0.0,0.0,0.0,0.0,0.0,0.0,0.0,0.0,0.0,0.0,0.0,0.0,0.0,0.0,0.0,-2.7579,-2.8857,-2.9777,-3.0727,-3.1806,-3.2669,-3.3331,-3.3797,-3.4583,-3.5331,-3.5899,-3.6574,-3.7207,-3.7825,-3.8658,-3.9204,-3.942,-3.9837,-4.0268,-4.0685,-4.0685,-4.0685,-4.0685,-4.0685,-4.057,-4.0383,-4.0383,-4.0253,-4.0052,-4.0052,-3.8931,-3.7149,-3.6127,-3.556,-3.5159,-3.4498,-3.391,-3.3445,-3.3361,-3.2792,-3.2033,-3.1578,-3.1157,-3.0769,-3.0361,-3.0249,-3.015,-2.9757,-2.9631,-2.9599,-2.9477,-2.9446,-2.9512,-2.9849,-3.0011,-2.9995,-2.953,-2.9386,-2.9195,-2.8788,-2.7523,-2.6526,-2.6526,-2.5878,-2.5344,-2.5344,-2.5682,-2.5949,-2.5949,-2.63,-2.6526,-2.6526,-2.6526,-2.6441,-2.6217,-2.6202,-2.6173,-2.6098,-2.5755,-2.5374,-2.4934,-2.4014,-2.3132,-2.2316,-2.1495,-2.0717,-2.0,0.0,0.0,0.0,0.0,0.0,0.0,0.0,0.0,0.0,0.0,0.0,0.0,0.0,0.0,0.0,0.0,0.0,0.0,0.0,0.0,0.0,0.0,0.0,-2.6533,-2.7692,-2.9059,-3.0357,-3.1736,-3.2832,-3.3532,-3.4738,-3.5494,-3.5494,-3.6664,-3.7651,-3.8231,-3.8899,-3.9538,-4.0133,-4.0176,-4.051,-4.1178,-4.1192,-4.1802,-4.3021,-4.3021,-4.3021,-4.3021,-4.3021,-4.2702,-4.215,-4.215,-4.1773,-4.1149,-4.1149,-4.0771,-3.9992,-3.8318,-3.732,-3.6696,-3.5884,-3.5555,-3.5475,-3.5277,-3.4379,-3.3382,-3.3382,-3.2553,-3.1569,-3.1569,-3.1555,-3.1541,-3.1527,-3.1527,-3.1513,-3.1485,-3.1485,-3.1485,-3.1485,-3.1485,-3.1485,-3.1485,-3.0993,-3.0526,-3.0526,-2.9097,-2.7876,-2.7833,-2.7819,-2.7805,-2.7805,-2.7805,0.0,-2.7805,-2.7805,-2.7805,-2.7805,-2.7805,-2.7552,-2.6891,-2.6821,-2.661,-2.6181,-2.6233,-2.6081,-2.5621,-2.5166,-2.4312,-2.2975,-2.1835,-2.1336,-2.1462,0.0,0.0,0.0,0.0,0.0,0.0,0.0,0.0,0.0,0.0,0.0,0.0,0.0,0.0,0.0,0.0,0.0,0.0,0.0,0.0,0.0,0.0,-2.8812,-2.8727,-2.9479,-3.0842,-3.3042,-3.3641,-3.4327,-3.5415,-3.6678,-3.7418,-3.7418,-3.8609,-3.9407,-3.9567,-4.0205,-4.0873,-4.1526,-4.1961,-4.2513,-4.3195,-4.3195,-4.3369,-4.3718,-4.3718,-4.3718,-4.3718,-4.3718,-4.3616,-4.3471,-4.3471,-4.3094,-4.2469,-4.2469,-4.2107,-4.141,-3.9971,-3.9207,-3.8849,-3.8049,-3.6968,-3.5869,-3.5381,-3.4964,-3.4683,-3.4683,-3.4126,-3.3445,-3.3445,-3.3136,-3.2721,-3.2286,-3.2145,-3.2047,-3.1597,-3.1485,-3.1485,-3.1485,-3.1485,-3.1485,-3.1485,-3.1359,-3.1232,-3.1232,-3.0431,-2.949,-2.8591,-2.8101,-2.7805,-2.7805,0.0,0.0,-2.7805,-2.7805,-2.7805,-2.7805,-2.7805,-2.7735,-2.7523,-2.7074,-2.6849,0.0,-2.6543,-2.6119,-2.5771,-2.5633,-2.5154,-2.4278,-2.3244,-2.2731,0.0,0.0,0.0,0.0,0.0,0.0,0.0,0.0,0.0,0.0,0.0,0.0,0.0,0.0,0.0,0.0,0.0,0.0,0.0,0.0,0.0,0.0,-2.9581,-3.0987,-3.1524,-3.1946,-3.273,-3.424,-3.5125,-3.6011,-3.7012,-3.8028,-3.8725,-3.8986,-3.9944,-4.0525,-4.0525,-4.1381,-4.2063,-4.2455,-4.3079,-4.3602,-4.3993,-4.3993,-4.4124,-4.4371,-4.4371,-4.4371,-4.4371,-4.4371,-4.4226,0.0,-4.3993,-4.3776,-4.3398,-4.3108,-4.2789,0.0,0.0,0.0,0.0,0.0,-3.7848,-3.6754,-3.6174,-3.5794,-3.5583,-3.5583,-3.5124,-3.4618,-3.4618,-3.4197,-3.3585,-3.3234,-3.2988,-3.2707,-3.2356,-3.2258,-3.2258,-3.2258,-3.2258,-3.2258,-3.2258,-3.2061,-3.1878,-3.1878,0.0,0.0,-2.9631,-2.8942,-2.8535,-2.8535,-2.8535,-2.8535,0.0,-2.8535,-2.8535,-2.8535,-2.8535,-2.8436,-2.8213,-2.7818,0.0,0.0,0.0,-2.6445,-2.5821,0.0,0.0,0.0,0.0,-2.4123,0.0,0.0,0.0,0.0,-2.3104,-2.3305,0.0,0.0,0.0,0.0,0.0,0.0,0.0,0.0,0.0,0.0,0.0,0.0,0.0,0.0,0.0,0.0,-3.1495,-3.3151,-3.4356,-3.4646,-3.4733,-3.4733,-3.6315,-3.7651,-3.826,-3.8986,-3.9639,-4.0176,-4.0829,-4.1236,-4.1308,0.0,0.0,0.0,0.0,-4.4124,-4.4197,-4.4197,-4.4472,-4.4995,-4.4995,-4.4995,-4.4995,-4.4995,-4.4705,-4.4197,-4.4197,-4.4153,-4.4052,-4.3442,-4.3123,-4.2834,-4.163,-4.1123,-4.0839,-3.9341,-3.8391,0.0,0.0,0.0,0.0,-3.6216,-3.5794,-3.5287,-3.5287,-3.4829,-3.4301,-3.4301,-3.3866,-3.3389,-3.3389,-3.3333,-3.329,-3.329,-3.329,-3.329,-3.329,-3.289,-3.2511,-3.2511,-3.2005,-3.1415,-3.0806,-3.0133,-2.9687,-2.9617,-2.9602,0.0,-2.9602,-2.9602,-2.9602,-2.9602,0.0,0.0,-2.8844,-2.8731,-2.836,-2.7554,-2.741,-2.6931,-2.6054,-2.5937,-2.5708,-2.5326,-2.5305,-2.5396,-2.5515,-2.5649,-2.5749,-2.5809,-2.5198,-2.5077,0.0,0.0,0.0,0.0,0.0,0.0,0.0,0.0,0.0,0.0,0.0,0.0,0.0,0.0,0.0,-3.1814,-3.3137,-3.4312,-3.5101,-3.6083,-3.6751,-3.6751,-3.7506,-3.8289,-3.8942,-4.0046,-4.0771,-4.0902,-4.1526,-4.2107,-4.26,-4.2861,0.0,-4.4487,-4.4647,-4.498,-4.5518,-4.5518,-4.5576,-4.5692,0.0,0.0,-4.5692,-4.5692,-4.5634,-4.5518,-4.5518,-4.5213,-4.4705,-4.4574,-4.3835,-4.268,-4.1901,-4.1171,-4.0547,-4.0018,-3.898,-3.7878,-3.7765,-3.7316,-3.681,-3.681,-3.6427,-3.5934,-3.5934,-3.5498,0.0,-3.502,-3.4534,-3.4034,-3.4034,-3.3655,-3.329,-3.329,-3.329,-3.329,-3.329,-3.3192,-3.3108,-3.3108,-3.2651,-3.2188,-3.2061,-3.1059,-3.0147,-2.9673,-2.9602,-2.9602,-2.9602,-2.9602,-2.9602,-2.9602,-2.9602,-2.956,-2.9448,-2.897,-2.8697,-2.8768,-2.8037,-2.754,-2.7333,-2.6866,-2.6611,-2.6623,-2.6222,-2.6066,-2.6204,-2.6335,-2.6677,-2.718,-2.6107,-2.6248,0.0,0.0,0.0,0.0,0.0,0.0,0.0,0.0,0.0,0.0,0.0,-3.0205,0.0,0.0,-3.318,-3.3833,-3.5024,-3.5967,-3.6286,-3.7447,-3.813,-3.7796,-3.8318,-3.9088,-4.006,-4.0728,-4.1236,-4.157,-4.2179,-4.2673,-4.2977,-4.3587,-4.4226,-4.4864,-4.5213,-4.5547,-4.588,-4.588,-4.588,-4.588,-4.588,-4.588,-4.588,-4.588,-4.588,-4.588,-4.5745,-4.5512,-4.515,-4.4411,-4.3473,-4.2439,-4.1652,-4.1125,-4.07,-4.0277,-3.939,-3.8341,-3.8018,-3.7498,-3.6978,-3.6978,-3.6782,-3.6567,-3.6567,-3.6131,-3.5616,-3.5517,-3.5032,-3.4399,-3.3982,-3.369,-3.337,-3.3085,-3.3086,-3.3157,-3.3157,-3.3241,-3.329,-3.329,-3.3073,-3.2764,-3.2455,-3.1878,-3.1148,-3.0175,-2.9799,-2.9602,-2.9602,-2.9602,-2.9602,-2.9602,-2.9602,-2.9602,-2.9602,-2.9179,-2.8976,-2.9096,-2.8526,-2.8202,-2.8202,-2.7897,-2.7846,-2.8062,-2.7777,-2.7772,-2.7995,-2.8072,-2.8274,-2.8588,-2.8107,-2.8303,0.0,0.0,0.0,0.0,0.0,0.0,0.0,0.0,-2.9929,-3.1084,-3.1822,-3.2425,-3.2977,-3.4008,-3.4994,-3.5668,-3.662,-3.7404,-3.7636,-3.8551,-3.9088,-3.8797,-3.9233,-3.9973,-4.1004,-4.1221,-4.1512,-4.2049,-4.2658,-4.305,-4.3181,-4.4269,-4.4937,-4.5082,-4.5605,-4.588,-4.588,-4.588,-4.588,-4.588,-4.5835,-4.5835,-4.5835,-4.579,-4.5745,-4.5745,-4.5504,-4.5413,-4.5326,-4.3954,-4.3023,-4.2309,-4.1483,-4.1029,-4.0859,-4.0392,-3.9744,-3.9,-3.8313,-3.7681,-3.7147,-3.7021,-3.6978,-3.6978,-3.6978,-3.6641,-3.6185,-3.6021,-3.5447,-3.4732,-3.3988,-3.3703,-3.3454,-3.2856,-3.281,-3.2952,-3.2952,-3.3108,-3.3241,-3.3241,-3.3276,-3.3136,-3.2665,-3.2483,-3.1977,-3.068,-3.0076,-2.9743,-2.9631,-2.9602,-2.9602,-2.9602,-2.9602,-2.9602,-2.9602,-2.9414,-2.9281,-2.9281,-2.903,-2.8855,-2.8855,-2.8767,-2.8834,-2.9098,-2.9098,-2.925,-2.9606,-2.9606,-2.9666,-2.9786,-3.0056,-3.019,-2.585,-2.6533,-2.7563,-2.8242,-2.8897,-2.9668,0.0,0.0,-3.2326,-3.3056,-3.4128,-3.4985,-3.5072,-3.5619,-3.6315,-3.6983,-3.7215,-3.7709,-3.8826,-3.9117,-3.9596,-4.0655,-4.0844,-4.0945,-4.1091,-4.1628,-4.202,-4.2092,-4.2658,-4.3253,-4.3848,-4.4516,-4.5155,-4.575,-4.5837,-4.588,-4.588,-4.588,-4.588,-4.588,-4.564,-4.5549,-4.5549,-4.5307,-4.517,-4.517,-4.517,-4.5124,-4.5067,-4.414,-4.3397,-4.2729,-4.1887,-4.1223,-4.073,-4.066,-4.0252,-3.9592,-3.9015,-3.8327,-3.7709,-3.7161,-3.6978,-3.6978,-3.6978,-3.6833,-3.661,-3.661,-3.5995,-3.5217,-3.4651,-3.4034,-3.3454,-3.2856,-3.2739,-3.2739,-3.2739,-3.2881,-3.3023,-3.3023,-3.3192,-3.3262,-3.3192,-3.2764,-3.1977,-3.068,-3.0427,-3.0203,-2.9673,-2.9602,-2.9602,-2.9602,-2.9602,-2.9602,-2.9602,-2.9825,-2.9981,-2.9981,-2.9665,-2.9494,-2.9494,-2.8971,-2.8834,-2.9098,-2.9098,-2.925,-2.9606,-2.9606,-2.9891,-3.0402,-3.0736,-3.0888,-2.8094,-2.8793,0.0,0.0,-3.1626,-3.2445,-3.3779,-3.4178,-3.4491,-3.518,-3.5616,-3.6025,-3.6417,-3.6707,-3.7099,0.0,-3.8159,-3.8594,-3.9131,-3.9842,-4.0495,-4.1033,-4.1439,-4.1671,-4.1671,-4.1932,-4.2092,-4.2092,-4.3007,-4.3689,-4.3979,-4.4922,-4.559,-4.588,-4.5745,-4.5654,-4.5654,-4.5504,-4.5413,-4.5413,-4.5307,-4.5261,-4.5261,-4.517,-4.5046,-4.4922,-4.4922,-4.4815,-4.4634,-4.392,-4.3254,-4.2634,-4.1898,-4.1235,-4.0702,-4.0702,-4.0308,-3.9746,-3.9535,-3.8735,-3.7864,-3.7611,-3.7209,-3.6811,-3.6811,-3.6668,-3.6524,-3.6365,-3.6093,-3.5631,-3.4911,-3.4257,-3.3643,-3.3078,-3.2713,-3.2525,-3.2525,-3.2668,-3.2846,-3.2988,-3.3072,-3.3157,-3.3276,-3.3066,-3.2637,-3.1752,-3.0961,-3.0399,-3.0147,-2.9827,-2.9602,-2.9602,-2.9602,-2.9602,-2.9602,-2.9927,-3.008,-3.008,-3.0156,-3.0176,-3.0176,-2.9944,-2.9901,-3.0103,-3.019,-3.0362,-3.0604,-3.066,-3.0851,-3.1106,-3.1432,-3.1571,-3.0294,0.0,0.0,-3.3033,-3.3827,-3.4603,-3.5732,-3.6023,-3.6216,-3.6683,-3.683,-3.6983,-3.7462,-3.7549,-3.7694,-3.813,-3.8609,-3.9044,-3.9407,-4.0234,-4.096,-4.1323,-4.1802,-4.2092,-4.2092,-4.2092,-4.2165,-4.2339,-4.3369,-4.4066,-4.4153,-4.5196,-4.5745,-4.57,-4.5504,-4.5413,-4.5413,-4.5216,-4.5124,-4.5124,-4.5032,-4.5046,-4.4986,-4.4954,-4.4815,-4.469,-4.469,-4.4597,-4.4383,-4.3933,-4.3385,-4.2767,-4.2135,-4.1502,-4.0926,-4.0758,-4.0407,-4.0013,-3.9845,-3.9072,-3.8145,-3.7882,-3.7314,-3.6682,-3.6642,-3.6484,-3.6286,-3.6126,-3.6032,-3.5815,-3.4991,-3.4355,-3.3758,-3.3237,-3.2699,-3.2359,-3.2359,-3.2489,-3.2668,-3.2881,-3.2952,-3.3072,-3.3276,-3.329,-3.3136,-3.2721,-3.1738,-3.0891,-3.054,-2.9982,-2.9602,-2.9602,-2.9602,-2.9602,-2.9602,-2.9927,-3.008,-3.008,-3.0401,-3.0598,-3.0598,-3.0598,-3.0672,-3.0791,-3.0984,-3.1161,-3.1307,-3.1438,-3.1511,-3.1511,-3.1798,-3.1968,-3.2077,0.0,-3.3576,-3.4196,-3.4869,-3.5508,-3.6141,-3.678,-3.7244,-3.7273,-3.7738,-3.8144,-3.8173,-3.8173,-3.8188,-3.8202,-3.8217,-3.8667,-3.99,-4.0104,-4.0612,-4.1918,-4.2092,-4.2092,0.0,-4.2092,-4.2339,-4.2919,-4.3602,-4.4168,-4.4555,-4.5144,-4.5413,-4.5124,-4.5124,-4.5124,-4.5124,-4.5124,-4.5124,-4.5124,-4.4908,-4.4797,-4.4797,-4.4551,-4.4411,-4.4411,-4.4411,-4.4411,-4.4411,-4.4397,-4.4031,-4.3399,-4.2795,-4.2149,-4.1516,-4.0926,-4.0688,-4.0589,-3.9985,-3.9408,-3.8735,-3.7901,-3.7181,-3.6682,-3.6484,-3.6286,-3.6126,-3.6086,-3.5898,-3.5574,-3.4951,-3.4355,-3.3758,-3.3237,-3.264,-3.2218,-3.2218,-3.2322,-3.2489,-3.2668,-3.2881,-3.3072,-3.3276,-3.329,-3.3276,-3.3262,-3.275,-3.1907,-3.0652,-2.9982,-2.9602,-2.9602,-2.9602,-2.9602,-2.9602,-2.9927,-3.008,-3.008,-3.0401,-3.0598,-3.0598,-3.0598,-3.0672,-3.0791,-3.0984,-3.1161,-3.1307,-3.1438,-3.1511,-3.1511,-3.1698,-3.187,-3.3296,0.0,-3.4457,-3.5967,-3.6489,-3.6809,-3.7418,-3.7738,-3.7897,-3.7897,-3.8057,-3.8202,-3.8202,-3.8202,-3.8202,-3.8202,-3.858,-3.916,-3.9987,-4.0481,-4.1091,-4.199,-4.1939,0.0,0.0,0.0,0.0,-4.2722,-4.3344,-4.3905,-4.4301,-4.4932,-4.517,-4.5124,-4.4954,-4.4922,-4.4922,-4.4723,-4.463,-4.463,-4.4551,-4.4504,-4.4504,-4.4457,-4.4411,-4.4411,-4.4411,-4.4411,-4.4411,-4.4411,-4.4045,-4.3441,-4.2823,-4.2177,-4.1545,-4.0926,-4.063,-4.0487,-4.0277,-3.9745,-3.9075,-3.8283,-3.7468,-3.6767,-3.6316,-3.6032,-3.5844,-3.5844,-3.5764,-3.5669,-3.5425,-3.4639,-3.3853,-3.3664,-3.2901,-3.2218,-3.2218,-3.2241,-3.23,-3.2453,-3.2668,-3.2846,-3.3072,-3.3206,-3.315,-3.2778,-3.2188,-3.1485,-3.0596,-2.9982,-2.9602,-2.9602,-2.9602,-2.9602,-2.9602,-2.9775,-2.996,-3.008,-3.028,-3.0447,-3.0598,-3.0598,-3.0612,-3.0672,-3.0955,-3.1102,-3.1161,-3.1395,-3.1511,-3.1511,-3.1698,-3.2096,-3.4356,-3.5096,-3.5749,-3.6997,-3.7462,-3.7723,-3.8115,-3.8202,-3.8144,-3.7926,-3.7883,-3.781,-3.7564,-3.752,-3.7607,-3.7839,-3.8246,-3.8861,-3.9841,-4.0361,-4.0914,-4.1769,-4.1689,0.0,0.0,0.0,0.0,-4.2812,-4.3242,-4.3771,-4.4405,-4.4772,-4.4954,-4.4847,-4.4723,-4.4644,-4.4644,-4.4504,-4.4411,-4.4411,-4.4411,-4.4411,-4.4411,-4.4411,-4.4411,-4.4411,-4.4411,-4.4411,-4.4411,-4.4411,-4.4172,-4.3764,-4.3055,-4.2379,-4.1735,-4.1032,-4.0552,-4.0255,-4.0356,-3.9895,-3.9171,-3.8352,-3.7566,-3.677,-3.6156,-3.5858,-3.571,-3.571,-3.571,-3.571,-3.571,-3.4788,-3.3908,-3.3908,-3.3037,-3.2218,-3.2218,-3.2218,-3.2241,-3.2381,-3.2489,-3.2668,-3.2952,-3.3157,-3.315,-3.2792,-3.2019,-3.126,-3.0582,-2.9982,-2.9602,-2.9602,-2.9602,-2.9602,-2.9602,-2.9699,-2.9884,-3.008,-3.0249,-3.0387,-3.0598,-3.0598,-3.0598,-3.0598,-3.0866,-3.1014,-3.1117,-3.1336,-3.1572,-3.1854,-3.1986,-3.2477,-3.5261,-3.633,-3.7317,-3.7346,-3.7781,-3.8202,-3.8202,-3.8188,-3.7984,-3.7418,-3.7288,-3.7056,0.0,0.0,-3.6519,-3.7106,-3.7251,-3.7829,-3.9456,-3.9733,-4.0196,0.0,0.0,0.0,0.0,0.0,0.0,-4.3253,0.0,-4.3763,-4.4727,-4.4797,-4.4644,-4.4411,-4.4411,-4.4411,-4.4411,-4.4411,-4.4411,-4.4411,-4.4411,-4.4411,-4.4411,-4.4411,-4.4411,-4.4411,-4.4411,-4.4411,-4.4364,-4.4364,-4.4364,-4.4247,-4.3413,-4.2725,-4.2098,-4.1218,-4.052,-4.0009,-4.0255,-3.9823,-3.9014,-3.8196,-3.7482,-3.6784,-3.5981,-3.5737,-3.571,-3.571,-3.571,-3.571,-3.571,-3.4816,-3.3948,-3.3921,-3.3064,-3.2259,-3.2218,-3.2218,-3.2241,-3.2359,-3.2381,-3.2525,-3.2917,-3.3157,-3.329,-3.329,-3.23,-3.1302,-3.0656,-3.001,-2.9602,-2.9602,-2.9602,-2.9602,-2.9602,-2.9713,-2.9884,-3.008,-3.0219,-3.0387,-3.0598,-3.0598,-3.0598,-3.0598,-3.0776,-3.0939,-3.1161,-3.1323,-3.1797,-3.2557,-3.2557,-3.2991,-3.5764,-3.6678,-3.7418,-3.7868,-3.8086,-3.8202,-3.8202,-3.7854,-3.7491,-3.7346,-3.691,-3.6504,0.0,0.0,0.0,-3.6339,-3.675,0.0,-3.8054,-3.8961,0.0,-4.0651,0.0,-4.1284,-4.1824,-4.1792,0.0,0.0,-4.3593,-4.3947,-4.4462,-4.4504,-4.4457,-4.4411,-4.4411,-4.4411,-4.4411,-4.4411,-4.4411,-4.4411,-4.4411,-4.4411,-4.4411,-4.4411,-4.4411,-4.4411,-4.4411,-4.427,-4.4082,-4.4082,-4.3974,-4.3748,-4.3072,-4.245,-4.1813,-4.1173,-4.0446,-3.9774,-3.9876,-3.9722,-3.9401,-3.8569,-3.7871,-3.7217,-3.6564,-3.6076,-3.571,-3.571,-3.571,-3.571,-3.571,-3.5127,-3.4463,-3.4016,-3.3376,-3.2762,-3.2314,-3.2218,-3.2205,-3.2241,-3.2322,-3.2525,-3.2917,-3.3023,-3.3122,-3.329,-3.2665,-3.1949,-3.1316,-3.0291,-2.9602,-2.9602,-2.9602,-2.9602,-2.9602,-2.9634,-2.9789,-3.008,-3.0142,-3.028,-3.0598,-3.0598,-3.0598,-3.0598,-3.1229,-3.1629,-3.1766,-3.2404,-3.2914,-3.3245,-3.3245,-3.3681,-3.6475,-3.7215,-3.7781,-3.8115,-3.8202,-3.813,-3.7868,-3.7549,-3.707,-3.6214,-3.5735,0.0,0.0,0.0,0.0,0.0,0.0,0.0,-3.7391,-3.8578,-3.9577,0.0,-4.0604,0.0,-4.1777,-4.1956,-4.2444,0.0,-4.3621,-4.3874,-4.4383,-4.4411,-4.4411,-4.4411,-4.4411,-4.4411,-4.4411,-4.4411,-4.4411,-4.4411,-4.4411,-4.4317,-4.4223,-4.4223,-4.4162,-4.4054,0.0,-4.396,-4.3818,-4.3818,-4.3757,-4.3573,-4.3127,-4.242,-4.1595,-4.1174,-4.0367,-3.9496,-3.9496,-3.9496,-3.9401,-3.8657,-3.7973,-3.7377,-3.6782,-3.6185,-3.571,-3.571,-3.571,-3.571,-3.571,-3.5236,-3.4639,-3.4043,-3.3498,-3.2938,-3.2341,-3.2218,-3.2218,-3.2218,-3.23,-3.2489,-3.2704,-3.2881,-3.3023,-3.3157,-3.2723,-3.2188,-3.1569,-3.0628,-2.9897,-2.9645,-2.9602,-2.9602,-2.9602,-2.9602,-2.9696,-2.9943,-3.0036,-3.0203,-3.0447,-3.0538,-3.0728,-3.0988,-3.1444,-3.1873,-3.2306,-3.2859,-3.3355,-3.3825,-3.3887,-3.434,-3.7012,-3.768,-3.8202,-3.8202,-3.8144,-3.7941,-3.7433,-3.7114,-3.6446,-3.4714,0.0,-3.3752,-3.249,0.0,-3.3197,-3.3659,0.0,-3.5801,-3.6878,-3.8184,-3.9178,-3.9633,-4.0266,-4.0969,-4.1671,-4.2217,-4.282,-4.3522,-4.3518,-4.3756,-4.4336,-4.4364,-4.4317,-4.4303,-4.4303,-4.4303,-4.4303,-4.4303,-4.4303,-4.4303,-4.4303,-4.4162,-4.3926,-4.3926,-4.3818,-4.36,0.0,0.0,-4.3553,-4.3553,-4.3553,-4.3471,-4.3307,-4.25,-4.1433,-4.1216,-4.035,-3.9305,-3.9305,-3.9305,-3.921,-3.8708,-3.8041,-3.739,-3.689,-3.6252,-3.571,-3.571,-3.571,-3.571,-3.571,-3.529,-3.4761,-3.4165,-3.3607,-3.3047,-3.2463,-3.2273,-3.2218,-3.2218,-3.23,-3.2381,-3.2417,-3.2704,-3.2952,-3.2988,-3.2709,-3.2266,-3.1682,-3.0965,-3.0259,-2.9673,-2.9602,-2.9602,-2.9602,-2.9602,-2.9651,-2.9777,-3.0005,-3.0158,-3.0282,-3.055,-3.0959,-3.148,-3.1654,-3.2111,-3.2837,-3.3115,-3.363,-3.4337,-3.4543,-3.4936,-3.641,-3.7317,-3.8202,-3.8202,-3.7839,-3.7433,-3.7331,-3.6069,0.0,0.0,-3.3407,-3.2547,-3.2123,-3.2133,0.0,-3.2828,0.0,0.0,0.0,0.0,-3.8354,0.0,0.0,0.0,0.0,0.0,0.0,0.0,0.0,0.0,-4.4068,-4.4082,-4.3974,-4.3757,-4.3757,-4.3757,-4.3757,-4.3757,-4.3757,-4.3757,-4.3757,-4.3695,-4.3662,-4.3662,-4.3648,-4.36,0.0,0.0,-4.3355,-4.3355,-4.3211,-4.3032,-4.2984,-4.2202,-4.117,-4.1123,-4.035,-3.9305,-3.9305,-3.9305,-3.9278,-3.9183,-3.8423,-3.7472,-3.7363,-3.655,-3.571,-3.571,-3.571,-3.571,-3.571,-3.5642,-3.5371,-3.4788,-3.4179,-3.3596,-3.3074,-3.2558,-3.2218,-3.2218,-3.2205,-3.2277,-3.2381,-3.2453,-3.2632,-3.2952,-3.2939,-3.273,-3.2294,-3.1232,-3.0259,-2.9673,-2.9602,-2.9602,-2.9602,-2.9602,-2.9651,-2.9777,-3.0005,-3.0158,-3.0282,-3.0984,-3.1409,-3.1495,-3.2585,-3.3278,-3.3527,-3.4233,-3.472,-3.5035,-3.5228,-3.5385,-3.6309,-3.6965,-3.7425,-3.7425,-3.7209,-3.6734,-3.5762,0.0,0.0,0.0,-3.157,-3.0907,-3.0064,0.0,0.0,0.0,0.0,0.0,0.0,0.0,0.0,0.0,0.0,0.0,0.0,0.0,0.0,0.0,0.0,0.0,0.0,-4.377,-4.3709,-4.36,-4.36,-4.36,-4.36,-4.36,-4.36,-4.36,-4.36,-4.3566,-4.3437,-4.3437,-4.3389,-4.3245,0.0,0.0,-4.308,-4.308,-4.3032,-4.2887,-4.2887,-4.2344,-4.1544,-4.1232,-4.054,-3.9712,-3.9414,-3.9305,-3.9305,-3.9158,-3.8563,-3.7892,-3.7594,-3.6904,-3.6103,-3.5805,-3.571,-3.571,-3.571,-3.571,-3.5574,-3.4924,-3.4149,-3.3322,-3.2775,-3.2409,-3.2218,-3.2218,-3.2218,-3.2205,-3.23,-3.2359,-3.2489,-3.2668,-3.2881,-3.2814,-3.2311,-3.1811,-3.1101,-3.0161,-2.9799,-2.9602,-2.9602,-2.9602,-2.9634,-2.9682,-2.9837,-3.0164,-3.0633,-3.1149,-3.1765,-3.2527,-3.3184,-3.3696,-3.4083,-3.4555,-3.4883,-3.5034,-3.5261,-3.5392,-3.5968,-3.6382,-3.6496,-3.6496,-3.6319,-3.5718,-3.4252,-3.3493,0.0,0.0,-2.9824,-2.9309,-2.818,0.0,0.0,0.0,0.0,0.0,0.0,0.0,0.0,0.0,0.0,0.0,0.0,0.0,0.0,0.0,0.0,0.0,0.0,-4.3471,-4.3471,-4.3471,-4.3471,-4.3471,-4.3471,-4.3471,-4.3471,-4.3471,-4.3471,-4.3389,-4.3225,-4.3225,-4.308,-4.2887,0.0,0.0,0.0,-4.2887,-4.2887,-4.2887,-4.2887,-4.2521,-4.1924,-4.1233,-4.0624,-4.0015,-3.9375,-3.9172,-3.9127,-3.8922,-3.862,-3.8214,-3.7533,-3.6926,-3.6318,-3.5724,-3.5562,-3.5602,-3.5642,-3.5642,-3.548,-3.4924,-3.4027,-3.3091,-3.2531,-3.23,-3.2218,-3.2218,-3.2218,-3.2218,-3.2218,-3.23,-3.2359,-3.2381,-3.2668,-3.2715,-3.234,-3.2311,-3.1951,-3.1003,-3.0375,-2.9954,-2.9813,-2.9799,-2.9757,-2.9617,-2.9857,-3.031,-3.0982,-3.1455,-3.228,-3.3489,-3.3634,-3.392,-3.4414,-3.4597,-3.475,-3.4902,-3.5115,-3.5326,-3.4732,-3.5432,-3.5876,-3.5876,-3.5003,-3.4123,-3.3951,0.0,0.0,-3.0,-2.9004,-2.8108,-2.7849,-2.7919,-2.834,0.0,0.0,-3.1107,0.0,0.0,0.0,0.0,0.0,0.0,0.0,0.0,0.0,0.0,0.0,0.0,0.0,-4.3115,-4.2984,-4.2984,-4.2984,-4.2984,-4.2984,-4.2984,-4.2984,-4.2984,-4.2984,-4.2935,-4.2935,-4.2935,-4.2935,-4.2887,0.0,0.0,0.0,-4.2887,-4.2887,-4.2887,-4.2887,-4.2521,-4.189,-4.1032,-4.0333,-3.9742,-3.8938,-3.8647,-3.8647,-3.8647,-3.8381,-3.7954,-3.7133,-3.646,-3.5873,-3.5328,-3.5154,-3.5195,-3.5399,-3.544,-3.5332,-3.4898,-3.4301,-3.3664,-3.3142,-3.2599,-3.2218,-3.2218,-3.2218,-3.2218,-3.2218,-3.2205,-3.2277,-3.2381,-3.2417,-3.2583,-3.2883,-3.2458,-3.2151,-3.221,-3.1682,-3.1078,-3.0455,-3.0413,-3.0161,-2.9645,-3.0295,-3.081,-3.1071,-3.2349,-3.3176,-3.3489,-3.4037,-3.4356,-3.4414,-3.4597,-3.475,-3.4902,-3.5115,-3.5326,-3.3168,-3.3556,-3.3754,-3.3754,-3.3372,-3.2693,-3.1561,0.0,-2.945,-2.8274,-2.7343,-2.6708,-2.6666,-2.6582,-2.6931,-2.8146,-2.9011,0.0,0.0,0.0,0.0,0.0,0.0,0.0,0.0,0.0,0.0,0.0,0.0,0.0,0.0,0.0,-4.2887,-4.2887,-4.2887,-4.2887,-4.2887,-4.2887,-4.2887,-4.2887,-4.2887,-4.2887,-4.2887,-4.2887,-4.279,-4.2644,0.0,0.0,0.0,-4.2435,-4.2435,-4.2435,-4.2435,-4.2073,-4.1434,-4.0736,-4.0101,-3.9526,-3.8847,-3.8602,-3.8557,-3.8408,-3.8294,-3.8011,-3.7067,-3.6614,-3.6242,-3.5339,-3.5086,-3.5127,-3.5195,-3.5318,-3.5251,-3.4739,-3.4534,-3.4179,-3.3305,-3.2911,-3.264,-3.2286,-3.2218,-3.2218,-3.2218,-3.2218,-3.2205,-3.2264,-3.2359,-3.2489,-3.2775,-3.2722,-3.2723,-3.2926,-3.2075,-3.1387,-3.112,-3.1106,-3.1007,-3.0755,-3.103,-3.1471,-3.2051,-3.2687,-3.3298,-3.3854,-3.4216,-3.4414,-3.4414,-3.4481,-3.4616,-3.4783,-3.4935,-3.5115,-3.1682,-3.1991,-3.2131,-3.2131,-3.185,-3.1232,0.0,0.0,-2.8352,-2.6849,-2.6048,-2.557,-2.5361,-2.5392,-2.5758,-2.6759,-2.7925,-2.9306,0.0,0.0,0.0,0.0,0.0,0.0,0.0,0.0,0.0,0.0,0.0,0.0,0.0,0.0,-4.2693,-4.279,-4.2693,-4.2679,-4.2679,-4.2679,-4.2679,-4.2679,-4.2679,-4.2679,-4.2679,-4.2679,-4.2533,0.0,0.0,0.0,0.0,-4.2079,-4.2079,-4.2079,-4.2079,-4.1719,-4.1133,-4.0465,-3.988,-3.9282,-3.862,-3.8389,-3.8376,-3.8181,-3.8089,-3.7911,-3.6902,-3.6601,-3.635,-3.5198,-3.4949,-3.5003,-3.5003,-3.5154,-3.521,-3.4768,-3.4686,-3.4439,-3.3463,-3.3186,-3.2925,-3.2327,-3.2218,-3.2218,-3.2218,-3.2218,-3.2218,-3.2218,-3.2264,-3.2395,-3.2596,-3.281,-3.3002,-3.3192,-3.2505,-3.1963,-3.178,-3.1766,-3.1682,-3.1499,-3.1668,-3.2064,-3.267,-3.301,-3.3479,-3.4094,-3.4312,-3.4414,-3.4414,-3.4414,-3.4481,-3.4698,-3.4835,-3.5034,-3.0375,-3.1007,-3.1499,-3.1499,-3.0558,-2.9631,0.0,-2.8169,-2.6652,-2.6034,-2.5442,-2.4785,-2.4066,-2.4391,-2.4978,-2.5453,-2.6866,0.0,0.0,0.0,0.0,0.0,0.0,0.0,0.0,0.0,0.0,0.0,0.0,0.0,0.0,0.0,-4.2239,-4.2511,-4.2239,-4.2128,-4.2128,-4.2128,-4.2128,-4.2128,-4.2128,-4.2128,-4.2128,-4.2128,0.0,0.0,0.0,0.0,0.0,-4.2079,-4.2079,-4.2079,-4.2079,-4.1719,-4.1085,-4.0275,-3.9632,-3.8991,-3.8175,-3.79,-3.79,-3.79,-3.79,-3.7678,-3.6462,-3.6096,-3.5861,-3.4724,-3.4577,-3.4797,-3.4797,-3.4962,-3.5086,-3.5113,-3.4794,-3.4324,-3.3733,-3.3333,-3.2925,-3.2327,-3.2218,-3.2218,-3.2218,-3.2218,-3.2218,-3.2218,-3.2218,-3.2241,-3.2381,-3.2596,-3.2775,-3.2988,-3.3178,-3.3059,-3.244,-3.2398,-3.2145,-3.1527,-3.2061,-3.2466,-3.2684,-3.3485,-3.3951,-3.4094,-3.4312,-3.4414,-3.4414,-3.4414,-3.4481,-3.4698,-3.4835,-3.5115,-2.8591,-2.8818,-2.8987,-2.8987,-2.8677,-2.824,-2.779,-2.6905,-2.5978,-2.528,-2.4289,-2.3621,-2.3731,-2.381,-2.4159,-2.5149,-2.6333,0.0,0.0,0.0,0.0,0.0,0.0,0.0,0.0,0.0,0.0,0.0,0.0,0.0,0.0,0.0,0.0,-4.2239,-4.2128,-4.2079,-4.2079,-4.2079,-4.2079,-4.2079,-4.2079,-4.2079,-4.2079,-4.2079,0.0,0.0,0.0,0.0,0.0,-4.1547,-4.1547,-4.1547,-4.1547,-4.0969,-4.0088,-3.9808,-3.9126,-3.8214,-3.8011,-3.79,-3.79,-3.79,-3.79,-3.7678,-3.6475,-3.6109,-3.5861,-3.4724,-3.4439,-3.4535,-3.4535,-3.4714,-3.488,-3.488,-3.5021,-3.4955,-3.4338,-3.3941,-3.3485,-3.2938,-3.249,-3.2218,-3.2218,-3.2218,-3.2218,-3.2218,-3.2218,-3.2241,-3.2381,-3.2453,-3.2632,-3.2952,-3.3072,-3.3073,-3.301,-3.3031,-3.2946,-3.275,-3.2918,-3.3031,-3.31,-3.3506,-3.3779,-3.3951,-3.4108,-3.4264,-3.4414,-3.4414,-3.4481,-3.4698,-3.4835,-3.5034,0.0,-2.7242,-2.7467,-2.7647,-2.7353,0.0,0.0,-2.5673,-2.4864,-2.4158,-2.3395,-2.2915,-2.319,-2.3338,-2.3781,-2.4955,-2.6052,0.0,0.0,0.0,0.0,0.0,0.0,0.0,0.0,0.0,0.0,0.0,0.0,0.0,0.0,0.0,0.0,-4.1796,-4.1796,-4.1796,-4.1796,-4.1796,-4.1796,-4.1796,-4.1796,-4.1796,-4.1796,0.0,0.0,0.0,0.0,0.0,0.0,-4.1311,-4.1311,-4.1298,-4.1063,-4.0409,-3.9586,-3.9351,-3.8697,-3.79,-3.79,-3.79,-3.79,-3.79,-3.7599,-3.709,-3.6332,-3.5796,-3.5312,-3.4593,-3.4397,-3.4397,-3.4397,-3.4535,-3.466,-3.466,-3.4908,-3.5035,-3.4487,-3.4229,-3.3925,-3.3213,-3.2803,-3.2477,-3.2259,-3.2218,-3.2218,-3.2218,-3.2218,-3.2241,-3.2322,-3.2359,-3.2489,-3.2739,-3.2917,-3.3072,-3.3192,-3.3241,-3.329,-3.329,-3.329,-3.329,-3.329,-3.3501,-3.364,-3.3793,-3.4005,-3.4162,-3.4312,-3.4346,-3.4481,-3.4698,-3.4783,-3.4949,0.0,-2.6119,0.0,0.0,0.0,0.0,-2.5398,-2.447,0.0,-2.2829,-2.2705,-2.2655,-2.2506,-2.3002,-2.3782,-2.4815,-2.5993,0.0,0.0,0.0,0.0,0.0,0.0,0.0,0.0,0.0,0.0,0.0,0.0,0.0,0.0,0.0,0.0,0.0,-4.1311,-4.1311,-4.1311,-4.1311,-4.1311,-4.1311,-4.1311,-4.1311,-4.1311,0.0,0.0,0.0,0.0,0.0,0.0,-4.1272,-4.1259,-4.1193,-4.0592,-4.0017,-3.9481,-3.8919,-3.837,-3.79,-3.79,-3.79,-3.79,-3.79,-3.709,-3.6109,-3.6109,-3.5299,-3.4397,-3.4397,-3.4397,-3.4397,-3.4397,-3.4397,-3.4397,-3.4397,-3.4577,-3.4693,-3.4312,-3.4393,-3.4228,-3.3311,-3.3129,-3.2911,-3.2314,-3.2218,-3.2218,-3.2218,-3.2218,-3.2218,-3.2218,-3.23,-3.2381,-3.2417,-3.2739,-3.2988,-3.2988,-3.3192,-3.329,-3.329,-3.329,-3.329,-3.329,-3.3466,-3.3605,-3.3605,-3.3922,-3.4128,-3.4128,-3.4312,-3.4481,-3.4664,-3.4698,-3.4865,-2.3123,0.0,-2.4453,-2.4565,-2.4385,-2.4151,0.0,-2.3504,-2.2884,-2.266,-2.2594,-2.2506,-2.238,-2.3213,-2.4123,-2.4755,-2.5803,0.0,0.0,0.0,0.0,0.0,0.0,0.0,0.0,0.0,0.0,0.0,0.0,0.0,0.0,0.0,0.0,0.0,-4.1311,-4.1311,-4.1311,-4.1311,-4.1311,-4.1311,-4.1311,-4.1311,-4.1311,0.0,0.0,0.0,0.0,0.0,0.0,-4.0814,-4.0631,-4.0566,-4.0017,-3.9442,-3.8906,-3.8762,-3.837,-3.79,-3.79,-3.79,-3.79,-3.79,-3.709,-3.6109,-3.6109,-3.5299,-3.4397,-3.4397,-3.4397,-3.4397,-3.4397,-3.4397,-3.4397,-3.4397,-3.4577,-3.4758,-3.4667,-3.4566,-3.431,-3.3609,-3.3263,-3.2911,-3.2314,-3.2218,-3.2218,-3.2218,-3.2218,-3.2218,-3.2218,-3.2241,-3.23,-3.2381,-3.2489,-3.2668,-3.2988,-3.3192,-3.329,-3.329,-3.329,-3.329,-3.329,-3.3361,-3.3431,-3.3605,-3.3922,-3.4162,-3.4346,-3.438,-3.4414,-3.4481,-3.4631,-3.4731,-2.1506,-2.2451,-2.331,-2.3549,-2.3385,-2.3179,-2.3063,-2.2777,-2.2506,-2.2483,-2.2651,-2.2884,-2.3092,-2.3852,-2.4674,0.0,0.0,0.0,0.0,0.0,0.0,0.0,0.0,0.0,0.0,0.0,0.0,0.0,0.0,0.0,0.0,0.0,0.0,0.0,0.0,-4.106,-4.1311,-4.1311,-4.1311,-4.1311,-4.1311,-4.1311,-4.1311,0.0,0.0,0.0,0.0,0.0,-4.088,-4.0553,-4.0265,-3.9991,-3.9416,-3.8998,-3.8684,-3.8436,-3.8161,-3.79,-3.79,-3.79,-3.79,-3.79,-3.7273,-3.6462,-3.6188,-3.5495,-3.475,-3.4476,-3.4397,-3.4397,-3.4397,-3.4397,-3.4397,-3.4397,-3.4494,-3.466,-3.4756,-3.4792,-3.4634,-3.4123,-3.3725,-3.3281,-3.2721,-3.2395,-3.2218,-3.2218,-3.2218,-3.2218,-3.2218,-3.2218,-3.2241,-3.23,-3.2359,-3.2489,-3.2704,-3.3002,-3.3206,-3.3276,-3.329,-3.329,-3.329,-3.329,-3.3396,-3.3605,-3.3882,-3.4108,-3.4264,-3.4346,-3.4414,-3.4414,-3.4515,-3.4597,-2.0441,-2.1404,-2.2506,-2.3038,-2.2805,-2.2399,-2.2317,-2.2305,-2.2332,-2.2427,0.0,0.0,0.0,-2.4607,0.0,0.0,0.0,0.0,0.0,0.0,0.0,0.0,0.0,0.0,0.0,0.0,0.0,0.0,0.0,0.0,0.0,0.0,0.0,0.0,0.0,-4.063,-4.1161,-4.1161,-4.1161,-4.1161,-4.1161,-4.1161,-4.1161,-4.1161,0.0,0.0,0.0,0.0,-4.0132,-4.0041,-3.9754,-3.9272,-3.8673,-3.8439,-3.8374,-3.7931,-3.7808,-3.7854,-3.79,-3.79,-3.79,-3.79,-3.7495,-3.6907,-3.6397,-3.5796,-3.5195,-3.4672,-3.4463,-3.4397,-3.4397,-3.4397,-3.4397,-3.4397,-3.4397,-3.4439,-3.4714,-3.4921,-3.4953,-3.4513,-3.42,-3.3788,-3.3224,-3.268,-3.2327,-3.2218,-3.2218,-3.2218,-3.2218,-3.2218,-3.2218,-3.2218,-3.23,-3.2381,-3.2417,-3.2704,-3.3002,-3.3241,-3.3276,-3.329,-3.329,-3.329,-3.3396,-3.3605,-3.3793,-3.3951,-3.4094,-3.4264,-3.438,-3.4414,-3.4414,-3.4481,-2.0247,-2.0677,-2.0972,-2.157,-2.1651,-2.1719,-2.2196,-2.2305,-2.2454,-2.2957,0.0,0.0,0.0,-2.5128,0.0,0.0,0.0,0.0,0.0,0.0,0.0,0.0,0.0,0.0,0.0,0.0,0.0,0.0,0.0,0.0,0.0,0.0,0.0,0.0,0.0,-4.0067,-4.0605,-4.0605,-4.0605,-4.0605,-4.0605,-4.0605,-4.0605,-4.0605,-4.0399,0.0,0.0,0.0,-3.9023,-3.8573,-3.8341,-3.8212,-3.7561,-3.7343,-3.7317,-3.724,-3.7366,-3.7598,-3.7808,-3.79,-3.79,-3.79,-3.7495,-3.6985,-3.6894,-3.6136,-3.5273,-3.5195,-3.4789,-3.4397,-3.4397,-3.4397,-3.4397,-3.4397,-3.4397,-3.4397,-3.4439,-3.466,-3.4708,-3.4326,-3.4339,-3.4119,-3.3254,-3.302,-3.2789,-3.2286,-3.2218,-3.2218,-3.2218,-3.2218,-3.2218,-3.2218,-3.2205,-3.2264,-3.2381,-3.2453,-3.2668,-3.3023,-3.3206,-3.329,-3.329,-3.329,-3.3396,-3.3605,-3.364,-3.3813,-3.4094,-3.4128,-3.423,-3.4414,-3.4414,-3.4414,-1.9849,-2.0288,-2.0654,-2.125,-2.1643,-2.1966,-2.2251,-2.2807,-2.3337,-2.3528,0.0,0.0,0.0,0.0,0.0,0.0,0.0,0.0,0.0,0.0,0.0,0.0,0.0,0.0,0.0,0.0,0.0,0.0,0.0,0.0,0.0,0.0,0.0,0.0,0.0,0.0,-3.912,-3.9132,-3.9588,-4.0504,-4.0504,-4.035,-4.0055,-4.0055,-3.9735,0.0,0.0,-3.8877,-3.8338,-3.8095,-3.7813,-3.7493,-3.7224,-3.7108,-3.7108,-3.7108,-3.7168,-3.7307,-3.7413,-3.7459,-3.7505,-3.7657,-3.7521,-3.7235,-3.7045,-3.6632,-3.6083,-3.5469,-3.4868,-3.4397,-3.4397,-3.4397,-3.4397,-3.4397,-3.4397,-3.4397,-3.4397,-3.4618,-3.4772,-3.4576,-3.45,-3.435,-3.3929,-3.3447,-3.3006,-3.2735,-3.2422,-3.2218,-3.2218,-3.2218,-3.2218,-3.2218,-3.2218,-3.2205,-3.23,-3.2359,-3.2561,-3.2988,-3.3192,-3.329,-3.329,-3.329,-3.3361,-3.3431,-3.3536,-3.3675,-3.3833,-3.3991,-3.4162,-3.423,-3.4346,-3.4414,-1.9497,-1.9989,-2.0495,-2.1337,-2.1941,-2.232,-2.2444,-2.3405,-2.4257,-2.4266,0.0,0.0,0.0,0.0,0.0,0.0,0.0,0.0,0.0,0.0,0.0,0.0,0.0,0.0,0.0,0.0,0.0,0.0,0.0,0.0,0.0,0.0,0.0,0.0,0.0,0.0,-3.8002,-3.8002,-3.8641,-3.9905,-3.9905,-3.9675,-3.9304,-3.9304,-3.8985,-3.8449,-3.8449,-3.8143,-3.7645,-3.7645,-3.733,-3.6922,-3.6922,-3.6922,-3.6922,-3.6968,-3.7015,-3.7015,-3.7062,-3.7108,-3.7108,-3.7353,-3.7413,-3.7368,-3.7111,-3.6936,-3.6655,-3.5696,-3.4979,-3.4483,-3.4437,-3.4397,-3.4397,-3.4397,-3.4397,-3.4397,-3.4397,-3.4577,-3.4714,-3.4797,-3.4685,-3.4567,-3.4512,-3.3889,-3.3338,-3.3142,-3.2721,-3.2368,-3.2232,-3.2218,-3.2218,-3.2218,-3.2218,-3.2218,-3.2218,-3.2322,-3.2561,-3.2917,-3.3157,-3.329,-3.329,-3.329,-3.329,-3.329,-3.3466,-3.3536,-3.3605,-3.3868,-3.4025,-3.4094,-3.4264,-3.4346,-1.9374,-1.9727,-2.0139,-2.1682,-2.2177,-2.2403,-2.2855,-2.3877,-2.4844,-2.5218,-2.5801,0.0,0.0,0.0,0.0,0.0,0.0,0.0,0.0,0.0,0.0,0.0,0.0,0.0,0.0,0.0,0.0,0.0,0.0,0.0,0.0,0.0,0.0,0.0,0.0,0.0,-3.8002,-3.8002,-3.804,-3.8177,-3.8177,-3.8152,-3.8114,-3.8114,-3.7813,-3.7346,-3.7346,-3.7018,-3.6515,-3.6515,-3.649,-3.6452,-3.6452,-3.6452,-3.6452,-3.6675,-3.6722,-3.6756,-3.7002,-3.7108,-3.7108,-3.7108,-3.7108,-3.7108,-3.7103,-3.6731,-3.6283,-3.5869,-3.5318,-3.4779,-3.4499,-3.4397,-3.4397,-3.4397,-3.4397,-3.4397,-3.4397,-3.4397,-3.4481,-3.4756,-3.4812,-3.4737,-3.454,-3.4445,-3.4106,-3.3227,-3.3061,-3.283,-3.2286,-3.2218,-3.2218,-3.2218,-3.2218,-3.2218,-3.2218,-3.2322,-3.2489,-3.2704,-3.3086,-3.329,-3.329,-3.329,-3.329,-3.329,-3.3326,-3.3396,-3.3605,-3.3605,-3.3799,-3.4094,-3.4128,-3.423,-1.9282,-1.9584,-1.9957,-2.1573,-2.2295,-2.283,-2.3739,-2.458,-2.5298,-2.5703,-2.6255,0.0,0.0,0.0,0.0,0.0,0.0,0.0,0.0,0.0,0.0,0.0,0.0,0.0,0.0,0.0,0.0,0.0,0.0,0.0,0.0,0.0,0.0,0.0,0.0,0.0,0.0,-3.6937,-3.6985,-3.6998,-3.7676,-3.7826,-3.75,-3.75,-3.7199,-3.6719,-3.6719,-3.6606,-3.6405,-3.6405,-3.6405,-3.6405,-3.6405,-3.6405,-3.6405,-3.6499,-3.6499,-3.6546,-3.664,-3.664,-3.6687,-3.6815,-3.6862,-3.6862,-3.7062,-3.6967,-3.6596,-3.5788,-3.551,-3.531,-3.4604,-3.4397,-3.4397,-3.4397,-3.4397,-3.4397,-3.4397,-3.4397,-3.4439,-3.4535,-3.4673,-3.4772,-3.4711,-3.4567,-3.4243,-3.3513,-3.3219,-3.2884,-3.2286,-3.2218,-3.2218,-3.2218,-3.2218,-3.2218,-3.2218,-3.2322,-3.2417,-3.2525,-3.2881,-3.3157,-3.3276,-3.329,-3.329,-3.329,-3.329,-3.3361,-3.3396,-3.3536,-3.3675,-3.3799,-3.3991,-3.4128,-1.9123,-1.9436,-1.986,-2.1661,-2.2432,-2.3122,-2.4588,-2.5266,-2.5729,-2.6125,-2.6784,-2.7562,-2.8481,0.0,0.0,0.0,0.0,0.0,0.0,0.0,0.0,0.0,0.0,0.0,0.0,0.0,0.0,0.0,0.0,0.0,0.0,0.0,0.0,0.0,0.0,0.0,0.0,-3.6038,-3.6133,-3.6133,-3.6894,-3.7141,-3.6971,-3.6971,-3.6769,-3.6405,-3.6405,-3.6405,-3.6405,-3.6405,-3.6405,-3.6405,-3.6405,-3.6405,-3.6405,-3.6405,-3.6405,-3.6405,-3.6405,-3.6405,-3.6405,-3.6534,-3.6628,-3.6628,-3.6828,-3.6875,-3.6646,-3.5628,-3.5455,-3.5362,-3.4543,-3.4356,-3.4397,-3.4397,-3.4397,-3.4397,-3.4397,-3.4397,-3.4397,-3.4397,-3.4535,-3.4714,-3.4797,-3.4671,-3.4406,-3.3858,-3.35,-3.3043,-3.2448,-3.2254,-3.2218,-3.2218,-3.2218,-3.2218,-3.2218,-3.23,-3.2359,-3.2417,-3.2668,-3.2931,-3.3192,-3.3276,-3.329,-3.329,-3.329,-3.329,-3.329,-3.3431,-3.3536,-3.3605,-3.3833,-3.3991,-1.8968,-1.9301,-1.9827,-2.2062,-2.2603,-2.3181,-2.5301,-2.5918,-2.6138,-2.6601,-2.7468,-2.8472,-2.9598,0.0,0.0,0.0,0.0,0.0,0.0,0.0,0.0,0.0,0.0,0.0,0.0,0.0,0.0,0.0,0.0,0.0,0.0,0.0,0.0,0.0,0.0,0.0,0.0,-3.562,-3.562,-3.562,-3.562,-3.5895,-3.6405,-3.6405,-3.6405,-3.6405,-3.6405,-3.6405,-3.6405,-3.6405,-3.6405,-3.6405,-3.6405,-3.6405,-3.6405,-3.6405,-3.6405,-3.6405,-3.6392,-3.6392,-3.6392,-3.6392,-3.6392,-3.6392,-3.6392,-3.6392,-3.6213,-3.5312,-3.5098,-3.4921,-3.4259,-3.4243,-3.4397,-3.4397,-3.4397,-3.4397,-3.4397,-3.4397,-3.4397,-3.4397,-3.4397,-3.4481,-3.4756,-3.4797,-3.464,-3.4259,-3.3871,-3.3384,-3.2753,-3.2411,-3.2218,-3.2218,-3.2218,-3.2218,-3.2218,-3.2218,-3.2277,-3.2381,-3.2417,-3.2596,-3.2988,-3.3192,-3.329,-3.329,-3.329,-3.329,-3.329,-3.329,-3.3396,-3.3605,-3.3605,-3.3764,-1.8764,-1.9165,0.0,-2.1904,0.0,0.0,0.0,-2.5824,-2.6216,0.0,-2.8546,-2.9295,-2.9372,0.0,0.0,0.0,0.0,0.0,0.0,0.0,0.0,0.0,0.0,0.0,0.0,0.0,0.0,0.0,0.0,0.0,0.0,0.0,0.0,0.0,0.0,0.0,0.0,0.0,-3.562,-3.562,-3.562,-3.5668,-3.5847,-3.6051,-3.6098,-3.6146,-3.6323,-3.6405,-3.6405,-3.6405,-3.6405,-3.6405,-3.6405,-3.6405,-3.6367,-3.5931,-3.5793,-3.573,-3.5341,-3.5203,-3.5203,-3.5203,-3.5203,-3.5203,-3.5203,-3.5203,-3.5052,-3.4438,-3.4369,-3.4312,-3.376,-3.3907,-3.4243,-3.4356,-3.4397,-3.4397,-3.4397,-3.4397,-3.4397,-3.4397,-3.4397,-3.4439,-3.4481,-3.4673,-3.4612,-3.4071,-3.3661,-3.3108,-3.2267,-3.2168,-3.2218,-3.2218,-3.2218,-3.2218,-3.2218,-3.2218,-3.2205,-3.2277,-3.2359,-3.2596,-3.2988,-3.3072,-3.3157,-3.329,-3.329,-3.329,-3.329,-3.329,-3.3326,-3.3396,-3.3536,-3.364,-1.8578,-1.9015,0.0,-2.1839,-2.265,-2.3365,-2.5231,0.0,0.0,0.0,0.0,0.0,0.0,0.0,0.0,0.0,0.0,0.0,0.0,0.0,0.0,0.0,0.0,0.0,0.0,0.0,0.0,0.0,0.0,0.0,0.0,0.0,0.0,0.0,0.0,0.0,0.0,0.0,0.0,-3.4955,-3.5174,-3.5271,-3.5271,-3.5668,-3.5812,-3.5872,-3.6133,-3.6228,-3.6228,-3.6358,-3.6405,-3.6392,-3.6119,-3.6031,-3.5968,-3.537,-3.5169,-3.5119,-3.4793,-3.468,-3.468,-3.468,-3.468,-3.468,-3.468,-3.468,-3.4613,-3.406,-3.3985,-3.3978,-3.3538,-3.3611,-3.3907,-3.4202,-3.4356,-3.4397,-3.4397,-3.4397,-3.4397,-3.4397,-3.4397,-3.4397,-3.4397,-3.4535,-3.4513,-3.4158,-3.3648,-3.2978,-3.2001,-3.2073,-3.2218,-3.2218,-3.2218,-3.2218,-3.2218,-3.2218,-3.2218,-3.2218,-3.2264,-3.2467,-3.2739,-3.2917,-3.3072,-3.3192,-3.3241,-3.329,-3.329,-3.329,-3.329,-3.329,-3.3431,-3.3536,-1.8427,-1.8911,0.0,-2.1786,-2.2518,0.0,-2.5102,-2.6852,-2.8173,0.0,0.0,0.0,0.0,0.0,0.0,0.0,0.0,0.0,0.0,0.0,0.0,0.0,0.0,0.0,0.0,0.0,0.0,0.0,0.0,0.0,0.0,0.0,0.0,0.0,0.0,0.0,0.0,0.0,0.0,0.0,-3.4414,-3.4643,-3.4691,-3.5283,-3.5572,-3.562,-3.5872,-3.5968,-3.5968,-3.6275,-3.6332,-3.6245,-3.5696,-3.547,-3.5357,-3.4806,-3.465,-3.4638,-3.4587,-3.4575,-3.4575,-3.4575,-3.4575,-3.4575,-3.4575,-3.4575,-3.4462,-3.396,-3.3822,-3.3752,-3.3452,-3.3398,-3.3526,-3.3949,-3.4202,-3.4397,-3.4397,-3.4397,-3.4397,-3.4397,-3.4397,-3.4397,-3.4397,-3.4397,-3.4384,-3.4332,-3.3727,-3.2941,-3.2082,-3.2063,-3.2182,-3.2218,-3.2218,-3.2218,-3.2218,-3.2218,-3.2218,-3.2218,-3.2218,-3.2241,-3.2381,-3.2739,-3.2952,-3.2988,-3.3157,-3.3276,-3.3276,-3.329,-3.329,-3.329,-3.329,-3.3396,-1.8323,-1.8911,0.0,0.0,-2.3444,-2.4882,-2.5658,-2.679,0.0,0.0,0.0,0.0,0.0,0.0,0.0,0.0,0.0,0.0,0.0,0.0,0.0,0.0,0.0,0.0,0.0,0.0,0.0,0.0,0.0,0.0,0.0,0.0,0.0,0.0,0.0,0.0,-3.3284,-3.3392,-3.3452,0.0,-3.3561,-3.3621,-3.3645,-3.4798,-3.5416,-3.562,-3.5668,-3.5668,-3.5716,-3.5955,-3.5849,-3.545,-3.5499,-3.5232,-3.4826,-3.4274,-3.4073,-3.401,-3.3583,-3.3432,-3.3432,-3.3432,-3.3432,-3.3432,-3.3432,-3.3432,-3.3407,-3.3282,-3.3257,-3.3275,-3.3192,-3.3283,-3.3441,-3.3526,-3.3865,-3.4202,-3.4356,-3.4397,-3.4397,-3.4397,-3.4397,-3.4397,-3.4397,-3.4397,-3.4254,-3.3822,-3.3356,-3.2867,-3.2379,-3.2085,-3.2036,-3.2182,-3.2218,-3.2218,-3.2218,-3.2218,-3.2218,-3.2218,-3.2218,-3.2205,-3.2241,-3.2431,-3.2596,-3.2775,-3.2952,-3.3072,-3.3072,-3.3241,-3.329,-3.329,-3.329,-3.3326,-1.748,0.0,0.0,-2.1467,0.0,-2.4562,-2.5306,-2.6304,0.0,0.0,0.0,0.0,0.0,0.0,0.0,0.0,0.0,0.0,0.0,0.0,0.0,0.0,0.0,0.0,0.0,0.0,0.0,0.0,0.0,0.0,0.0,0.0,0.0,0.0,0.0,0.0,-3.2503,-3.2779,-3.2911,-3.2911,-3.3176,-3.3284,-3.3308,-3.3991,-3.4387,-3.4516,-3.4611,-3.4658,-3.4658,-3.4928,-3.4954,-3.4785,-3.4636,-3.444,-3.4261,-3.3709,-3.3508,-3.347,-3.3224,-3.3124,-3.3124,-3.3124,-3.3124,-3.3124,-3.3124,-3.3124,-3.3124,-3.3124,-3.3124,-3.3124,-3.3124,-3.3197,-3.3283,-3.3398,-3.3781,-3.4118,-3.4243,-3.4314,-3.4397,-3.4397,-3.4397,-3.4397,-3.4397,-3.4397,-3.4214,-3.3679,-3.3277,-3.2816,-3.2311,-3.2054,-3.1927,-3.2036,-3.2146,-3.2218,-3.2218,-3.2218,-3.2218,-3.2218,-3.2218,-3.2218,-3.2218,-3.2277,-3.2395,-3.2561,-3.2739,-3.2917,-3.2988,-3.3108,-3.3206,-3.329,-3.329,-3.329,-1.6576,0.0,-1.9274,-2.1102,-2.2458,0.0,-2.4444,0.0,0.0,0.0,0.0,0.0,0.0,0.0,0.0,0.0,0.0,0.0,0.0,0.0,0.0,0.0,0.0,0.0,0.0,0.0,0.0,0.0,0.0,0.0,0.0,0.0,0.0,0.0,0.0,-3.1584,-3.1617,-3.2085,-3.2313,-3.237,-3.2803,-3.3008,-3.3008,-3.3008,-3.3104,-3.3284,-3.3504,-3.3538,-3.3584,-3.3836,-3.4028,-3.4099,-3.3628,-3.357,-3.3652,-3.3201,-3.3081,-3.3124,-3.3124,-3.3124,-3.3124,-3.3124,-3.3124,-3.3124,-3.3124,-3.3124,-3.3124,-3.3124,-3.3124,-3.3124,-3.3124,-3.3124,-3.3154,-3.3313,-3.3654,-3.3992,-3.4076,-3.4285,-3.4397,-3.4397,-3.4397,-3.4397,-3.4397,-3.4397,-3.4241,-3.3796,-3.329,-3.279,-3.2303,-3.2009,-3.1817,-3.189,-3.2036,-3.2146,-3.2218,-3.2218,-3.2218,-3.2218,-3.2218,-3.2218,-3.2218,-3.2218,-3.2241,-3.2359,-3.2561,-3.2739,-3.2917,-3.2988,-3.3108,-3.3241,-3.3276,-3.329,0.0,0.0,-1.9889,0.0,-2.1718,-2.3145,0.0,0.0,0.0,0.0,0.0,0.0,0.0,0.0,0.0,0.0,0.0,0.0,0.0,0.0,0.0,0.0,0.0,0.0,0.0,0.0,0.0,0.0,0.0,0.0,0.0,0.0,-3.1107,-3.1107,-3.1107,0.0,-3.135,-3.1422,-3.1591,-3.1825,-3.1898,-3.1922,-3.1922,-3.1922,-3.2394,-3.3284,-3.3331,-3.3331,-3.3377,-3.3584,-3.3396,-3.3028,-3.3179,-3.3081,-3.2854,-3.2791,-3.2896,-3.3124,-3.3124,-3.3124,-3.3124,-3.3124,-3.3124,-3.3124,-3.3124,-3.3124,-3.3124,-3.3124,-3.3124,-3.3124,-3.3124,-3.3124,-3.3124,-3.3111,-3.3326,-3.3611,-3.3992,-3.4285,-3.4397,-3.4397,-3.4397,-3.4397,-3.4397,-3.4397,-3.4371,-3.4293,-3.3418,-3.2778,-3.2895,-3.2021,-3.1495,-3.1853,-3.1927,-3.2,-3.2182,-3.2218,-3.2218,-3.2218,-3.2218,-3.2218,-3.2218,-3.2218,-3.2218,-3.2241,-3.2359,-3.2453,-3.2489,-3.2846,-3.3023,-3.3023,-3.3241,-3.329,-1.6228,-1.7817,-1.912,0.0,-2.0721,-2.1836,0.0,0.0,0.0,0.0,0.0,0.0,0.0,0.0,0.0,0.0,0.0,0.0,0.0,0.0,0.0,0.0,0.0,0.0,0.0,0.0,0.0,0.0,0.0,0.0,0.0,-3.0984,-3.0984,-3.0984,-3.0984,0.0,-3.1139,-3.1139,-3.1229,-3.1484,-3.1617,-3.1705,-3.1705,-3.1705,-3.197,-3.2415,-3.2415,-3.2415,-3.2427,-3.2506,-3.245,-3.2334,-3.2479,-3.2553,-3.255,-3.268,-3.2754,-3.2896,-3.3038,-3.3124,-3.3124,-3.3124,-3.3124,-3.3124,-3.3124,-3.3124,-3.3124,-3.3124,-3.3124,-3.3124,-3.3124,-3.3124,-3.3124,-3.3124,-3.324,-3.3441,-3.3654,-3.3992,-3.4285,-3.4397,-3.4397,-3.4397,-3.4397,-3.4397,-3.4397,-3.4397,-3.343,-3.2725,-3.2804,-3.196,-3.1384,-3.1545,-3.1669,-3.178,-3.1853,-3.1963,-3.2036,-3.2036,-3.2146,-3.2218,-3.2218,-3.2218,-3.2218,-3.2218,-3.2277,-3.2322,-3.2417,-3.2596,-3.2739,-3.2846,-3.3037,-3.3108,0.0,0.0,-1.7923,-1.8908,-1.9715,-2.0568,0.0,0.0,0.0,0.0,0.0,0.0,0.0,0.0,0.0,0.0,0.0,0.0,0.0,0.0,0.0,0.0,0.0,0.0,0.0,0.0,0.0,0.0,0.0,0.0,-3.0781,-3.0793,-3.0793,-3.0793,-3.0793,-3.0838,-3.0883,-3.0984,-3.1062,-3.1229,-3.1484,-3.1617,-3.1617,-3.1661,-3.1705,-3.1705,-3.1705,-3.1705,-3.1705,-3.1705,-3.1805,-3.1937,-3.1937,-3.2081,-3.23,-3.2463,-3.255,-3.268,-3.2896,-3.2995,-3.3025,-3.3081,-3.3124,-3.3124,-3.3124,-3.3124,-3.3124,-3.3124,-3.3124,-3.3124,-3.3124,-3.3124,-3.3124,-3.3124,-3.3197,-3.3356,-3.3526,-3.3865,-3.416,-3.4356,-3.4397,-3.4397,-3.4397,-3.4397,-3.4397,-3.4397,-3.343,-3.2685,-3.2685,-3.1845,-3.1235,-3.1272,-3.1434,-3.1522,-3.1609,-3.1743,-3.1817,-3.1817,-3.2,-3.2109,-3.2109,-3.2182,-3.2218,-3.2218,-3.2218,-3.2241,-3.2359,-3.2381,-3.2489,-3.2632,-3.2846,-3.2952,0.0,-1.5533,0.0,-1.7626,0.0,0.0,0.0,0.0,0.0,0.0,0.0,0.0,0.0,0.0,0.0,0.0,0.0,0.0,0.0,0.0,0.0,0.0,0.0,0.0,0.0,0.0,0.0,0.0,0.0,0.0,-3.0238,-3.0261,-3.0261,-3.0261,-3.0261,-3.0352,-3.0623,-3.0871,-3.1029,-3.1029,-3.1229,-3.1306,-3.135,-3.1572,-3.1705,-3.1705,-3.1705,-3.1705,-3.1705,-3.1705,-3.1717,-3.1705,-3.1705,-3.1849,-3.2038,-3.2025,-3.2213,-3.2431,-3.2636,-3.2711,-3.2754,-3.3025,-3.3124,-3.3124,-3.3124,-3.3124,-3.3124,-3.3124,-3.3124,-3.3124,-3.3124,-3.3124,-3.3124,-3.3124,-3.3124,-3.3283,-3.3907,-3.4076,-3.416,-3.4356,-3.4397,-3.4397,-3.4397,-3.4397,-3.4397,-3.4397,-3.343,-3.2685,-3.2685,-3.1692,-3.1099,-3.1272,-3.131,-3.1397,-3.1559,-3.1609,-3.1609,-3.1609,-3.178,-3.1927,-3.1927,-3.2109,-3.2218,-3.2218,-3.2218,-3.2205,-3.2205,-3.2322,-3.2417,-3.2417,-3.2632,-3.281,0.0,0.0,0.0,-1.7005,0.0,0.0,0.0,0.0,0.0,0.0,0.0,0.0,0.0,0.0,0.0,0.0,0.0,0.0,0.0,0.0,0.0,0.0,0.0,0.0,0.0,0.0,0.0,0.0,0.0,0.0,-2.9228,-2.9561,-2.9757,-2.9757,-3.0055,-3.0261,-3.0352,-3.0589,-3.0724,-3.0724,-3.1005,-3.1107,-3.1107,-3.135,-3.1439,-3.1439,-3.1617,-3.1705,-3.1705,-3.1705,-3.1705,-3.1705,-3.1705,-3.1749,-3.1805,-3.1937,-3.2081,-3.2169,-3.2431,-3.2593,-3.2723,-3.281,-3.2939,-3.3124,-3.3124,-3.3124,-3.3124,-3.3124,-3.3124,-3.3124,-3.3124,-3.3124,-3.3124,-3.3124,-3.3124,-3.3197,-3.3569,-3.3907,-3.416,-3.4356,-3.4397,-3.4397,-3.4397,-3.4397,-3.4397,-3.4397,-3.343,-3.2685,-3.2685,-3.1692,-3.1024,-3.1099,-3.1099,-3.1136,-3.1211,-3.1323,-3.1397,-3.1397,-3.1596,-3.172,-3.172,-3.178,-3.189,-3.2,-3.2,-3.2073,-3.2218,-3.2241,-3.2264,-3.2264,-3.2431,-3.2561,-1.4121,0.0,0.0,0.0,0.0,0.0,0.0,0.0,0.0,0.0,0.0,0.0,0.0,0.0,0.0,0.0,0.0,0.0,0.0,0.0,0.0,0.0,0.0,0.0,0.0,0.0,0.0,0.0,0.0,0.0,-2.8689,-2.9033,-2.9309,-2.9493,-2.9802,-3.0055,-3.0216,-3.0397,-3.0487,-3.0487,-3.0736,-3.0883,-3.0871,-3.1095,-3.1217,-3.1306,-3.1484,-3.1617,-3.1705,-3.1705,-3.1705,-3.1705,-3.1705,-3.1705,-3.1705,-3.1849,-3.1893,-3.1937,-3.2169,-3.2332,-3.2463,-3.255,-3.2766,-3.2982,-3.2982,-3.3025,-3.3124,-3.3124,-3.3124,-3.3124,-3.3124,-3.3124,-3.3124,-3.3124,-3.3124,-3.3154,-3.3356,-3.3696,-3.4021,-3.4285,-3.4356,-3.4397,-3.4397,-3.4397,-3.4332,-3.4162,-3.3313,-3.262,-3.2424,-3.1575,-3.0986,-3.0986,-3.0986,-3.0986,-3.0986,-3.1123,-3.1198,-3.1198,-3.1397,-3.1485,-3.1485,-3.1559,-3.1683,-3.178,-3.178,-3.189,-3.2109,-3.2182,-3.2218,-3.2218,-3.23,-3.2359,0.0,0.0,0.0,0.0,0.0,0.0,0.0,0.0,0.0,0.0,0.0,0.0,0.0,0.0,0.0,0.0,0.0,0.0,0.0,0.0,0.0,0.0,0.0,0.0,0.0,0.0,0.0,0.0,0.0,-2.8161,-2.8632,-2.8666,-2.8919,-2.9458,-2.9481,-2.9711,-3.0181,-3.0193,-3.0204,-3.0216,-3.0442,-3.0578,-3.0623,-3.0883,-3.1095,-3.1306,-3.1306,-3.1439,-3.1705,-3.1705,-3.1705,-3.1705,-3.1705,-3.1705,-3.1705,-3.1705,-3.1705,-3.1705,-3.1937,-3.1994,-3.2038,-3.23,-3.2519,-3.2711,-3.2711,-3.2896,-3.3124,-3.3124,-3.3124,-3.3124,-3.3124,-3.3124,-3.3124,-3.3124,-3.3124,-3.3154,-3.3356,-3.3556,-3.3768,-3.4034,-3.4285,-3.4397,-3.4397,-3.4397,-3.4214,-3.3679,-3.3077,-3.2489,-3.1876,-3.1339,-3.0986,-3.0986,-3.0986,-3.0986,-3.0986,-3.0986,-3.0986,-3.0986,-3.1161,-3.1272,-3.1272,-3.1485,-3.1609,-3.1609,-3.1609,-3.1683,-3.189,-3.2109,-3.2182,-3.2218,-3.2218,-3.2277,-1.4486,0.0,0.0,0.0,0.0,0.0,0.0,0.0,0.0,0.0,0.0,0.0,0.0,0.0,0.0,0.0,0.0,0.0,0.0,0.0,0.0,0.0,0.0,0.0,0.0,0.0,0.0,0.0,0.0,-2.733,-2.7591,-2.7977,-2.8402,-2.8907,-2.8919,-2.9171,-2.9688,-2.9699,-2.9871,-3.0216,-3.0261,-3.0306,-3.0306,-3.0589,-3.0758,-3.0802,-3.1172,-3.135,-3.1439,-3.1617,-3.1705,-3.1705,-3.1705,-3.1705,-3.1705,-3.1705,-3.1705,-3.1705,-3.1761,-3.1893,-3.1994,-3.2081,-3.2376,-3.2711,-3.2711,-3.2896,-3.3124,-3.3124,-3.3124,-3.3124,-3.3124,-3.3124,-3.3124,-3.3124,-3.3124,-3.3124,-3.3154,-3.3356,-3.3611,-3.4034,-3.416,-3.4243,-3.4356,-3.4397,-3.4214,-3.3679,-3.3077,-3.2489,-3.1876,-3.1339,-3.0986,-3.0986,-3.0986,-3.0986,-3.0986,-3.0986,-3.0986,-3.0986,-3.1061,-3.1099,-3.1099,-3.1136,-3.1248,-3.1397,-3.1384,-3.1471,-3.1683,-3.189,-3.2073,-3.2218,-3.2218,-3.2205,-1.447,-1.4666,-1.4894,0.0,0.0,0.0,0.0,-1.6057,0.0,0.0,0.0,0.0,0.0,0.0,0.0,0.0,0.0,0.0,0.0,0.0,0.0,0.0,0.0,0.0,0.0,0.0,0.0,0.0,-2.6181,-2.6635,-2.7056,-2.7382,-2.7813,-2.8379,-2.8402,-2.8643,-2.916,-2.9389,-2.9642,-2.9917,-3.0124,-3.0216,-3.0216,-3.0352,-3.0487,-3.0623,-3.0994,-3.1229,-3.1306,-3.1572,-3.1705,-3.1705,-3.1705,-3.1705,-3.1705,-3.1705,-3.1705,-3.1705,-3.1705,-3.1761,-3.1893,-3.1893,-3.2113,-3.2419,-3.255,-3.2723,-3.2939,-3.3068,-3.3124,-3.3124,-3.3124,-3.3124,-3.3124,-3.3124,-3.3124,-3.3124,-3.3124,-3.3197,-3.3356,-3.3738,-3.3865,-3.4021,-3.4243,-3.4285,-3.4053,-3.3339,-3.2921,-3.2398,-3.1588,-3.1196,-3.0986,-3.0986,-3.0986,-3.0986,-3.0986,-3.0986,-3.0986,-3.0986,-3.0986,-3.0986,-3.0986,-3.0986,-3.1061,-3.1161,-3.1161,-3.1286,-3.1485,-3.1669,-3.189,-3.2073,-3.2146,-3.2218,-1.4167,-1.446,-1.4765,0.0,0.0,0.0,-1.53,-1.5661,0.0,0.0,0.0,0.0,0.0,0.0,0.0,0.0,0.0,0.0,0.0,0.0,0.0,0.0,0.0,0.0,0.0,0.0,0.0,-2.4915,-2.543,-2.6037,-2.6737,-2.6771,-2.7122,-2.7832,-2.7897,-2.8138,-2.8609,-2.9091,-2.9389,-2.9504,-2.9929,-3.017,-3.0216,-3.0216,-3.0352,-3.0578,-3.0826,-3.105,-3.1306,-3.1528,-3.1661,-3.1705,-3.1705,-3.1705,-3.1705,-3.1705,-3.1705,-3.1705,-3.1705,-3.1705,-3.1705,-3.1705,-3.1849,-3.2038,-3.2257,-3.2519,-3.2766,-3.3025,-3.3124,-3.3124,-3.3124,-3.3124,-3.3124,-3.3124,-3.3124,-3.3124,-3.3124,-3.3124,-3.3154,-3.3313,-3.3513,-3.3768,-3.3992,-3.4076,-3.3729,-3.2789,-3.2619,-3.2241,-3.1092,-3.0949,-3.0986,-3.0986,-3.0986,-3.0986,-3.0986,-3.0986,-3.0986,-3.0986,-3.0986,-3.0986,-3.0986,-3.0986,-3.0986,-3.0986,-3.0986,-3.1099,-3.1272,-3.1485,-3.172,-3.189,-3.2073,-3.2182,0.0,0.0,0.0,0.0,0.0,0.0,-1.5131,-1.5211,0.0,0.0,0.0,0.0,0.0,0.0,0.0,0.0,0.0,0.0,0.0,0.0,0.0,0.0,0.0,0.0,0.0,0.0,0.0,-2.3623,-2.4636,-2.5441,-2.5986,-2.6008,-2.6355,-2.711,-2.7122,-2.7444,-2.8115,-2.823,-2.8689,-2.9504,-2.9596,-2.9837,-3.0216,-3.0216,-3.0216,-3.0306,-3.0578,-3.0826,-3.1062,-3.1306,-3.1484,-3.1705,-3.1705,-3.1705,-3.1705,-3.1705,-3.1705,-3.1705,-3.1705,-3.1705,-3.1705,-3.1705,-3.1849,-3.1994,-3.2081,-3.2376,-3.2766,-3.3025,-3.3124,-3.3124,-3.3124,-3.3124,-3.3124,-3.3124,-3.3124,-3.3124,-3.3124,-3.3124,-3.3124,-3.3154,-3.3313,-3.3526,-3.3725,-3.3768,-3.3437,-3.236,-3.2246,-3.1821,-3.0662,-3.0647,-3.0773,-3.0773,-3.0911,-3.0986,-3.0986,-3.0986,-3.0986,-3.0986,-3.0986,-3.0986,-3.0986,-3.0986,-3.0986,-3.0986,-3.0986,-3.1024,-3.1061,-3.141,-3.172,-3.189,-3.1927,-3.2036,0.0,0.0,0.0,-1.5614,0.0,0.0,0.0,-1.5006,0.0,0.0,0.0,0.0,0.0,0.0,0.0,0.0,0.0,0.0,0.0,0.0,0.0,0.0,0.0,0.0,0.0,0.0,-2.2535,-2.3117,-2.3714,-2.4426,-2.5249,-2.5294,-2.5636,-2.6343,-2.6477,-2.6837,-2.7432,-2.782,-2.823,-2.8746,-2.8987,-2.9366,-2.986,-2.986,-2.9986,-3.0216,-3.0487,-3.0679,-3.0826,-3.1172,-3.1395,-3.1528,-3.1661,-3.1705,-3.1705,-3.1705,-3.1705,-3.1705,-3.1705,-3.1705,-3.1705,-3.1705,-3.1749,-3.1849,-3.1994,-3.2332,-3.2723,-3.2853,-3.2995,-3.3124,-3.3124,-3.3124,-3.3124,-3.3124,-3.3124,-3.3124,-3.3124,-3.3124,-3.3124,-3.3124,-3.3197,-3.3313,-3.3513,-3.3326,-3.2909,-3.2213,-3.1842,-3.1342,-3.0509,-3.0482,-3.0533,-3.0533,-3.0647,-3.071,-3.071,-3.071,-3.0748,-3.0836,-3.0849,-3.0911,-3.0986,-3.0986,-3.0986,-3.0986,-3.0986,-3.0986,-3.0986,-3.1211,-3.1397,-3.1582,-3.1706,-3.1853,0.0,0.0,0.0,0.0,0.0,-1.5154,0.0,0.0,0.0,0.0,0.0,0.0,0.0,0.0,0.0,0.0,0.0,0.0,0.0,0.0,0.0,0.0,0.0,0.0,0.0,0.0,0.0,-2.2663,-2.2815,-2.3327,-2.4387,-2.4531,-2.4886,-2.5585,-2.5898,-2.6295,-2.6744,-2.7462,-2.7843,-2.7989,-2.8379,-2.8838,-2.9343,-2.9458,-2.9711,-3.0089,-3.0396,-3.0532,-3.0623,-3.1083,-3.1261,-3.135,-3.1617,-3.1705,-3.1705,-3.1705,-3.1705,-3.1705,-3.1705,-3.1705,-3.1705,-3.1705,-3.1705,-3.1749,-3.1937,-3.2245,-3.2581,-3.2667,-3.2853,-3.3025,-3.3081,-3.3124,-3.3124,-3.3124,-3.3124,-3.3124,-3.3124,-3.3124,-3.3124,-3.3124,-3.3124,-3.3154,-3.3313,-3.2887,-3.2425,-3.2041,-3.1467,-3.0892,-3.0369,-3.033,-3.033,-3.033,-3.0368,-3.0406,-3.0406,-3.0406,-3.0482,-3.0622,-3.066,-3.0736,-3.0874,-3.0911,-3.0949,-3.0949,-3.0986,-3.0986,-3.0986,-3.0986,-3.1099,-3.131,-3.1485,-3.1633,0.0,0.0,0.0,0.0,-1.5822,0.0,0.0,0.0,0.0,0.0,0.0,0.0,0.0,0.0,0.0,0.0,0.0,0.0,0.0,0.0,0.0,0.0,0.0,0.0,0.0,0.0,0.0,0.0,-2.2149,-2.2619,-2.317,-2.3618,-2.4144,-2.4875,-2.5347,-2.5804,-2.6262,-2.6762,-2.7364,-2.7977,-2.8035,-2.8322,-2.8804,-2.9274,-2.9527,-2.9607,-3.0032,-3.0397,-3.0623,-3.0916,-3.1139,-3.135,-3.1617,-3.1705,-3.1705,-3.1705,-3.1705,-3.1705,-3.1705,-3.1705,-3.1705,-3.1705,-3.1705,-3.1749,-3.1937,-3.2038,-3.2169,-3.2581,-3.2711,-3.2797,-3.3038,-3.3124,-3.3124,-3.3124,-3.3124,-3.3124,-3.3124,-3.3124,-3.3124,-3.3124,-3.3124,-3.3124,-3.3111,-3.2634,-3.2068,-3.1568,-3.1027,-3.0486,-2.9932,-3.0011,-3.0113,-3.0113,-3.0292,-3.0406,-3.0406,-3.0406,-3.0406,-3.0444,-3.0444,-3.0444,-3.0482,-3.0647,-3.0736,-3.0736,-3.0911,-3.0986,-3.0986,-3.0986,-3.1099,-3.131,-3.131,-3.1434,0.0,0.0,0.0,0.0,0.0,0.0,0.0,0.0,-1.506,0.0,0.0,0.0,0.0,0.0,0.0,0.0,0.0,0.0,0.0,0.0,0.0,0.0,0.0,0.0,0.0,0.0,0.0,0.0,0.0,-2.135,-2.2138,-2.2641,-2.3159,-2.3743,-2.4365,-2.5093,-2.5983,-2.6318,-2.6832,-2.7552,-2.7552,-2.7805,-2.8287,-2.8517,-2.8769,-2.9056,-2.9573,-2.9847,-2.9993,-3.0563,-3.0916,-3.1139,-3.1395,-3.1572,-3.1705,-3.1705,-3.1705,-3.1705,-3.1705,-3.1705,-3.1705,-3.1705,-3.1705,-3.1705,-3.1805,-3.1893,-3.2025,-3.2245,-3.2506,-3.2723,-3.2853,-3.2982,-3.3124,-3.3124,-3.3124,-3.3124,-3.3124,-3.3124,-3.3124,-3.3124,-3.3124,-3.3124,-3.3124,-3.2328,-3.165,-3.1424,-3.0683,-3.0055,-2.9829,-2.9869,-2.9934,-2.9934,-3.0011,-3.0049,-3.0049,-3.0049,-3.0113,-3.0228,-3.033,-3.0406,-3.0406,-3.0482,-3.0533,-3.0533,-3.0723,-3.0849,-3.0849,-3.0949,-3.1061,-3.1123,-3.1123,-3.1248,-1.7873,0.0,0.0,0.0,0.0,0.0,0.0,0.0,0.0,0.0,0.0,0.0,0.0,0.0,0.0,0.0,0.0,0.0,0.0,0.0,0.0,0.0,0.0,0.0,0.0,0.0,0.0,0.0,-1.9965,0.0,-2.1155,-2.1778,-2.2324,-2.2794,-2.3446,-2.4299,-2.534,-2.5847,-2.6365,-2.6943,-2.7121,-2.7415,-2.7782,-2.792,-2.8172,-2.854,-2.9056,-2.9274,-2.9353,-2.9931,-3.0386,-3.0716,-3.0971,-3.132,-3.1617,-3.1661,-3.1705,-3.1705,-3.1705,-3.1705,-3.1705,-3.1705,-3.1705,-3.1705,-3.1705,-3.1805,-3.195,-3.1981,-3.2245,-3.255,-3.268,-3.2853,-3.3025,-3.3068,-3.3124,-3.3124,-3.3124,-3.3124,-3.3124,-3.3124,-3.3124,-3.3124,-3.3124,-3.2139,-3.1386,-3.1386,-3.0482,-2.9792,-2.9792,-2.9792,-2.9792,-2.9792,-2.9792,-2.9792,-2.9792,-2.9792,-2.9869,-3.0011,-3.0152,-3.0228,-3.0228,-3.0292,-3.033,-3.033,-3.0533,-3.0609,-3.0609,-3.0798,-3.0911,-3.0911,-3.0986,-3.1099,0.0,0.0,0.0,-1.7284,0.0,0.0,0.0,0.0,-1.5647,0.0,0.0,0.0,0.0,0.0,-1.435,-1.4222,-1.4199,0.0,0.0,0.0,0.0,0.0,0.0,0.0,0.0,0.0,0.0,0.0,-1.9584,0.0,-2.0162,-2.1101,-2.1832,-2.2324,-2.2783,-2.3387,-2.4144,-2.5273,-2.5954,-2.6246,-2.6909,-2.7201,-2.7224,-2.7759,-2.7989,-2.8035,-2.8517,-2.8723,-2.8735,-2.9028,-2.9416,-2.989,-3.0395,-3.0922,-3.135,-3.1617,-3.1705,-3.1705,-3.1705,-3.1705,-3.1705,-3.1705,-3.1705,-3.1705,-3.1705,-3.1705,-3.1761,-3.195,-3.1994,-3.2113,-3.2581,-3.2723,-3.2766,-3.3038,-3.3124,-3.3124,-3.3124,-3.3124,-3.3124,-3.3124,-3.3124,-3.3124,-3.3124,-3.2139,-3.1386,-3.1386,-3.0482,-2.9792,-2.9792,-2.9792,-2.9792,-2.9792,-2.9792,-2.9792,-2.9792,-2.9792,-2.9792,-2.9792,-2.983,-2.983,-2.983,-3.0011,-3.0113,-3.0113,-3.0292,-3.0406,-3.0406,-3.0609,-3.0698,-3.0698,-3.0911,-3.0986,0.0,0.0,-1.7682,-1.7383,0.0,0.0,0.0,0.0,0.0,0.0,0.0,0.0,0.0,0.0,-1.4468,-1.4134,-1.408,-1.4057,0.0,0.0,0.0,0.0,0.0,0.0,0.0,0.0,0.0,-1.7682,-1.8065,-1.8654,0.0,-2.0249,-2.086,-2.1376,-2.2127,-2.2856,-2.3552,-2.4435,-2.5318,-2.6223,-2.6554,-2.6898,-2.7201,-2.7403,-2.7483,-2.7518,-2.8012,-2.823,-2.8253,-2.866,-2.9031,-2.9378,-2.9668,-3.0213,-3.0898,-3.1496,-3.1705,-3.1705,-3.1705,-3.1705,-3.1705,-3.1705,-3.1705,-3.1705,-3.1705,-3.1705,-3.1705,-3.1761,-3.1893,-3.2038,-3.2201,-3.2388,-3.2519,-3.2605,-3.2736,-3.2853,-3.2853,-3.2982,-3.3124,-3.3124,-3.3124,-3.2955,-3.2566,-3.1888,-3.1386,-3.1386,-3.0482,-2.9792,-2.9792,-2.9792,-2.9792,-2.9792,-2.9792,-2.9792,-2.9792,-2.9792,-2.9792,-2.9792,-2.9792,-2.9792,-2.9792,-2.9869,-2.9895,-2.9895,-3.0113,-3.019,-3.019,-3.0406,-3.0482,-3.0495,-3.0723,-3.0874,-1.8484,-1.8202,0.0,0.0,-1.7359,0.0,-1.7171,0.0,0.0,0.0,0.0,0.0,0.0,0.0,-1.4577,-1.4222,-1.4031,-1.3915,0.0,-1.3868,0.0,0.0,0.0,0.0,0.0,0.0,-1.5711,-1.6645,-1.7082,-1.7711,0.0,0.0,-2.0074,-2.0587,-2.1549,-2.2352,-2.2934,-2.3921,-2.481,-2.5571,-2.6211,-2.6674,-2.6967,-2.711,-2.719,-2.7201,-2.7575,-2.7713,-2.7736,-2.8046,-2.8383,-2.8727,-2.8916,-2.9487,-3.0288,-3.1105,-3.1548,-3.1705,-3.1705,-3.1705,-3.1705,-3.1705,-3.1705,-3.1705,-3.1705,-3.1705,-3.1705,-3.1705,-3.1805,-3.1893,-3.1981,-3.2125,-3.2257,-3.24,-3.2519,-3.2593,-3.2593,-3.2723,-3.2865,-3.2865,-3.2865,-3.2691,-3.2075,-3.1527,-3.1173,-3.1094,-3.0357,-2.9792,-2.9792,-2.9792,-2.9792,-2.9792,-2.9792,-2.9792,-2.9792,-2.9792,-2.9792,-2.9792,-2.9792,-2.9792,-2.9792,-2.9792,-2.9792,-2.9792,-2.9934,-2.9972,-2.9972,-3.019,-3.0292,-3.0292,-3.0495,-3.0647]}]]